<?xml version="1.0" encoding="UTF-8" standalone="no" ?>
<gpx xmlns="http://www.topografix.com/GPX/1/1" xmlns:xsi="http://www.w3.org/2001/XMLSchema-instance" xsi:schemaLocation="http://www.topografix.com/GPX/1/1 http://www.topografix.com/GPX/1/1/gpx.xsd" version="1.1" creator="VisuGPX - https://www.visugpx.com">
  <metadata>
    <name>Sommet du Pinet (Chartreuse)</name>
    <desc><![CDATA[Combiné avec le tour de l\'Alpe.]]></desc>
  </metadata>
  <trk>
    <name><![CDATA[30-AOU-26 16:29:00]]></name>
    <trkseg>
      <trkpt lat="45.44421" lon="5.90049">
        <ele>1059.51</ele>
        <time>2026-08-30T06:34:37Z</time>
      </trkpt>
      <trkpt lat="45.44422" lon="5.90048">
        <ele>1054.7</ele>
        <time>2026-08-30T06:34:44Z</time>
      </trkpt>
      <trkpt lat="45.44422" lon="5.90048">
        <ele>1062.39</ele>
        <time>2026-08-30T06:34:45Z</time>
      </trkpt>
      <trkpt lat="45.44422" lon="5.90048">
        <ele>1054.22</ele>
        <time>2026-08-30T06:34:46Z</time>
      </trkpt>
      <trkpt lat="45.44422" lon="5.90049">
        <ele>1065.76</ele>
        <time>2026-08-30T06:34:47Z</time>
      </trkpt>
      <trkpt lat="45.44422" lon="5.90049">
        <ele>1060.95</ele>
        <time>2026-08-30T06:34:48Z</time>
      </trkpt>
      <trkpt lat="45.44422" lon="5.90049">
        <ele>1059.51</ele>
        <time>2026-08-30T06:35:02Z</time>
      </trkpt>
      <trkpt lat="45.44421" lon="5.90048">
        <ele>1059.03</ele>
        <time>2026-08-30T06:35:30Z</time>
      </trkpt>
      <trkpt lat="45.44419" lon="5.90056">
        <ele>1059.51</ele>
        <time>2026-08-30T06:35:43Z</time>
      </trkpt>
      <trkpt lat="45.44419" lon="5.9006">
        <ele>1059.99</ele>
        <time>2026-08-30T06:35:58Z</time>
      </trkpt>
      <trkpt lat="45.44419" lon="5.90065">
        <ele>1059.99</ele>
        <time>2026-08-30T06:36:01Z</time>
      </trkpt>
      <trkpt lat="45.44413" lon="5.90088">
        <ele>1060.47</ele>
        <time>2026-08-30T06:36:18Z</time>
      </trkpt>
      <trkpt lat="45.44404" lon="5.90111">
        <ele>1060.95</ele>
        <time>2026-08-30T06:36:31Z</time>
      </trkpt>
      <trkpt lat="45.44404" lon="5.90135">
        <ele>1060.95</ele>
        <time>2026-08-30T06:36:47Z</time>
      </trkpt>
      <trkpt lat="45.44405" lon="5.9014">
        <ele>1061.43</ele>
        <time>2026-08-30T06:36:50Z</time>
      </trkpt>
      <trkpt lat="45.444" lon="5.90164">
        <ele>1061.91</ele>
        <time>2026-08-30T06:37:07Z</time>
      </trkpt>
      <trkpt lat="45.44399" lon="5.90187">
        <ele>1062.87</ele>
        <time>2026-08-30T06:37:22Z</time>
      </trkpt>
      <trkpt lat="45.444" lon="5.90206">
        <ele>1063.84</ele>
        <time>2026-08-30T06:37:37Z</time>
      </trkpt>
      <trkpt lat="45.44403" lon="5.90228">
        <ele>1064.8</ele>
        <time>2026-08-30T06:37:50Z</time>
      </trkpt>
      <trkpt lat="45.44403" lon="5.90231">
        <ele>1065.28</ele>
        <time>2026-08-30T06:37:52Z</time>
      </trkpt>
      <trkpt lat="45.44404" lon="5.90235">
        <ele>1065.28</ele>
        <time>2026-08-30T06:37:54Z</time>
      </trkpt>
      <trkpt lat="45.44402" lon="5.9026">
        <ele>1066.72</ele>
        <time>2026-08-30T06:38:11Z</time>
      </trkpt>
      <trkpt lat="45.44404" lon="5.90283">
        <ele>1067.68</ele>
        <time>2026-08-30T06:38:27Z</time>
      </trkpt>
      <trkpt lat="45.44405" lon="5.90285">
        <ele>1067.68</ele>
        <time>2026-08-30T06:38:28Z</time>
      </trkpt>
      <trkpt lat="45.44403" lon="5.90307">
        <ele>1068.64</ele>
        <time>2026-08-30T06:38:43Z</time>
      </trkpt>
      <trkpt lat="45.44393" lon="5.90328">
        <ele>1070.08</ele>
        <time>2026-08-30T06:38:59Z</time>
      </trkpt>
      <trkpt lat="45.44391" lon="5.90347">
        <ele>1071.05</ele>
        <time>2026-08-30T06:39:10Z</time>
      </trkpt>
      <trkpt lat="45.44386" lon="5.90376">
        <ele>1072.01</ele>
        <time>2026-08-30T06:39:28Z</time>
      </trkpt>
      <trkpt lat="45.44391" lon="5.90404">
        <ele>1073.93</ele>
        <time>2026-08-30T06:39:44Z</time>
      </trkpt>
      <trkpt lat="45.44394" lon="5.90424">
        <ele>1074.89</ele>
        <time>2026-08-30T06:39:57Z</time>
      </trkpt>
      <trkpt lat="45.44399" lon="5.90448">
        <ele>1076.33</ele>
        <time>2026-08-30T06:40:14Z</time>
      </trkpt>
      <trkpt lat="45.44402" lon="5.90457">
        <ele>1077.29</ele>
        <time>2026-08-30T06:40:21Z</time>
      </trkpt>
      <trkpt lat="45.44401" lon="5.90473">
        <ele>1078.26</ele>
        <time>2026-08-30T06:40:33Z</time>
      </trkpt>
      <trkpt lat="45.44397" lon="5.90485">
        <ele>1080.18</ele>
        <time>2026-08-30T06:40:44Z</time>
      </trkpt>
      <trkpt lat="45.44385" lon="5.90494">
        <ele>1081.14</ele>
        <time>2026-08-30T06:40:58Z</time>
      </trkpt>
      <trkpt lat="45.4437" lon="5.90497">
        <ele>1083.06</ele>
        <time>2026-08-30T06:41:14Z</time>
      </trkpt>
      <trkpt lat="45.44357" lon="5.90506">
        <ele>1084.02</ele>
        <time>2026-08-30T06:41:28Z</time>
      </trkpt>
      <trkpt lat="45.44342" lon="5.90516">
        <ele>1084.99</ele>
        <time>2026-08-30T06:41:44Z</time>
      </trkpt>
      <trkpt lat="45.44324" lon="5.90522">
        <ele>1086.43</ele>
        <time>2026-08-30T06:41:58Z</time>
      </trkpt>
      <trkpt lat="45.44322" lon="5.90526">
        <ele>1086.43</ele>
        <time>2026-08-30T06:42:03Z</time>
      </trkpt>
      <trkpt lat="45.44321" lon="5.90528">
        <ele>1086.91</ele>
        <time>2026-08-30T06:42:05Z</time>
      </trkpt>
      <trkpt lat="45.44307" lon="5.90538">
        <ele>1088.35</ele>
        <time>2026-08-30T06:42:21Z</time>
      </trkpt>
      <trkpt lat="45.44292" lon="5.90548">
        <ele>1089.79</ele>
        <time>2026-08-30T06:42:35Z</time>
      </trkpt>
      <trkpt lat="45.44274" lon="5.90555">
        <ele>1090.75</ele>
        <time>2026-08-30T06:42:50Z</time>
      </trkpt>
      <trkpt lat="45.44259" lon="5.9056">
        <ele>1091.71</ele>
        <time>2026-08-30T06:43:06Z</time>
      </trkpt>
      <trkpt lat="45.44246" lon="5.90565">
        <ele>1093.16</ele>
        <time>2026-08-30T06:43:20Z</time>
      </trkpt>
      <trkpt lat="45.44232" lon="5.9057">
        <ele>1093.64</ele>
        <time>2026-08-30T06:43:34Z</time>
      </trkpt>
      <trkpt lat="45.44229" lon="5.9057">
        <ele>1093.64</ele>
        <time>2026-08-30T06:43:38Z</time>
      </trkpt>
      <trkpt lat="45.44227" lon="5.9057">
        <ele>1094.12</ele>
        <time>2026-08-30T06:43:40Z</time>
      </trkpt>
      <trkpt lat="45.44211" lon="5.90567">
        <ele>1095.08</ele>
        <time>2026-08-30T06:43:54Z</time>
      </trkpt>
      <trkpt lat="45.44209" lon="5.90567">
        <ele>1095.08</ele>
        <time>2026-08-30T06:43:56Z</time>
      </trkpt>
      <trkpt lat="45.44205" lon="5.90564">
        <ele>1095.56</ele>
        <time>2026-08-30T06:44:00Z</time>
      </trkpt>
      <trkpt lat="45.44189" lon="5.90559">
        <ele>1097.48</ele>
        <time>2026-08-30T06:44:15Z</time>
      </trkpt>
      <trkpt lat="45.44188" lon="5.90559">
        <ele>1097.48</ele>
        <time>2026-08-30T06:44:16Z</time>
      </trkpt>
      <trkpt lat="45.44182" lon="5.90556">
        <ele>1097.96</ele>
        <time>2026-08-30T06:44:21Z</time>
      </trkpt>
      <trkpt lat="45.44176" lon="5.90555">
        <ele>1098.92</ele>
        <time>2026-08-30T06:44:33Z</time>
      </trkpt>
      <trkpt lat="45.44171" lon="5.9056">
        <ele>1099.4</ele>
        <time>2026-08-30T06:44:42Z</time>
      </trkpt>
      <trkpt lat="45.44155" lon="5.9057">
        <ele>1101.33</ele>
        <time>2026-08-30T06:44:59Z</time>
      </trkpt>
      <trkpt lat="45.44149" lon="5.90579">
        <ele>1102.77</ele>
        <time>2026-08-30T06:45:16Z</time>
      </trkpt>
      <trkpt lat="45.44138" lon="5.90577">
        <ele>1104.69</ele>
        <time>2026-08-30T06:45:29Z</time>
      </trkpt>
      <trkpt lat="45.4413" lon="5.90575">
        <ele>1105.17</ele>
        <time>2026-08-30T06:45:35Z</time>
      </trkpt>
      <trkpt lat="45.44125" lon="5.90576">
        <ele>1105.65</ele>
        <time>2026-08-30T06:45:38Z</time>
      </trkpt>
      <trkpt lat="45.44114" lon="5.90586">
        <ele>1107.1</ele>
        <time>2026-08-30T06:45:46Z</time>
      </trkpt>
      <trkpt lat="45.44101" lon="5.90594">
        <ele>1109.02</ele>
        <time>2026-08-30T06:45:58Z</time>
      </trkpt>
      <trkpt lat="45.44093" lon="5.9061">
        <ele>1109.98</ele>
        <time>2026-08-30T06:46:10Z</time>
      </trkpt>
      <trkpt lat="45.44088" lon="5.90629">
        <ele>1111.42</ele>
        <time>2026-08-30T06:46:25Z</time>
      </trkpt>
      <trkpt lat="45.44087" lon="5.90634">
        <ele>1111.9</ele>
        <time>2026-08-30T06:46:28Z</time>
      </trkpt>
      <trkpt lat="45.4408" lon="5.90653">
        <ele>1113.34</ele>
        <time>2026-08-30T06:46:43Z</time>
      </trkpt>
      <trkpt lat="45.44071" lon="5.9066">
        <ele>1114.31</ele>
        <time>2026-08-30T06:46:56Z</time>
      </trkpt>
      <trkpt lat="45.44061" lon="5.90683">
        <ele>1116.23</ele>
        <time>2026-08-30T06:47:13Z</time>
      </trkpt>
      <trkpt lat="45.44058" lon="5.90699">
        <ele>1117.67</ele>
        <time>2026-08-30T06:47:25Z</time>
      </trkpt>
      <trkpt lat="45.44058" lon="5.90722">
        <ele>1119.59</ele>
        <time>2026-08-30T06:47:41Z</time>
      </trkpt>
      <trkpt lat="45.44051" lon="5.90735">
        <ele>1121.52</ele>
        <time>2026-08-30T06:47:53Z</time>
      </trkpt>
      <trkpt lat="45.44048" lon="5.90747">
        <ele>1122</ele>
        <time>2026-08-30T06:48:01Z</time>
      </trkpt>
      <trkpt lat="45.44048" lon="5.90758">
        <ele>1123.44</ele>
        <time>2026-08-30T06:48:14Z</time>
      </trkpt>
      <trkpt lat="45.44048" lon="5.90763">
        <ele>1123.44</ele>
        <time>2026-08-30T06:48:18Z</time>
      </trkpt>
      <trkpt lat="45.44053" lon="5.90778">
        <ele>1124.4</ele>
        <time>2026-08-30T06:48:30Z</time>
      </trkpt>
      <trkpt lat="45.44054" lon="5.90782">
        <ele>1124.88</ele>
        <time>2026-08-30T06:48:32Z</time>
      </trkpt>
      <trkpt lat="45.44066" lon="5.908">
        <ele>1126.32</ele>
        <time>2026-08-30T06:48:47Z</time>
      </trkpt>
      <trkpt lat="45.44077" lon="5.90811">
        <ele>1128.24</ele>
        <time>2026-08-30T06:49:03Z</time>
      </trkpt>
      <trkpt lat="45.44078" lon="5.90816">
        <ele>1128.73</ele>
        <time>2026-08-30T06:49:08Z</time>
      </trkpt>
      <trkpt lat="45.44077" lon="5.90835">
        <ele>1130.17</ele>
        <time>2026-08-30T06:49:23Z</time>
      </trkpt>
      <trkpt lat="45.44079" lon="5.90846">
        <ele>1131.61</ele>
        <time>2026-08-30T06:49:34Z</time>
      </trkpt>
      <trkpt lat="45.44072" lon="5.90866">
        <ele>1132.57</ele>
        <time>2026-08-30T06:49:49Z</time>
      </trkpt>
      <trkpt lat="45.44066" lon="5.90882">
        <ele>1134.01</ele>
        <time>2026-08-30T06:50:02Z</time>
      </trkpt>
      <trkpt lat="45.44059" lon="5.909">
        <ele>1135.94</ele>
        <time>2026-08-30T06:50:17Z</time>
      </trkpt>
      <trkpt lat="45.44054" lon="5.90921">
        <ele>1137.38</ele>
        <time>2026-08-30T06:50:33Z</time>
      </trkpt>
      <trkpt lat="45.44056" lon="5.90926">
        <ele>1137.86</ele>
        <time>2026-08-30T06:50:38Z</time>
      </trkpt>
      <trkpt lat="45.44054" lon="5.90935">
        <ele>1139.3</ele>
        <time>2026-08-30T06:50:53Z</time>
      </trkpt>
      <trkpt lat="45.44052" lon="5.90931">
        <ele>1141.22</ele>
        <time>2026-08-30T06:51:09Z</time>
      </trkpt>
      <trkpt lat="45.44042" lon="5.90928">
        <ele>1142.18</ele>
        <time>2026-08-30T06:51:22Z</time>
      </trkpt>
      <trkpt lat="45.44032" lon="5.90947">
        <ele>1144.11</ele>
        <time>2026-08-30T06:51:37Z</time>
      </trkpt>
      <trkpt lat="45.44027" lon="5.9096">
        <ele>1145.55</ele>
        <time>2026-08-30T06:51:50Z</time>
      </trkpt>
      <trkpt lat="45.44027" lon="5.90976">
        <ele>1146.99</ele>
        <time>2026-08-30T06:52:04Z</time>
      </trkpt>
      <trkpt lat="45.44027" lon="5.9098">
        <ele>1146.99</ele>
        <time>2026-08-30T06:52:07Z</time>
      </trkpt>
      <trkpt lat="45.44029" lon="5.91008">
        <ele>1146.99</ele>
        <time>2026-08-30T06:52:25Z</time>
      </trkpt>
      <trkpt lat="45.44024" lon="5.91028">
        <ele>1146.99</ele>
        <time>2026-08-30T06:52:39Z</time>
      </trkpt>
      <trkpt lat="45.44019" lon="5.91043">
        <ele>1146.99</ele>
        <time>2026-08-30T06:52:54Z</time>
      </trkpt>
      <trkpt lat="45.44029" lon="5.91061">
        <ele>1146.99</ele>
        <time>2026-08-30T06:53:12Z</time>
      </trkpt>
      <trkpt lat="45.44037" lon="5.91081">
        <ele>1147.95</ele>
        <time>2026-08-30T06:53:23Z</time>
      </trkpt>
      <trkpt lat="45.44041" lon="5.91102">
        <ele>1148.43</ele>
        <time>2026-08-30T06:53:39Z</time>
      </trkpt>
      <trkpt lat="45.44039" lon="5.91104">
        <ele>1148.43</ele>
        <time>2026-08-30T06:53:42Z</time>
      </trkpt>
      <trkpt lat="45.44034" lon="5.91109">
        <ele>1147.95</ele>
        <time>2026-08-30T06:53:48Z</time>
      </trkpt>
      <trkpt lat="45.44034" lon="5.91131">
        <ele>1147.47</ele>
        <time>2026-08-30T06:54:05Z</time>
      </trkpt>
      <trkpt lat="45.44031" lon="5.91139">
        <ele>1146.99</ele>
        <time>2026-08-30T06:54:14Z</time>
      </trkpt>
      <trkpt lat="45.44023" lon="5.91144">
        <ele>1146.99</ele>
        <time>2026-08-30T06:54:19Z</time>
      </trkpt>
      <trkpt lat="45.44018" lon="5.91163">
        <ele>1148.43</ele>
        <time>2026-08-30T06:54:34Z</time>
      </trkpt>
      <trkpt lat="45.4402" lon="5.91175">
        <ele>1149.87</ele>
        <time>2026-08-30T06:54:46Z</time>
      </trkpt>
      <trkpt lat="45.44022" lon="5.9118">
        <ele>1150.35</ele>
        <time>2026-08-30T06:54:50Z</time>
      </trkpt>
      <trkpt lat="45.4402" lon="5.91181">
        <ele>1150.35</ele>
        <time>2026-08-30T06:54:53Z</time>
      </trkpt>
      <trkpt lat="45.44013" lon="5.91183">
        <ele>1150.84</ele>
        <time>2026-08-30T06:55:02Z</time>
      </trkpt>
      <trkpt lat="45.43999" lon="5.91174">
        <ele>1151.32</ele>
        <time>2026-08-30T06:55:15Z</time>
      </trkpt>
      <trkpt lat="45.43991" lon="5.91188">
        <ele>1153.24</ele>
        <time>2026-08-30T06:55:29Z</time>
      </trkpt>
      <trkpt lat="45.4399" lon="5.91191">
        <ele>1153.24</ele>
        <time>2026-08-30T06:55:30Z</time>
      </trkpt>
      <trkpt lat="45.43991" lon="5.91199">
        <ele>1154.2</ele>
        <time>2026-08-30T06:55:36Z</time>
      </trkpt>
      <trkpt lat="45.43992" lon="5.91214">
        <ele>1155.16</ele>
        <time>2026-08-30T06:55:45Z</time>
      </trkpt>
      <trkpt lat="45.4399" lon="5.9123">
        <ele>1156.6</ele>
        <time>2026-08-30T06:55:56Z</time>
      </trkpt>
      <trkpt lat="45.43992" lon="5.91246">
        <ele>1158.05</ele>
        <time>2026-08-30T06:56:11Z</time>
      </trkpt>
      <trkpt lat="45.43992" lon="5.91252">
        <ele>1159.97</ele>
        <time>2026-08-30T06:56:21Z</time>
      </trkpt>
      <trkpt lat="45.43986" lon="5.9125">
        <ele>1161.89</ele>
        <time>2026-08-30T06:56:33Z</time>
      </trkpt>
      <trkpt lat="45.43989" lon="5.91255">
        <ele>1164.29</ele>
        <time>2026-08-30T06:56:46Z</time>
      </trkpt>
      <trkpt lat="45.43989" lon="5.91256">
        <ele>1164.29</ele>
        <time>2026-08-30T06:56:47Z</time>
      </trkpt>
      <trkpt lat="45.43994" lon="5.91259">
        <ele>1164.77</ele>
        <time>2026-08-30T06:56:50Z</time>
      </trkpt>
      <trkpt lat="45.44013" lon="5.91272">
        <ele>1167.18</ele>
        <time>2026-08-30T06:57:04Z</time>
      </trkpt>
      <trkpt lat="45.44014" lon="5.91274">
        <ele>1167.66</ele>
        <time>2026-08-30T06:57:21Z</time>
      </trkpt>
      <trkpt lat="45.44026" lon="5.91278">
        <ele>1169.1</ele>
        <time>2026-08-30T06:57:35Z</time>
      </trkpt>
      <trkpt lat="45.44047" lon="5.91286">
        <ele>1172.47</ele>
        <time>2026-08-30T06:57:52Z</time>
      </trkpt>
      <trkpt lat="45.44068" lon="5.91296">
        <ele>1175.35</ele>
        <time>2026-08-30T06:58:09Z</time>
      </trkpt>
      <trkpt lat="45.44074" lon="5.91303">
        <ele>1176.79</ele>
        <time>2026-08-30T06:58:18Z</time>
      </trkpt>
      <trkpt lat="45.44081" lon="5.91317">
        <ele>1180.16</ele>
        <time>2026-08-30T06:58:38Z</time>
      </trkpt>
      <trkpt lat="45.44082" lon="5.91331">
        <ele>1182.56</ele>
        <time>2026-08-30T06:58:54Z</time>
      </trkpt>
      <trkpt lat="45.44086" lon="5.91343">
        <ele>1184.96</ele>
        <time>2026-08-30T06:59:08Z</time>
      </trkpt>
      <trkpt lat="45.4409" lon="5.91345">
        <ele>1185.44</ele>
        <time>2026-08-30T06:59:13Z</time>
      </trkpt>
      <trkpt lat="45.44116" lon="5.91347">
        <ele>1186.4</ele>
        <time>2026-08-30T06:59:31Z</time>
      </trkpt>
      <trkpt lat="45.44122" lon="5.91341">
        <ele>1187.85</ele>
        <time>2026-08-30T06:59:45Z</time>
      </trkpt>
      <trkpt lat="45.4413" lon="5.91342">
        <ele>1190.25</ele>
        <time>2026-08-30T07:00:00Z</time>
      </trkpt>
      <trkpt lat="45.44141" lon="5.91349">
        <ele>1192.17</ele>
        <time>2026-08-30T07:00:14Z</time>
      </trkpt>
      <trkpt lat="45.44158" lon="5.91346">
        <ele>1194.09</ele>
        <time>2026-08-30T07:00:31Z</time>
      </trkpt>
      <trkpt lat="45.44159" lon="5.91339">
        <ele>1196.98</ele>
        <time>2026-08-30T07:00:46Z</time>
      </trkpt>
      <trkpt lat="45.4417" lon="5.91333">
        <ele>1199.38</ele>
        <time>2026-08-30T07:01:00Z</time>
      </trkpt>
      <trkpt lat="45.4419" lon="5.91327">
        <ele>1200.82</ele>
        <time>2026-08-30T07:01:17Z</time>
      </trkpt>
      <trkpt lat="45.44201" lon="5.91314">
        <ele>1202.27</ele>
        <time>2026-08-30T07:01:34Z</time>
      </trkpt>
      <trkpt lat="45.44218" lon="5.913">
        <ele>1203.71</ele>
        <time>2026-08-30T07:01:49Z</time>
      </trkpt>
      <trkpt lat="45.44223" lon="5.91289">
        <ele>1205.15</ele>
        <time>2026-08-30T07:02:01Z</time>
      </trkpt>
      <trkpt lat="45.44226" lon="5.91286">
        <ele>1205.63</ele>
        <time>2026-08-30T07:02:06Z</time>
      </trkpt>
      <trkpt lat="45.44237" lon="5.91282">
        <ele>1207.07</ele>
        <time>2026-08-30T07:02:25Z</time>
      </trkpt>
      <trkpt lat="45.44239" lon="5.91284">
        <ele>1207.55</ele>
        <time>2026-08-30T07:02:29Z</time>
      </trkpt>
      <trkpt lat="45.44246" lon="5.91283">
        <ele>1209.96</ele>
        <time>2026-08-30T07:02:45Z</time>
      </trkpt>
      <trkpt lat="45.44258" lon="5.91278">
        <ele>1211.88</ele>
        <time>2026-08-30T07:03:00Z</time>
      </trkpt>
      <trkpt lat="45.44269" lon="5.91271">
        <ele>1212.84</ele>
        <time>2026-08-30T07:03:15Z</time>
      </trkpt>
      <trkpt lat="45.44281" lon="5.91269">
        <ele>1212.36</ele>
        <time>2026-08-30T07:03:28Z</time>
      </trkpt>
      <trkpt lat="45.44283" lon="5.91271">
        <ele>1214.76</ele>
        <time>2026-08-30T07:03:45Z</time>
      </trkpt>
      <trkpt lat="45.44287" lon="5.91274">
        <ele>1216.21</ele>
        <time>2026-08-30T07:04:04Z</time>
      </trkpt>
      <trkpt lat="45.44318" lon="5.91271">
        <ele>1216.69</ele>
        <time>2026-08-30T07:04:22Z</time>
      </trkpt>
      <trkpt lat="45.44336" lon="5.91266">
        <ele>1218.13</ele>
        <time>2026-08-30T07:04:38Z</time>
      </trkpt>
      <trkpt lat="45.44353" lon="5.91276">
        <ele>1219.57</ele>
        <time>2026-08-30T07:04:56Z</time>
      </trkpt>
      <trkpt lat="45.44377" lon="5.91283">
        <ele>1222.45</ele>
        <time>2026-08-30T07:05:14Z</time>
      </trkpt>
      <trkpt lat="45.44386" lon="5.91292">
        <ele>1224.38</ele>
        <time>2026-08-30T07:05:28Z</time>
      </trkpt>
      <trkpt lat="45.44386" lon="5.91288">
        <ele>1224.86</ele>
        <time>2026-08-30T07:05:47Z</time>
      </trkpt>
      <trkpt lat="45.44392" lon="5.91297">
        <ele>1227.26</ele>
        <time>2026-08-30T07:06:03Z</time>
      </trkpt>
      <trkpt lat="45.44379" lon="5.91286">
        <ele>1229.66</ele>
        <time>2026-08-30T07:06:20Z</time>
      </trkpt>
      <trkpt lat="45.44372" lon="5.91294">
        <ele>1232.07</ele>
        <time>2026-08-30T07:06:35Z</time>
      </trkpt>
      <trkpt lat="45.44364" lon="5.91303">
        <ele>1233.99</ele>
        <time>2026-08-30T07:06:48Z</time>
      </trkpt>
      <trkpt lat="45.44361" lon="5.91316">
        <ele>1236.87</ele>
        <time>2026-08-30T07:07:06Z</time>
      </trkpt>
      <trkpt lat="45.44351" lon="5.91327">
        <ele>1239.28</ele>
        <time>2026-08-30T07:07:23Z</time>
      </trkpt>
      <trkpt lat="45.4435" lon="5.9134">
        <ele>1242.16</ele>
        <time>2026-08-30T07:07:39Z</time>
      </trkpt>
      <trkpt lat="45.44341" lon="5.91344">
        <ele>1245.04</ele>
        <time>2026-08-30T07:07:55Z</time>
      </trkpt>
      <trkpt lat="45.44334" lon="5.91354">
        <ele>1246.97</ele>
        <time>2026-08-30T07:08:10Z</time>
      </trkpt>
      <trkpt lat="45.44331" lon="5.91361">
        <ele>1250.81</ele>
        <time>2026-08-30T07:08:27Z</time>
      </trkpt>
      <trkpt lat="45.4433" lon="5.9137">
        <ele>1252.25</ele>
        <time>2026-08-30T07:08:42Z</time>
      </trkpt>
      <trkpt lat="45.44324" lon="5.91378">
        <ele>1254.66</ele>
        <time>2026-08-30T07:08:57Z</time>
      </trkpt>
      <trkpt lat="45.44317" lon="5.91394">
        <ele>1257.54</ele>
        <time>2026-08-30T07:09:14Z</time>
      </trkpt>
      <trkpt lat="45.44315" lon="5.91409">
        <ele>1259.94</ele>
        <time>2026-08-30T07:09:31Z</time>
      </trkpt>
      <trkpt lat="45.44316" lon="5.91422">
        <ele>1263.31</ele>
        <time>2026-08-30T07:09:49Z</time>
      </trkpt>
      <trkpt lat="45.44317" lon="5.91422">
        <ele>1263.31</ele>
        <time>2026-08-30T07:09:50Z</time>
      </trkpt>
      <trkpt lat="45.44323" lon="5.91436">
        <ele>1266.19</ele>
        <time>2026-08-30T07:10:06Z</time>
      </trkpt>
      <trkpt lat="45.44324" lon="5.91446">
        <ele>1269.08</ele>
        <time>2026-08-30T07:10:24Z</time>
      </trkpt>
      <trkpt lat="45.4432" lon="5.91456">
        <ele>1271.48</ele>
        <time>2026-08-30T07:10:40Z</time>
      </trkpt>
      <trkpt lat="45.44326" lon="5.91465">
        <ele>1273.88</ele>
        <time>2026-08-30T07:10:55Z</time>
      </trkpt>
      <trkpt lat="45.44328" lon="5.91474">
        <ele>1276.29</ele>
        <time>2026-08-30T07:11:11Z</time>
      </trkpt>
      <trkpt lat="45.44323" lon="5.91477">
        <ele>1278.21</ele>
        <time>2026-08-30T07:11:25Z</time>
      </trkpt>
      <trkpt lat="45.44322" lon="5.91485">
        <ele>1281.57</ele>
        <time>2026-08-30T07:11:43Z</time>
      </trkpt>
      <trkpt lat="45.44317" lon="5.91491">
        <ele>1283.98</ele>
        <time>2026-08-30T07:11:57Z</time>
      </trkpt>
      <trkpt lat="45.44316" lon="5.91493">
        <ele>1285.9</ele>
        <time>2026-08-30T07:12:14Z</time>
      </trkpt>
      <trkpt lat="45.4431" lon="5.91497">
        <ele>1284.94</ele>
        <time>2026-08-30T07:12:30Z</time>
      </trkpt>
      <trkpt lat="45.44307" lon="5.91503">
        <ele>1284.94</ele>
        <time>2026-08-30T07:13:02Z</time>
      </trkpt>
      <trkpt lat="45.44306" lon="5.91503">
        <ele>1284.94</ele>
        <time>2026-08-30T07:13:26Z</time>
      </trkpt>
      <trkpt lat="45.44306" lon="5.91503">
        <ele>1284.94</ele>
        <time>2026-08-30T07:13:43Z</time>
      </trkpt>
      <trkpt lat="45.44308" lon="5.91503">
        <ele>1285.42</ele>
        <time>2026-08-30T07:14:08Z</time>
      </trkpt>
      <trkpt lat="45.44302" lon="5.91506">
        <ele>1287.82</ele>
        <time>2026-08-30T07:14:22Z</time>
      </trkpt>
      <trkpt lat="45.44294" lon="5.91514">
        <ele>1290.71</ele>
        <time>2026-08-30T07:14:37Z</time>
      </trkpt>
      <trkpt lat="45.44289" lon="5.9152">
        <ele>1293.11</ele>
        <time>2026-08-30T07:14:50Z</time>
      </trkpt>
      <trkpt lat="45.44284" lon="5.91523">
        <ele>1296.48</ele>
        <time>2026-08-30T07:15:04Z</time>
      </trkpt>
      <trkpt lat="45.44277" lon="5.91547">
        <ele>1299.36</ele>
        <time>2026-08-30T07:15:22Z</time>
      </trkpt>
      <trkpt lat="45.44272" lon="5.9155">
        <ele>1301.76</ele>
        <time>2026-08-30T07:15:37Z</time>
      </trkpt>
      <trkpt lat="45.44269" lon="5.9155">
        <ele>1304.65</ele>
        <time>2026-08-30T07:15:54Z</time>
      </trkpt>
      <trkpt lat="45.44262" lon="5.91568">
        <ele>1308.01</ele>
        <time>2026-08-30T07:16:13Z</time>
      </trkpt>
      <trkpt lat="45.44258" lon="5.91578">
        <ele>1310.9</ele>
        <time>2026-08-30T07:16:28Z</time>
      </trkpt>
      <trkpt lat="45.44248" lon="5.91594">
        <ele>1312.82</ele>
        <time>2026-08-30T07:16:47Z</time>
      </trkpt>
      <trkpt lat="45.44247" lon="5.91602">
        <ele>1315.22</ele>
        <time>2026-08-30T07:17:01Z</time>
      </trkpt>
      <trkpt lat="45.44245" lon="5.91609">
        <ele>1318.1</ele>
        <time>2026-08-30T07:17:17Z</time>
      </trkpt>
      <trkpt lat="45.44237" lon="5.91624">
        <ele>1320.51</ele>
        <time>2026-08-30T07:17:35Z</time>
      </trkpt>
      <trkpt lat="45.44235" lon="5.91629">
        <ele>1323.39</ele>
        <time>2026-08-30T07:17:54Z</time>
      </trkpt>
      <trkpt lat="45.44235" lon="5.91633">
        <ele>1326.28</ele>
        <time>2026-08-30T07:18:13Z</time>
      </trkpt>
      <trkpt lat="45.44236" lon="5.91638">
        <ele>1329.64</ele>
        <time>2026-08-30T07:18:28Z</time>
      </trkpt>
      <trkpt lat="45.44243" lon="5.91646">
        <ele>1331.08</ele>
        <time>2026-08-30T07:18:45Z</time>
      </trkpt>
      <trkpt lat="45.44262" lon="5.9165">
        <ele>1333.01</ele>
        <time>2026-08-30T07:19:01Z</time>
      </trkpt>
      <trkpt lat="45.44276" lon="5.91635">
        <ele>1335.41</ele>
        <time>2026-08-30T07:19:20Z</time>
      </trkpt>
      <trkpt lat="45.44283" lon="5.91637">
        <ele>1338.77</ele>
        <time>2026-08-30T07:19:37Z</time>
      </trkpt>
      <trkpt lat="45.44285" lon="5.9164">
        <ele>1341.18</ele>
        <time>2026-08-30T07:19:53Z</time>
      </trkpt>
      <trkpt lat="45.44287" lon="5.9164">
        <ele>1343.58</ele>
        <time>2026-08-30T07:20:06Z</time>
      </trkpt>
      <trkpt lat="45.44293" lon="5.91647">
        <ele>1345.98</ele>
        <time>2026-08-30T07:20:23Z</time>
      </trkpt>
      <trkpt lat="45.44301" lon="5.91648">
        <ele>1348.87</ele>
        <time>2026-08-30T07:20:39Z</time>
      </trkpt>
      <trkpt lat="45.44305" lon="5.91651">
        <ele>1352.23</ele>
        <time>2026-08-30T07:20:56Z</time>
      </trkpt>
      <trkpt lat="45.44301" lon="5.91655">
        <ele>1354.63</ele>
        <time>2026-08-30T07:21:12Z</time>
      </trkpt>
      <trkpt lat="45.443" lon="5.91667">
        <ele>1357.04</ele>
        <time>2026-08-30T07:21:30Z</time>
      </trkpt>
      <trkpt lat="45.44298" lon="5.91684">
        <ele>1358.96</ele>
        <time>2026-08-30T07:21:48Z</time>
      </trkpt>
      <trkpt lat="45.44293" lon="5.91693">
        <ele>1361.84</ele>
        <time>2026-08-30T07:22:04Z</time>
      </trkpt>
      <trkpt lat="45.44296" lon="5.91696">
        <ele>1363.77</ele>
        <time>2026-08-30T07:22:19Z</time>
      </trkpt>
      <trkpt lat="45.44304" lon="5.91702">
        <ele>1367.13</ele>
        <time>2026-08-30T07:22:37Z</time>
      </trkpt>
      <trkpt lat="45.44315" lon="5.91708">
        <ele>1370.02</ele>
        <time>2026-08-30T07:22:56Z</time>
      </trkpt>
      <trkpt lat="45.44321" lon="5.91709">
        <ele>1373.38</ele>
        <time>2026-08-30T07:23:13Z</time>
      </trkpt>
      <trkpt lat="45.44326" lon="5.91704">
        <ele>1376.26</ele>
        <time>2026-08-30T07:23:27Z</time>
      </trkpt>
      <trkpt lat="45.44326" lon="5.91707">
        <ele>1379.15</ele>
        <time>2026-08-30T07:23:43Z</time>
      </trkpt>
      <trkpt lat="45.44324" lon="5.91709">
        <ele>1382.03</ele>
        <time>2026-08-30T07:24:01Z</time>
      </trkpt>
      <trkpt lat="45.44322" lon="5.91711">
        <ele>1384.92</ele>
        <time>2026-08-30T07:24:20Z</time>
      </trkpt>
      <trkpt lat="45.44323" lon="5.9172">
        <ele>1387.8</ele>
        <time>2026-08-30T07:24:39Z</time>
      </trkpt>
      <trkpt lat="45.44324" lon="5.91726">
        <ele>1390.2</ele>
        <time>2026-08-30T07:24:55Z</time>
      </trkpt>
      <trkpt lat="45.44327" lon="5.91744">
        <ele>1393.09</ele>
        <time>2026-08-30T07:25:13Z</time>
      </trkpt>
      <trkpt lat="45.4433" lon="5.91754">
        <ele>1395.49</ele>
        <time>2026-08-30T07:25:31Z</time>
      </trkpt>
      <trkpt lat="45.44333" lon="5.91761">
        <ele>1397.41</ele>
        <time>2026-08-30T07:25:44Z</time>
      </trkpt>
      <trkpt lat="45.44335" lon="5.91766">
        <ele>1400.3</ele>
        <time>2026-08-30T07:26:05Z</time>
      </trkpt>
      <trkpt lat="45.44335" lon="5.91768">
        <ele>1402.7</ele>
        <time>2026-08-30T07:26:23Z</time>
      </trkpt>
      <trkpt lat="45.44337" lon="5.91768">
        <ele>1405.58</ele>
        <time>2026-08-30T07:26:42Z</time>
      </trkpt>
      <trkpt lat="45.44336" lon="5.91768">
        <ele>1407.51</ele>
        <time>2026-08-30T07:26:59Z</time>
      </trkpt>
      <trkpt lat="45.44342" lon="5.91775">
        <ele>1409.43</ele>
        <time>2026-08-30T07:27:17Z</time>
      </trkpt>
      <trkpt lat="45.44343" lon="5.9178">
        <ele>1412.31</ele>
        <time>2026-08-30T07:27:33Z</time>
      </trkpt>
      <trkpt lat="45.44341" lon="5.91781">
        <ele>1415.68</ele>
        <time>2026-08-30T07:27:53Z</time>
      </trkpt>
      <trkpt lat="45.44337" lon="5.91782">
        <ele>1418.56</ele>
        <time>2026-08-30T07:28:10Z</time>
      </trkpt>
      <trkpt lat="45.44335" lon="5.91785">
        <ele>1421.45</ele>
        <time>2026-08-30T07:28:28Z</time>
      </trkpt>
      <trkpt lat="45.44335" lon="5.9179">
        <ele>1424.33</ele>
        <time>2026-08-30T07:28:47Z</time>
      </trkpt>
      <trkpt lat="45.44336" lon="5.91797">
        <ele>1427.21</ele>
        <time>2026-08-30T07:29:06Z</time>
      </trkpt>
      <trkpt lat="45.44337" lon="5.91803">
        <ele>1430.58</ele>
        <time>2026-08-30T07:29:25Z</time>
      </trkpt>
      <trkpt lat="45.44338" lon="5.91809">
        <ele>1433.46</ele>
        <time>2026-08-30T07:29:41Z</time>
      </trkpt>
      <trkpt lat="45.44334" lon="5.91819">
        <ele>1435.87</ele>
        <time>2026-08-30T07:29:58Z</time>
      </trkpt>
      <trkpt lat="45.44335" lon="5.91844">
        <ele>1438.27</ele>
        <time>2026-08-30T07:30:17Z</time>
      </trkpt>
      <trkpt lat="45.44342" lon="5.91855">
        <ele>1440.67</ele>
        <time>2026-08-30T07:30:32Z</time>
      </trkpt>
      <trkpt lat="45.44335" lon="5.91859">
        <ele>1442.11</ele>
        <time>2026-08-30T07:30:45Z</time>
      </trkpt>
      <trkpt lat="45.44328" lon="5.91863">
        <ele>1442.6</ele>
        <time>2026-08-30T07:31:06Z</time>
      </trkpt>
      <trkpt lat="45.44321" lon="5.91864">
        <ele>1444.52</ele>
        <time>2026-08-30T07:31:26Z</time>
      </trkpt>
      <trkpt lat="45.44291" lon="5.91861">
        <ele>1446.44</ele>
        <time>2026-08-30T07:31:46Z</time>
      </trkpt>
      <trkpt lat="45.44278" lon="5.91853">
        <ele>1448.36</ele>
        <time>2026-08-30T07:32:00Z</time>
      </trkpt>
      <trkpt lat="45.4427" lon="5.91847">
        <ele>1450.29</ele>
        <time>2026-08-30T07:32:16Z</time>
      </trkpt>
      <trkpt lat="45.4427" lon="5.91838">
        <ele>1453.65</ele>
        <time>2026-08-30T07:32:30Z</time>
      </trkpt>
      <trkpt lat="45.4427" lon="5.91821">
        <ele>1455.57</ele>
        <time>2026-08-30T07:32:46Z</time>
      </trkpt>
      <trkpt lat="45.44267" lon="5.9181">
        <ele>1458.46</ele>
        <time>2026-08-30T07:33:04Z</time>
      </trkpt>
      <trkpt lat="45.44262" lon="5.918">
        <ele>1461.34</ele>
        <time>2026-08-30T07:33:21Z</time>
      </trkpt>
      <trkpt lat="45.44253" lon="5.91793">
        <ele>1464.23</ele>
        <time>2026-08-30T07:33:38Z</time>
      </trkpt>
      <trkpt lat="45.44246" lon="5.91786">
        <ele>1466.63</ele>
        <time>2026-08-30T07:33:54Z</time>
      </trkpt>
      <trkpt lat="45.44241" lon="5.91778">
        <ele>1469.51</ele>
        <time>2026-08-30T07:34:11Z</time>
      </trkpt>
      <trkpt lat="45.4424" lon="5.91772">
        <ele>1471.44</ele>
        <time>2026-08-30T07:34:25Z</time>
      </trkpt>
      <trkpt lat="45.44239" lon="5.9177">
        <ele>1471.92</ele>
        <time>2026-08-30T07:34:27Z</time>
      </trkpt>
      <trkpt lat="45.44233" lon="5.91766">
        <ele>1474.32</ele>
        <time>2026-08-30T07:34:40Z</time>
      </trkpt>
      <trkpt lat="45.44228" lon="5.91777">
        <ele>1476.72</ele>
        <time>2026-08-30T07:34:57Z</time>
      </trkpt>
      <trkpt lat="45.44227" lon="5.91786">
        <ele>1479.61</ele>
        <time>2026-08-30T07:35:14Z</time>
      </trkpt>
      <trkpt lat="45.44227" lon="5.91801">
        <ele>1482.49</ele>
        <time>2026-08-30T07:35:33Z</time>
      </trkpt>
      <trkpt lat="45.44228" lon="5.91809">
        <ele>1485.37</ele>
        <time>2026-08-30T07:35:47Z</time>
      </trkpt>
      <trkpt lat="45.44233" lon="5.91801">
        <ele>1487.78</ele>
        <time>2026-08-30T07:36:01Z</time>
      </trkpt>
      <trkpt lat="45.44232" lon="5.91799">
        <ele>1489.7</ele>
        <time>2026-08-30T07:36:16Z</time>
      </trkpt>
      <trkpt lat="45.44223" lon="5.91812">
        <ele>1493.06</ele>
        <time>2026-08-30T07:36:30Z</time>
      </trkpt>
      <trkpt lat="45.44226" lon="5.91828">
        <ele>1493.06</ele>
        <time>2026-08-30T07:36:45Z</time>
      </trkpt>
      <trkpt lat="45.4423" lon="5.91834">
        <ele>1495.47</ele>
        <time>2026-08-30T07:37:02Z</time>
      </trkpt>
      <trkpt lat="45.44231" lon="5.91839">
        <ele>1497.39</ele>
        <time>2026-08-30T07:37:14Z</time>
      </trkpt>
      <trkpt lat="45.44227" lon="5.91836">
        <ele>1499.79</ele>
        <time>2026-08-30T07:37:28Z</time>
      </trkpt>
      <trkpt lat="45.44219" lon="5.91831">
        <ele>1502.2</ele>
        <time>2026-08-30T07:37:45Z</time>
      </trkpt>
      <trkpt lat="45.4421" lon="5.91836">
        <ele>1504.6</ele>
        <time>2026-08-30T07:37:59Z</time>
      </trkpt>
      <trkpt lat="45.44204" lon="5.91841">
        <ele>1507</ele>
        <time>2026-08-30T07:38:14Z</time>
      </trkpt>
      <trkpt lat="45.442" lon="5.91847">
        <ele>1509.89</ele>
        <time>2026-08-30T07:38:29Z</time>
      </trkpt>
      <trkpt lat="45.44199" lon="5.91856">
        <ele>1512.29</ele>
        <time>2026-08-30T07:38:42Z</time>
      </trkpt>
      <trkpt lat="45.44199" lon="5.91862">
        <ele>1513.73</ele>
        <time>2026-08-30T07:38:54Z</time>
      </trkpt>
      <trkpt lat="45.44196" lon="5.91867">
        <ele>1515.66</ele>
        <time>2026-08-30T07:39:07Z</time>
      </trkpt>
      <trkpt lat="45.4419" lon="5.91864">
        <ele>1518.06</ele>
        <time>2026-08-30T07:39:21Z</time>
      </trkpt>
      <trkpt lat="45.44185" lon="5.91873">
        <ele>1519.5</ele>
        <time>2026-08-30T07:39:32Z</time>
      </trkpt>
      <trkpt lat="45.44179" lon="5.91883">
        <ele>1520.46</ele>
        <time>2026-08-30T07:39:46Z</time>
      </trkpt>
      <trkpt lat="45.44178" lon="5.91887">
        <ele>1520.46</ele>
        <time>2026-08-30T07:40:01Z</time>
      </trkpt>
      <trkpt lat="45.44171" lon="5.91897">
        <ele>1519.5</ele>
        <time>2026-08-30T07:40:14Z</time>
      </trkpt>
      <trkpt lat="45.44166" lon="5.91916">
        <ele>1517.58</ele>
        <time>2026-08-30T07:40:29Z</time>
      </trkpt>
      <trkpt lat="45.44165" lon="5.91919">
        <ele>1518.06</ele>
        <time>2026-08-30T07:40:31Z</time>
      </trkpt>
      <trkpt lat="45.44156" lon="5.91939">
        <ele>1515.18</ele>
        <time>2026-08-30T07:40:47Z</time>
      </trkpt>
      <trkpt lat="45.44152" lon="5.91956">
        <ele>1513.73</ele>
        <time>2026-08-30T07:41:00Z</time>
      </trkpt>
      <trkpt lat="45.4415" lon="5.91963">
        <ele>1513.25</ele>
        <time>2026-08-30T07:41:05Z</time>
      </trkpt>
      <trkpt lat="45.44147" lon="5.91981">
        <ele>1512.77</ele>
        <time>2026-08-30T07:41:16Z</time>
      </trkpt>
      <trkpt lat="45.44144" lon="5.91988">
        <ele>1512.77</ele>
        <time>2026-08-30T07:41:22Z</time>
      </trkpt>
      <trkpt lat="45.44141" lon="5.91991">
        <ele>1512.77</ele>
        <time>2026-08-30T07:41:26Z</time>
      </trkpt>
      <trkpt lat="45.44132" lon="5.92011">
        <ele>1512.29</ele>
        <time>2026-08-30T07:41:42Z</time>
      </trkpt>
      <trkpt lat="45.44121" lon="5.92031">
        <ele>1510.85</ele>
        <time>2026-08-30T07:41:58Z</time>
      </trkpt>
      <trkpt lat="45.44108" lon="5.92052">
        <ele>1510.37</ele>
        <time>2026-08-30T07:42:16Z</time>
      </trkpt>
      <trkpt lat="45.44096" lon="5.92072">
        <ele>1509.89</ele>
        <time>2026-08-30T07:42:33Z</time>
      </trkpt>
      <trkpt lat="45.44084" lon="5.92093">
        <ele>1508.45</ele>
        <time>2026-08-30T07:42:50Z</time>
      </trkpt>
      <trkpt lat="45.44079" lon="5.92102">
        <ele>1507.97</ele>
        <time>2026-08-30T07:42:58Z</time>
      </trkpt>
      <trkpt lat="45.44073" lon="5.92123">
        <ele>1506.04</ele>
        <time>2026-08-30T07:43:13Z</time>
      </trkpt>
      <trkpt lat="45.44071" lon="5.92127">
        <ele>1505.56</ele>
        <time>2026-08-30T07:43:16Z</time>
      </trkpt>
      <trkpt lat="45.44069" lon="5.92134">
        <ele>1505.08</ele>
        <time>2026-08-30T07:43:21Z</time>
      </trkpt>
      <trkpt lat="45.44068" lon="5.92136">
        <ele>1504.6</ele>
        <time>2026-08-30T07:43:23Z</time>
      </trkpt>
      <trkpt lat="45.44062" lon="5.92152">
        <ele>1502.68</ele>
        <time>2026-08-30T07:43:36Z</time>
      </trkpt>
      <trkpt lat="45.44061" lon="5.92155">
        <ele>1502.2</ele>
        <time>2026-08-30T07:43:39Z</time>
      </trkpt>
      <trkpt lat="45.44061" lon="5.92173">
        <ele>1499.31</ele>
        <time>2026-08-30T07:43:54Z</time>
      </trkpt>
      <trkpt lat="45.44059" lon="5.92182">
        <ele>1497.39</ele>
        <time>2026-08-30T07:44:07Z</time>
      </trkpt>
      <trkpt lat="45.44059" lon="5.92186">
        <ele>1494.99</ele>
        <time>2026-08-30T07:44:21Z</time>
      </trkpt>
      <trkpt lat="45.44055" lon="5.92192">
        <ele>1493.55</ele>
        <time>2026-08-30T07:44:32Z</time>
      </trkpt>
      <trkpt lat="45.44048" lon="5.92195">
        <ele>1491.14</ele>
        <time>2026-08-30T07:44:46Z</time>
      </trkpt>
      <trkpt lat="45.44043" lon="5.92198">
        <ele>1489.7</ele>
        <time>2026-08-30T07:45:01Z</time>
      </trkpt>
      <trkpt lat="45.44039" lon="5.92197">
        <ele>1489.22</ele>
        <time>2026-08-30T07:45:07Z</time>
      </trkpt>
      <trkpt lat="45.44029" lon="5.92191">
        <ele>1487.78</ele>
        <time>2026-08-30T07:45:22Z</time>
      </trkpt>
      <trkpt lat="45.44026" lon="5.92186">
        <ele>1487.3</ele>
        <time>2026-08-30T07:45:33Z</time>
      </trkpt>
      <trkpt lat="45.44024" lon="5.92183">
        <ele>1487.3</ele>
        <time>2026-08-30T07:45:37Z</time>
      </trkpt>
      <trkpt lat="45.44019" lon="5.92179">
        <ele>1486.34</ele>
        <time>2026-08-30T07:45:46Z</time>
      </trkpt>
      <trkpt lat="45.44014" lon="5.92173">
        <ele>1485.85</ele>
        <time>2026-08-30T07:45:54Z</time>
      </trkpt>
      <trkpt lat="45.44008" lon="5.9216">
        <ele>1484.89</ele>
        <time>2026-08-30T07:46:09Z</time>
      </trkpt>
      <trkpt lat="45.44002" lon="5.92154">
        <ele>1484.89</ele>
        <time>2026-08-30T07:46:17Z</time>
      </trkpt>
      <trkpt lat="45.43998" lon="5.92148">
        <ele>1484.41</ele>
        <time>2026-08-30T07:46:23Z</time>
      </trkpt>
      <trkpt lat="45.43989" lon="5.92136">
        <ele>1483.93</ele>
        <time>2026-08-30T07:46:35Z</time>
      </trkpt>
      <trkpt lat="45.43978" lon="5.9212">
        <ele>1483.45</ele>
        <time>2026-08-30T07:46:51Z</time>
      </trkpt>
      <trkpt lat="45.43974" lon="5.92116">
        <ele>1483.45</ele>
        <time>2026-08-30T07:47:07Z</time>
      </trkpt>
      <trkpt lat="45.43968" lon="5.92114">
        <ele>1482.97</ele>
        <time>2026-08-30T07:47:19Z</time>
      </trkpt>
      <trkpt lat="45.43966" lon="5.92115">
        <ele>1482.97</ele>
        <time>2026-08-30T07:47:21Z</time>
      </trkpt>
      <trkpt lat="45.43964" lon="5.92116">
        <ele>1482.97</ele>
        <time>2026-08-30T07:47:23Z</time>
      </trkpt>
      <trkpt lat="45.43963" lon="5.9212">
        <ele>1482.97</ele>
        <time>2026-08-30T07:47:30Z</time>
      </trkpt>
      <trkpt lat="45.4397" lon="5.9212">
        <ele>1483.45</ele>
        <time>2026-08-30T07:47:45Z</time>
      </trkpt>
      <trkpt lat="45.4397" lon="5.9212">
        <ele>1483.45</ele>
        <time>2026-08-30T07:48:12Z</time>
      </trkpt>
      <trkpt lat="45.4397" lon="5.9212">
        <ele>1483.45</ele>
        <time>2026-08-30T07:48:35Z</time>
      </trkpt>
      <trkpt lat="45.4397" lon="5.9212">
        <ele>1483.45</ele>
        <time>2026-08-30T07:49:02Z</time>
      </trkpt>
      <trkpt lat="45.43969" lon="5.9212">
        <ele>1483.45</ele>
        <time>2026-08-30T07:49:25Z</time>
      </trkpt>
      <trkpt lat="45.43969" lon="5.92119">
        <ele>1483.45</ele>
        <time>2026-08-30T07:49:52Z</time>
      </trkpt>
      <trkpt lat="45.4397" lon="5.92118">
        <ele>1483.93</ele>
        <time>2026-08-30T07:50:15Z</time>
      </trkpt>
      <trkpt lat="45.4397" lon="5.92117">
        <ele>1484.41</ele>
        <time>2026-08-30T07:50:32Z</time>
      </trkpt>
      <trkpt lat="45.43967" lon="5.92117">
        <ele>1483.93</ele>
        <time>2026-08-30T07:50:47Z</time>
      </trkpt>
      <trkpt lat="45.43964" lon="5.92118">
        <ele>1482.97</ele>
        <time>2026-08-30T07:51:01Z</time>
      </trkpt>
      <trkpt lat="45.43964" lon="5.92119">
        <ele>1482.97</ele>
        <time>2026-08-30T07:51:30Z</time>
      </trkpt>
      <trkpt lat="45.43963" lon="5.9212">
        <ele>1482.97</ele>
        <time>2026-08-30T07:52:09Z</time>
      </trkpt>
      <trkpt lat="45.43962" lon="5.92119">
        <ele>1484.41</ele>
        <time>2026-08-30T07:52:28Z</time>
      </trkpt>
      <trkpt lat="45.43961" lon="5.9212">
        <ele>1483.93</ele>
        <time>2026-08-30T07:52:44Z</time>
      </trkpt>
      <trkpt lat="45.43955" lon="5.92124">
        <ele>1483.45</ele>
        <time>2026-08-30T07:53:03Z</time>
      </trkpt>
      <trkpt lat="45.43954" lon="5.92124">
        <ele>1483.45</ele>
        <time>2026-08-30T07:53:04Z</time>
      </trkpt>
      <trkpt lat="45.43946" lon="5.92125">
        <ele>1483.45</ele>
        <time>2026-08-30T07:53:16Z</time>
      </trkpt>
      <trkpt lat="45.43944" lon="5.92125">
        <ele>1482.97</ele>
        <time>2026-08-30T07:53:20Z</time>
      </trkpt>
      <trkpt lat="45.43941" lon="5.92126">
        <ele>1483.45</ele>
        <time>2026-08-30T07:53:23Z</time>
      </trkpt>
      <trkpt lat="45.4393" lon="5.92142">
        <ele>1482.97</ele>
        <time>2026-08-30T07:53:38Z</time>
      </trkpt>
      <trkpt lat="45.43928" lon="5.92147">
        <ele>1482.97</ele>
        <time>2026-08-30T07:53:44Z</time>
      </trkpt>
      <trkpt lat="45.43925" lon="5.92148">
        <ele>1482.97</ele>
        <time>2026-08-30T07:53:48Z</time>
      </trkpt>
      <trkpt lat="45.4392" lon="5.92166">
        <ele>1482.49</ele>
        <time>2026-08-30T07:54:00Z</time>
      </trkpt>
      <trkpt lat="45.43919" lon="5.92191">
        <ele>1482.49</ele>
        <time>2026-08-30T07:54:13Z</time>
      </trkpt>
      <trkpt lat="45.43925" lon="5.92212">
        <ele>1482.97</ele>
        <time>2026-08-30T07:54:27Z</time>
      </trkpt>
      <trkpt lat="45.43928" lon="5.92222">
        <ele>1484.41</ele>
        <time>2026-08-30T07:54:39Z</time>
      </trkpt>
      <trkpt lat="45.43928" lon="5.92226">
        <ele>1484.89</ele>
        <time>2026-08-30T07:54:52Z</time>
      </trkpt>
      <trkpt lat="45.43925" lon="5.92226">
        <ele>1486.34</ele>
        <time>2026-08-30T07:55:05Z</time>
      </trkpt>
      <trkpt lat="45.43917" lon="5.92225">
        <ele>1488.74</ele>
        <time>2026-08-30T07:55:18Z</time>
      </trkpt>
      <trkpt lat="45.43913" lon="5.92224">
        <ele>1491.14</ele>
        <time>2026-08-30T07:55:31Z</time>
      </trkpt>
      <trkpt lat="45.43909" lon="5.92223">
        <ele>1493.06</ele>
        <time>2026-08-30T07:55:42Z</time>
      </trkpt>
      <trkpt lat="45.43904" lon="5.92219">
        <ele>1494.99</ele>
        <time>2026-08-30T07:55:56Z</time>
      </trkpt>
      <trkpt lat="45.43897" lon="5.9222">
        <ele>1497.39</ele>
        <time>2026-08-30T07:56:10Z</time>
      </trkpt>
      <trkpt lat="45.43891" lon="5.92213">
        <ele>1498.83</ele>
        <time>2026-08-30T07:56:23Z</time>
      </trkpt>
      <trkpt lat="45.4389" lon="5.92206">
        <ele>1500.27</ele>
        <time>2026-08-30T07:56:36Z</time>
      </trkpt>
      <trkpt lat="45.43888" lon="5.92198">
        <ele>1502.2</ele>
        <time>2026-08-30T07:56:50Z</time>
      </trkpt>
      <trkpt lat="45.43886" lon="5.92188">
        <ele>1503.64</ele>
        <time>2026-08-30T07:57:03Z</time>
      </trkpt>
      <trkpt lat="45.43873" lon="5.92184">
        <ele>1505.08</ele>
        <time>2026-08-30T07:57:15Z</time>
      </trkpt>
      <trkpt lat="45.43865" lon="5.92182">
        <ele>1506.52</ele>
        <time>2026-08-30T07:57:30Z</time>
      </trkpt>
      <trkpt lat="45.43859" lon="5.92176">
        <ele>1508.45</ele>
        <time>2026-08-30T07:57:45Z</time>
      </trkpt>
      <trkpt lat="45.43856" lon="5.92174">
        <ele>1509.89</ele>
        <time>2026-08-30T07:58:02Z</time>
      </trkpt>
      <trkpt lat="45.43854" lon="5.92173">
        <ele>1512.29</ele>
        <time>2026-08-30T07:58:20Z</time>
      </trkpt>
      <trkpt lat="45.43847" lon="5.92161">
        <ele>1514.21</ele>
        <time>2026-08-30T07:58:37Z</time>
      </trkpt>
      <trkpt lat="45.43837" lon="5.92153">
        <ele>1516.14</ele>
        <time>2026-08-30T07:58:55Z</time>
      </trkpt>
      <trkpt lat="45.43825" lon="5.92147">
        <ele>1518.06</ele>
        <time>2026-08-30T07:59:12Z</time>
      </trkpt>
      <trkpt lat="45.43808" lon="5.92145">
        <ele>1519.02</ele>
        <time>2026-08-30T07:59:27Z</time>
      </trkpt>
      <trkpt lat="45.43792" lon="5.9214">
        <ele>1519.5</ele>
        <time>2026-08-30T07:59:42Z</time>
      </trkpt>
      <trkpt lat="45.43778" lon="5.92149">
        <ele>1519.5</ele>
        <time>2026-08-30T07:59:56Z</time>
      </trkpt>
      <trkpt lat="45.43765" lon="5.92165">
        <ele>1519.5</ele>
        <time>2026-08-30T08:00:13Z</time>
      </trkpt>
      <trkpt lat="45.43759" lon="5.92186">
        <ele>1521.42</ele>
        <time>2026-08-30T08:00:29Z</time>
      </trkpt>
      <trkpt lat="45.43757" lon="5.92202">
        <ele>1521.42</ele>
        <time>2026-08-30T08:00:42Z</time>
      </trkpt>
      <trkpt lat="45.43755" lon="5.92213">
        <ele>1520.46</ele>
        <time>2026-08-30T08:00:49Z</time>
      </trkpt>
      <trkpt lat="45.43748" lon="5.92224">
        <ele>1521.42</ele>
        <time>2026-08-30T08:01:02Z</time>
      </trkpt>
      <trkpt lat="45.43738" lon="5.92227">
        <ele>1522.39</ele>
        <time>2026-08-30T08:01:16Z</time>
      </trkpt>
      <trkpt lat="45.43736" lon="5.92228">
        <ele>1522.39</ele>
        <time>2026-08-30T08:01:20Z</time>
      </trkpt>
      <trkpt lat="45.43724" lon="5.92238">
        <ele>1522.39</ele>
        <time>2026-08-30T08:01:33Z</time>
      </trkpt>
      <trkpt lat="45.4372" lon="5.92238">
        <ele>1522.87</ele>
        <time>2026-08-30T08:01:45Z</time>
      </trkpt>
      <trkpt lat="45.43714" lon="5.92238">
        <ele>1523.35</ele>
        <time>2026-08-30T08:01:56Z</time>
      </trkpt>
      <trkpt lat="45.43701" lon="5.92238">
        <ele>1524.31</ele>
        <time>2026-08-30T08:02:10Z</time>
      </trkpt>
      <trkpt lat="45.43697" lon="5.92234">
        <ele>1525.75</ele>
        <time>2026-08-30T08:02:23Z</time>
      </trkpt>
      <trkpt lat="45.43689" lon="5.92228">
        <ele>1527.67</ele>
        <time>2026-08-30T08:02:40Z</time>
      </trkpt>
      <trkpt lat="45.43686" lon="5.9222">
        <ele>1530.08</ele>
        <time>2026-08-30T08:02:54Z</time>
      </trkpt>
      <trkpt lat="45.43679" lon="5.92217">
        <ele>1531.04</ele>
        <time>2026-08-30T08:03:03Z</time>
      </trkpt>
      <trkpt lat="45.43669" lon="5.92216">
        <ele>1531.04</ele>
        <time>2026-08-30T08:03:17Z</time>
      </trkpt>
      <trkpt lat="45.43658" lon="5.92209">
        <ele>1529.59</ele>
        <time>2026-08-30T08:03:30Z</time>
      </trkpt>
      <trkpt lat="45.4365" lon="5.92195">
        <ele>1530.56</ele>
        <time>2026-08-30T08:03:46Z</time>
      </trkpt>
      <trkpt lat="45.43644" lon="5.92184">
        <ele>1532.48</ele>
        <time>2026-08-30T08:04:01Z</time>
      </trkpt>
      <trkpt lat="45.43633" lon="5.92176">
        <ele>1533.44</ele>
        <time>2026-08-30T08:04:19Z</time>
      </trkpt>
      <trkpt lat="45.43615" lon="5.92178">
        <ele>1532.48</ele>
        <time>2026-08-30T08:04:34Z</time>
      </trkpt>
      <trkpt lat="45.43598" lon="5.92182">
        <ele>1532</ele>
        <time>2026-08-30T08:04:49Z</time>
      </trkpt>
      <trkpt lat="45.43581" lon="5.92196">
        <ele>1532.96</ele>
        <time>2026-08-30T08:05:06Z</time>
      </trkpt>
      <trkpt lat="45.4357" lon="5.92217">
        <ele>1532.48</ele>
        <time>2026-08-30T08:05:24Z</time>
      </trkpt>
      <trkpt lat="45.43566" lon="5.92228">
        <ele>1532.48</ele>
        <time>2026-08-30T08:05:38Z</time>
      </trkpt>
      <trkpt lat="45.43558" lon="5.92242">
        <ele>1532</ele>
        <time>2026-08-30T08:05:50Z</time>
      </trkpt>
      <trkpt lat="45.43546" lon="5.9225">
        <ele>1530.56</ele>
        <time>2026-08-30T08:06:07Z</time>
      </trkpt>
      <trkpt lat="45.43546" lon="5.92248">
        <ele>1530.08</ele>
        <time>2026-08-30T08:06:14Z</time>
      </trkpt>
      <trkpt lat="45.43544" lon="5.92242">
        <ele>1530.08</ele>
        <time>2026-08-30T08:06:18Z</time>
      </trkpt>
      <trkpt lat="45.43542" lon="5.92226">
        <ele>1532.48</ele>
        <time>2026-08-30T08:06:34Z</time>
      </trkpt>
      <trkpt lat="45.43541" lon="5.92216">
        <ele>1534.4</ele>
        <time>2026-08-30T08:06:49Z</time>
      </trkpt>
      <trkpt lat="45.43533" lon="5.92191">
        <ele>1535.84</ele>
        <time>2026-08-30T08:07:06Z</time>
      </trkpt>
      <trkpt lat="45.43523" lon="5.92172">
        <ele>1536.8</ele>
        <time>2026-08-30T08:07:22Z</time>
      </trkpt>
      <trkpt lat="45.4352" lon="5.92154">
        <ele>1537.29</ele>
        <time>2026-08-30T08:07:37Z</time>
      </trkpt>
      <trkpt lat="45.43518" lon="5.92136">
        <ele>1536.8</ele>
        <time>2026-08-30T08:07:51Z</time>
      </trkpt>
      <trkpt lat="45.43505" lon="5.92117">
        <ele>1538.73</ele>
        <time>2026-08-30T08:08:09Z</time>
      </trkpt>
      <trkpt lat="45.43502" lon="5.921">
        <ele>1540.65</ele>
        <time>2026-08-30T08:08:28Z</time>
      </trkpt>
      <trkpt lat="45.43495" lon="5.92082">
        <ele>1541.13</ele>
        <time>2026-08-30T08:08:43Z</time>
      </trkpt>
      <trkpt lat="45.43494" lon="5.92073">
        <ele>1542.09</ele>
        <time>2026-08-30T08:08:55Z</time>
      </trkpt>
      <trkpt lat="45.43493" lon="5.9207">
        <ele>1542.57</ele>
        <time>2026-08-30T08:08:57Z</time>
      </trkpt>
      <trkpt lat="45.43488" lon="5.92058">
        <ele>1543.05</ele>
        <time>2026-08-30T08:09:10Z</time>
      </trkpt>
      <trkpt lat="45.43482" lon="5.92042">
        <ele>1544.98</ele>
        <time>2026-08-30T08:09:27Z</time>
      </trkpt>
      <trkpt lat="45.43476" lon="5.9203">
        <ele>1545.94</ele>
        <time>2026-08-30T08:09:41Z</time>
      </trkpt>
      <trkpt lat="45.43464" lon="5.92017">
        <ele>1546.42</ele>
        <time>2026-08-30T08:09:58Z</time>
      </trkpt>
      <trkpt lat="45.43456" lon="5.92004">
        <ele>1547.38</ele>
        <time>2026-08-30T08:10:12Z</time>
      </trkpt>
      <trkpt lat="45.43453" lon="5.91993">
        <ele>1548.34</ele>
        <time>2026-08-30T08:10:26Z</time>
      </trkpt>
      <trkpt lat="45.43445" lon="5.9197">
        <ele>1547.38</ele>
        <time>2026-08-30T08:10:43Z</time>
      </trkpt>
      <trkpt lat="45.43441" lon="5.91956">
        <ele>1549.3</ele>
        <time>2026-08-30T08:10:59Z</time>
      </trkpt>
      <trkpt lat="45.4343" lon="5.91942">
        <ele>1551.71</ele>
        <time>2026-08-30T08:11:18Z</time>
      </trkpt>
      <trkpt lat="45.43421" lon="5.91931">
        <ele>1554.11</ele>
        <time>2026-08-30T08:11:35Z</time>
      </trkpt>
      <trkpt lat="45.43418" lon="5.91922">
        <ele>1556.03</ele>
        <time>2026-08-30T08:11:50Z</time>
      </trkpt>
      <trkpt lat="45.43413" lon="5.91911">
        <ele>1557.95</ele>
        <time>2026-08-30T08:12:07Z</time>
      </trkpt>
      <trkpt lat="45.43407" lon="5.91898">
        <ele>1560.36</ele>
        <time>2026-08-30T08:12:24Z</time>
      </trkpt>
      <trkpt lat="45.43405" lon="5.91892">
        <ele>1559.88</ele>
        <time>2026-08-30T08:12:28Z</time>
      </trkpt>
      <trkpt lat="45.43402" lon="5.91877">
        <ele>1559.4</ele>
        <time>2026-08-30T08:12:43Z</time>
      </trkpt>
      <trkpt lat="45.43401" lon="5.91873">
        <ele>1561.32</ele>
        <time>2026-08-30T08:12:57Z</time>
      </trkpt>
      <trkpt lat="45.434" lon="5.91864">
        <ele>1564.2</ele>
        <time>2026-08-30T08:13:15Z</time>
      </trkpt>
      <trkpt lat="45.43397" lon="5.9185">
        <ele>1567.09</ele>
        <time>2026-08-30T08:13:31Z</time>
      </trkpt>
      <trkpt lat="45.43392" lon="5.91837">
        <ele>1569.97</ele>
        <time>2026-08-30T08:13:49Z</time>
      </trkpt>
      <trkpt lat="45.43385" lon="5.9183">
        <ele>1573.33</ele>
        <time>2026-08-30T08:14:06Z</time>
      </trkpt>
      <trkpt lat="45.43384" lon="5.91824">
        <ele>1575.74</ele>
        <time>2026-08-30T08:14:20Z</time>
      </trkpt>
      <trkpt lat="45.43383" lon="5.91823">
        <ele>1577.66</ele>
        <time>2026-08-30T08:14:34Z</time>
      </trkpt>
      <trkpt lat="45.43384" lon="5.91822">
        <ele>1579.1</ele>
        <time>2026-08-30T08:14:46Z</time>
      </trkpt>
      <trkpt lat="45.43385" lon="5.9182">
        <ele>1581.99</ele>
        <time>2026-08-30T08:15:00Z</time>
      </trkpt>
      <trkpt lat="45.43385" lon="5.91816">
        <ele>1583.91</ele>
        <time>2026-08-30T08:15:15Z</time>
      </trkpt>
      <trkpt lat="45.43381" lon="5.91807">
        <ele>1586.31</ele>
        <time>2026-08-30T08:15:31Z</time>
      </trkpt>
      <trkpt lat="45.43373" lon="5.9179">
        <ele>1585.35</ele>
        <time>2026-08-30T08:15:47Z</time>
      </trkpt>
      <trkpt lat="45.43367" lon="5.91778">
        <ele>1585.83</ele>
        <time>2026-08-30T08:16:02Z</time>
      </trkpt>
      <trkpt lat="45.43361" lon="5.91768">
        <ele>1587.27</ele>
        <time>2026-08-30T08:16:19Z</time>
      </trkpt>
      <trkpt lat="45.43353" lon="5.91757">
        <ele>1589.2</ele>
        <time>2026-08-30T08:16:35Z</time>
      </trkpt>
      <trkpt lat="45.43347" lon="5.91745">
        <ele>1592.56</ele>
        <time>2026-08-30T08:16:52Z</time>
      </trkpt>
      <trkpt lat="45.43347" lon="5.91739">
        <ele>1594</ele>
        <time>2026-08-30T08:17:01Z</time>
      </trkpt>
      <trkpt lat="45.43347" lon="5.91727">
        <ele>1595.93</ele>
        <time>2026-08-30T08:17:15Z</time>
      </trkpt>
      <trkpt lat="45.4335" lon="5.91722">
        <ele>1598.33</ele>
        <time>2026-08-30T08:17:31Z</time>
      </trkpt>
      <trkpt lat="45.43352" lon="5.91717">
        <ele>1600.73</ele>
        <time>2026-08-30T08:17:44Z</time>
      </trkpt>
      <trkpt lat="45.43349" lon="5.91699">
        <ele>1602.66</ele>
        <time>2026-08-30T08:17:59Z</time>
      </trkpt>
      <trkpt lat="45.43341" lon="5.91692">
        <ele>1604.1</ele>
        <time>2026-08-30T08:18:15Z</time>
      </trkpt>
      <trkpt lat="45.43337" lon="5.91681">
        <ele>1606.5</ele>
        <time>2026-08-30T08:18:32Z</time>
      </trkpt>
      <trkpt lat="45.43333" lon="5.91672">
        <ele>1608.42</ele>
        <time>2026-08-30T08:18:48Z</time>
      </trkpt>
      <trkpt lat="45.43327" lon="5.91659">
        <ele>1610.83</ele>
        <time>2026-08-30T08:19:04Z</time>
      </trkpt>
      <trkpt lat="45.43319" lon="5.91648">
        <ele>1611.79</ele>
        <time>2026-08-30T08:19:20Z</time>
      </trkpt>
      <trkpt lat="45.43316" lon="5.91642">
        <ele>1614.67</ele>
        <time>2026-08-30T08:19:38Z</time>
      </trkpt>
      <trkpt lat="45.43312" lon="5.91636">
        <ele>1617.56</ele>
        <time>2026-08-30T08:19:55Z</time>
      </trkpt>
      <trkpt lat="45.43306" lon="5.91621">
        <ele>1619.96</ele>
        <time>2026-08-30T08:20:14Z</time>
      </trkpt>
      <trkpt lat="45.43302" lon="5.91613">
        <ele>1622.36</ele>
        <time>2026-08-30T08:20:31Z</time>
      </trkpt>
      <trkpt lat="45.43293" lon="5.91603">
        <ele>1622.84</ele>
        <time>2026-08-30T08:20:47Z</time>
      </trkpt>
      <trkpt lat="45.43288" lon="5.91594">
        <ele>1625.25</ele>
        <time>2026-08-30T08:21:03Z</time>
      </trkpt>
      <trkpt lat="45.43285" lon="5.91586">
        <ele>1628.13</ele>
        <time>2026-08-30T08:21:19Z</time>
      </trkpt>
      <trkpt lat="45.43283" lon="5.91578">
        <ele>1630.53</ele>
        <time>2026-08-30T08:21:33Z</time>
      </trkpt>
      <trkpt lat="45.43277" lon="5.91572">
        <ele>1631.98</ele>
        <time>2026-08-30T08:21:49Z</time>
      </trkpt>
      <trkpt lat="45.43272" lon="5.91566">
        <ele>1634.38</ele>
        <time>2026-08-30T08:22:05Z</time>
      </trkpt>
      <trkpt lat="45.43272" lon="5.9156">
        <ele>1635.82</ele>
        <time>2026-08-30T08:22:18Z</time>
      </trkpt>
      <trkpt lat="45.43267" lon="5.91552">
        <ele>1638.22</ele>
        <time>2026-08-30T08:22:34Z</time>
      </trkpt>
      <trkpt lat="45.43264" lon="5.9155">
        <ele>1639.67</ele>
        <time>2026-08-30T08:22:49Z</time>
      </trkpt>
      <trkpt lat="45.43259" lon="5.91541">
        <ele>1642.07</ele>
        <time>2026-08-30T08:23:07Z</time>
      </trkpt>
      <trkpt lat="45.43253" lon="5.91529">
        <ele>1644.95</ele>
        <time>2026-08-30T08:23:24Z</time>
      </trkpt>
      <trkpt lat="45.43254" lon="5.91521">
        <ele>1648.32</ele>
        <time>2026-08-30T08:23:41Z</time>
      </trkpt>
      <trkpt lat="45.4326" lon="5.91507">
        <ele>1651.68</ele>
        <time>2026-08-30T08:23:58Z</time>
      </trkpt>
      <trkpt lat="45.43261" lon="5.91494">
        <ele>1654.09</ele>
        <time>2026-08-30T08:24:16Z</time>
      </trkpt>
      <trkpt lat="45.43256" lon="5.9148">
        <ele>1655.53</ele>
        <time>2026-08-30T08:24:30Z</time>
      </trkpt>
      <trkpt lat="45.4325" lon="5.9147">
        <ele>1654.09</ele>
        <time>2026-08-30T08:24:44Z</time>
      </trkpt>
      <trkpt lat="45.43249" lon="5.91462">
        <ele>1655.53</ele>
        <time>2026-08-30T08:24:57Z</time>
      </trkpt>
      <trkpt lat="45.43248" lon="5.91455">
        <ele>1657.93</ele>
        <time>2026-08-30T08:25:11Z</time>
      </trkpt>
      <trkpt lat="45.43242" lon="5.91452">
        <ele>1659.85</ele>
        <time>2026-08-30T08:25:30Z</time>
      </trkpt>
      <trkpt lat="45.43238" lon="5.9145">
        <ele>1662.74</ele>
        <time>2026-08-30T08:25:44Z</time>
      </trkpt>
      <trkpt lat="45.43236" lon="5.91448">
        <ele>1665.62</ele>
        <time>2026-08-30T08:25:58Z</time>
      </trkpt>
      <trkpt lat="45.43231" lon="5.91446">
        <ele>1667.54</ele>
        <time>2026-08-30T08:26:13Z</time>
      </trkpt>
      <trkpt lat="45.43229" lon="5.91444">
        <ele>1668.02</ele>
        <time>2026-08-30T08:26:19Z</time>
      </trkpt>
      <trkpt lat="45.43222" lon="5.91444">
        <ele>1670.43</ele>
        <time>2026-08-30T08:26:33Z</time>
      </trkpt>
      <trkpt lat="45.43222" lon="5.91441">
        <ele>1672.83</ele>
        <time>2026-08-30T08:26:50Z</time>
      </trkpt>
      <trkpt lat="45.4322" lon="5.91439">
        <ele>1675.72</ele>
        <time>2026-08-30T08:27:06Z</time>
      </trkpt>
      <trkpt lat="45.43217" lon="5.91436">
        <ele>1678.6</ele>
        <time>2026-08-30T08:27:24Z</time>
      </trkpt>
      <trkpt lat="45.43213" lon="5.91435">
        <ele>1681</ele>
        <time>2026-08-30T08:27:38Z</time>
      </trkpt>
      <trkpt lat="45.4321" lon="5.91424">
        <ele>1681.96</ele>
        <time>2026-08-30T08:27:50Z</time>
      </trkpt>
      <trkpt lat="45.43203" lon="5.9141">
        <ele>1683.89</ele>
        <time>2026-08-30T08:28:04Z</time>
      </trkpt>
      <trkpt lat="45.43199" lon="5.91404">
        <ele>1686.77</ele>
        <time>2026-08-30T08:28:21Z</time>
      </trkpt>
      <trkpt lat="45.43195" lon="5.91393">
        <ele>1689.17</ele>
        <time>2026-08-30T08:28:38Z</time>
      </trkpt>
      <trkpt lat="45.43189" lon="5.91382">
        <ele>1690.14</ele>
        <time>2026-08-30T08:28:51Z</time>
      </trkpt>
      <trkpt lat="45.43179" lon="5.91374">
        <ele>1692.06</ele>
        <time>2026-08-30T08:29:05Z</time>
      </trkpt>
      <trkpt lat="45.43175" lon="5.9136">
        <ele>1693.5</ele>
        <time>2026-08-30T08:29:19Z</time>
      </trkpt>
      <trkpt lat="45.43174" lon="5.91357">
        <ele>1695.42</ele>
        <time>2026-08-30T08:29:33Z</time>
      </trkpt>
      <trkpt lat="45.43173" lon="5.91353">
        <ele>1697.34</ele>
        <time>2026-08-30T08:29:47Z</time>
      </trkpt>
      <trkpt lat="45.43172" lon="5.91351">
        <ele>1698.31</ele>
        <time>2026-08-30T08:30:03Z</time>
      </trkpt>
      <trkpt lat="45.43171" lon="5.9135">
        <ele>1699.27</ele>
        <time>2026-08-30T08:30:20Z</time>
      </trkpt>
      <trkpt lat="45.43167" lon="5.91348">
        <ele>1700.23</ele>
        <time>2026-08-30T08:30:41Z</time>
      </trkpt>
      <trkpt lat="45.43158" lon="5.91335">
        <ele>1702.63</ele>
        <time>2026-08-30T08:30:55Z</time>
      </trkpt>
      <trkpt lat="45.43148" lon="5.91327">
        <ele>1705.04</ele>
        <time>2026-08-30T08:31:10Z</time>
      </trkpt>
      <trkpt lat="45.43145" lon="5.91327">
        <ele>1705.52</ele>
        <time>2026-08-30T08:31:27Z</time>
      </trkpt>
      <trkpt lat="45.43138" lon="5.91315">
        <ele>1704.07</ele>
        <time>2026-08-30T08:31:43Z</time>
      </trkpt>
      <trkpt lat="45.43129" lon="5.91304">
        <ele>1705.04</ele>
        <time>2026-08-30T08:31:57Z</time>
      </trkpt>
      <trkpt lat="45.43126" lon="5.91292">
        <ele>1706</ele>
        <time>2026-08-30T08:32:08Z</time>
      </trkpt>
      <trkpt lat="45.43124" lon="5.91287">
        <ele>1707.92</ele>
        <time>2026-08-30T08:32:23Z</time>
      </trkpt>
      <trkpt lat="45.43114" lon="5.91281">
        <ele>1709.84</ele>
        <time>2026-08-30T08:32:38Z</time>
      </trkpt>
      <trkpt lat="45.43112" lon="5.9128">
        <ele>1707.44</ele>
        <time>2026-08-30T08:32:41Z</time>
      </trkpt>
      <trkpt lat="45.4311" lon="5.91278">
        <ele>1708.88</ele>
        <time>2026-08-30T08:32:43Z</time>
      </trkpt>
      <trkpt lat="45.43109" lon="5.91276">
        <ele>1715.61</ele>
        <time>2026-08-30T08:32:44Z</time>
      </trkpt>
      <trkpt lat="45.43109" lon="5.91275">
        <ele>1710.8</ele>
        <time>2026-08-30T08:32:45Z</time>
      </trkpt>
      <trkpt lat="45.43104" lon="5.91269">
        <ele>1711.28</ele>
        <time>2026-08-30T08:32:51Z</time>
      </trkpt>
      <trkpt lat="45.43099" lon="5.91266">
        <ele>1713.21</ele>
        <time>2026-08-30T08:33:06Z</time>
      </trkpt>
      <trkpt lat="45.43093" lon="5.91262">
        <ele>1713.69</ele>
        <time>2026-08-30T08:33:21Z</time>
      </trkpt>
      <trkpt lat="45.4309" lon="5.91258">
        <ele>1713.69</ele>
        <time>2026-08-30T08:33:32Z</time>
      </trkpt>
      <trkpt lat="45.43089" lon="5.91255">
        <ele>1713.69</ele>
        <time>2026-08-30T08:33:44Z</time>
      </trkpt>
      <trkpt lat="45.43088" lon="5.91252">
        <ele>1715.61</ele>
        <time>2026-08-30T08:34:01Z</time>
      </trkpt>
      <trkpt lat="45.43083" lon="5.91247">
        <ele>1718.49</ele>
        <time>2026-08-30T08:34:16Z</time>
      </trkpt>
      <trkpt lat="45.4308" lon="5.91246">
        <ele>1720.42</ele>
        <time>2026-08-30T08:34:32Z</time>
      </trkpt>
      <trkpt lat="45.4307" lon="5.91234">
        <ele>1722.34</ele>
        <time>2026-08-30T08:34:57Z</time>
      </trkpt>
      <trkpt lat="45.43075" lon="5.91242">
        <ele>1719.46</ele>
        <time>2026-08-30T08:37:53Z</time>
      </trkpt>
      <trkpt lat="45.43071" lon="5.91227">
        <ele>1720.42</ele>
        <time>2026-08-30T08:38:06Z</time>
      </trkpt>
      <trkpt lat="45.43069" lon="5.91217">
        <ele>1722.34</ele>
        <time>2026-08-30T08:38:20Z</time>
      </trkpt>
      <trkpt lat="45.43064" lon="5.91209">
        <ele>1723.78</ele>
        <time>2026-08-30T08:38:32Z</time>
      </trkpt>
      <trkpt lat="45.43059" lon="5.91202">
        <ele>1725.22</ele>
        <time>2026-08-30T08:38:46Z</time>
      </trkpt>
      <trkpt lat="45.43055" lon="5.91193">
        <ele>1726.67</ele>
        <time>2026-08-30T08:38:58Z</time>
      </trkpt>
      <trkpt lat="45.43053" lon="5.91185">
        <ele>1727.15</ele>
        <time>2026-08-30T08:39:16Z</time>
      </trkpt>
      <trkpt lat="45.43051" lon="5.9118">
        <ele>1728.59</ele>
        <time>2026-08-30T08:39:35Z</time>
      </trkpt>
      <trkpt lat="45.4305" lon="5.91174">
        <ele>1729.55</ele>
        <time>2026-08-30T08:39:49Z</time>
      </trkpt>
      <trkpt lat="45.43044" lon="5.9116">
        <ele>1730.99</ele>
        <time>2026-08-30T08:40:03Z</time>
      </trkpt>
      <trkpt lat="45.43035" lon="5.91143">
        <ele>1731.47</ele>
        <time>2026-08-30T08:40:16Z</time>
      </trkpt>
      <trkpt lat="45.43029" lon="5.91138">
        <ele>1733.88</ele>
        <time>2026-08-30T08:40:29Z</time>
      </trkpt>
      <trkpt lat="45.43025" lon="5.91133">
        <ele>1733.39</ele>
        <time>2026-08-30T08:40:42Z</time>
      </trkpt>
      <trkpt lat="45.43018" lon="5.91123">
        <ele>1734.36</ele>
        <time>2026-08-30T08:40:54Z</time>
      </trkpt>
      <trkpt lat="45.43011" lon="5.91109">
        <ele>1735.8</ele>
        <time>2026-08-30T08:41:07Z</time>
      </trkpt>
      <trkpt lat="45.43007" lon="5.91092">
        <ele>1738.68</ele>
        <time>2026-08-30T08:41:23Z</time>
      </trkpt>
      <trkpt lat="45.43001" lon="5.91083">
        <ele>1740.12</ele>
        <time>2026-08-30T08:41:35Z</time>
      </trkpt>
      <trkpt lat="45.42998" lon="5.91072">
        <ele>1741.57</ele>
        <time>2026-08-30T08:41:47Z</time>
      </trkpt>
      <trkpt lat="45.42992" lon="5.9106">
        <ele>1743.97</ele>
        <time>2026-08-30T08:42:03Z</time>
      </trkpt>
      <trkpt lat="45.42987" lon="5.9105">
        <ele>1746.37</ele>
        <time>2026-08-30T08:42:17Z</time>
      </trkpt>
      <trkpt lat="45.42987" lon="5.91047">
        <ele>1747.33</ele>
        <time>2026-08-30T08:42:21Z</time>
      </trkpt>
      <trkpt lat="45.42985" lon="5.91039">
        <ele>1748.29</ele>
        <time>2026-08-30T08:42:35Z</time>
      </trkpt>
      <trkpt lat="45.42983" lon="5.91032">
        <ele>1748.29</ele>
        <time>2026-08-30T08:42:50Z</time>
      </trkpt>
      <trkpt lat="45.42982" lon="5.91024">
        <ele>1748.29</ele>
        <time>2026-08-30T08:42:58Z</time>
      </trkpt>
      <trkpt lat="45.4298" lon="5.91011">
        <ele>1748.78</ele>
        <time>2026-08-30T08:43:11Z</time>
      </trkpt>
      <trkpt lat="45.42976" lon="5.90994">
        <ele>1749.74</ele>
        <time>2026-08-30T08:43:25Z</time>
      </trkpt>
      <trkpt lat="45.42974" lon="5.90982">
        <ele>1750.7</ele>
        <time>2026-08-30T08:43:38Z</time>
      </trkpt>
      <trkpt lat="45.42971" lon="5.90967">
        <ele>1753.58</ele>
        <time>2026-08-30T08:43:54Z</time>
      </trkpt>
      <trkpt lat="45.42972" lon="5.90955">
        <ele>1755.5</ele>
        <time>2026-08-30T08:44:07Z</time>
      </trkpt>
      <trkpt lat="45.42968" lon="5.90943">
        <ele>1757.91</ele>
        <time>2026-08-30T08:44:21Z</time>
      </trkpt>
      <trkpt lat="45.42965" lon="5.90932">
        <ele>1759.35</ele>
        <time>2026-08-30T08:44:37Z</time>
      </trkpt>
      <trkpt lat="45.42957" lon="5.90921">
        <ele>1761.27</ele>
        <time>2026-08-30T08:44:50Z</time>
      </trkpt>
      <trkpt lat="45.42953" lon="5.90908">
        <ele>1763.2</ele>
        <time>2026-08-30T08:45:04Z</time>
      </trkpt>
      <trkpt lat="45.42948" lon="5.90892">
        <ele>1764.16</ele>
        <time>2026-08-30T08:45:19Z</time>
      </trkpt>
      <trkpt lat="45.42942" lon="5.90885">
        <ele>1765.12</ele>
        <time>2026-08-30T08:45:32Z</time>
      </trkpt>
      <trkpt lat="45.42937" lon="5.90874">
        <ele>1767.04</ele>
        <time>2026-08-30T08:45:48Z</time>
      </trkpt>
      <trkpt lat="45.42934" lon="5.90865">
        <ele>1768.96</ele>
        <time>2026-08-30T08:46:01Z</time>
      </trkpt>
      <trkpt lat="45.42932" lon="5.90862">
        <ele>1770.89</ele>
        <time>2026-08-30T08:46:16Z</time>
      </trkpt>
      <trkpt lat="45.42931" lon="5.9086">
        <ele>1771.85</ele>
        <time>2026-08-30T08:46:32Z</time>
      </trkpt>
      <trkpt lat="45.42923" lon="5.90847">
        <ele>1773.77</ele>
        <time>2026-08-30T08:46:47Z</time>
      </trkpt>
      <trkpt lat="45.42917" lon="5.90835">
        <ele>1774.73</ele>
        <time>2026-08-30T08:47:00Z</time>
      </trkpt>
      <trkpt lat="45.42916" lon="5.90832">
        <ele>1775.21</ele>
        <time>2026-08-30T08:47:12Z</time>
      </trkpt>
      <trkpt lat="45.42918" lon="5.90833">
        <ele>1774.25</ele>
        <time>2026-08-30T08:47:25Z</time>
      </trkpt>
      <trkpt lat="45.42917" lon="5.90825">
        <ele>1774.73</ele>
        <time>2026-08-30T08:47:37Z</time>
      </trkpt>
      <trkpt lat="45.42916" lon="5.90814">
        <ele>1776.17</ele>
        <time>2026-08-30T08:47:50Z</time>
      </trkpt>
      <trkpt lat="45.42916" lon="5.90804">
        <ele>1777.61</ele>
        <time>2026-08-30T08:48:05Z</time>
      </trkpt>
      <trkpt lat="45.42917" lon="5.90804">
        <ele>1777.13</ele>
        <time>2026-08-30T08:48:09Z</time>
      </trkpt>
      <trkpt lat="45.42922" lon="5.90793">
        <ele>1777.61</ele>
        <time>2026-08-30T08:48:22Z</time>
      </trkpt>
      <trkpt lat="45.42919" lon="5.90788">
        <ele>1778.58</ele>
        <time>2026-08-30T08:48:35Z</time>
      </trkpt>
      <trkpt lat="45.42921" lon="5.90789">
        <ele>1779.06</ele>
        <time>2026-08-30T08:48:57Z</time>
      </trkpt>
      <trkpt lat="45.4293" lon="5.9078">
        <ele>1781.94</ele>
        <time>2026-08-30T08:49:15Z</time>
      </trkpt>
      <trkpt lat="45.42934" lon="5.90771">
        <ele>1784.34</ele>
        <time>2026-08-30T08:49:31Z</time>
      </trkpt>
      <trkpt lat="45.4293" lon="5.90768">
        <ele>1784.82</ele>
        <time>2026-08-30T08:49:48Z</time>
      </trkpt>
      <trkpt lat="45.42924" lon="5.90763">
        <ele>1785.31</ele>
        <time>2026-08-30T08:50:03Z</time>
      </trkpt>
      <trkpt lat="45.42917" lon="5.90757">
        <ele>1785.31</ele>
        <time>2026-08-30T08:50:18Z</time>
      </trkpt>
      <trkpt lat="45.42911" lon="5.90757">
        <ele>1787.23</ele>
        <time>2026-08-30T08:50:33Z</time>
      </trkpt>
      <trkpt lat="45.42906" lon="5.90759">
        <ele>1787.23</ele>
        <time>2026-08-30T08:50:39Z</time>
      </trkpt>
      <trkpt lat="45.42901" lon="5.9075">
        <ele>1789.15</ele>
        <time>2026-08-30T08:50:53Z</time>
      </trkpt>
      <trkpt lat="45.42899" lon="5.90746">
        <ele>1790.59</ele>
        <time>2026-08-30T08:51:06Z</time>
      </trkpt>
      <trkpt lat="45.42897" lon="5.90747">
        <ele>1791.07</ele>
        <time>2026-08-30T08:51:22Z</time>
      </trkpt>
      <trkpt lat="45.42898" lon="5.90748">
        <ele>1791.07</ele>
        <time>2026-08-30T08:51:42Z</time>
      </trkpt>
      <trkpt lat="45.42897" lon="5.90748">
        <ele>1791.07</ele>
        <time>2026-08-30T08:52:10Z</time>
      </trkpt>
      <trkpt lat="45.42897" lon="5.90746">
        <ele>1790.59</ele>
        <time>2026-08-30T08:52:20Z</time>
      </trkpt>
      <trkpt lat="45.42895" lon="5.90733">
        <ele>1792.03</ele>
        <time>2026-08-30T08:52:34Z</time>
      </trkpt>
      <trkpt lat="45.42893" lon="5.90725">
        <ele>1793.96</ele>
        <time>2026-08-30T08:52:47Z</time>
      </trkpt>
      <trkpt lat="45.42894" lon="5.90715">
        <ele>1795.4</ele>
        <time>2026-08-30T08:53:03Z</time>
      </trkpt>
      <trkpt lat="45.429" lon="5.90705">
        <ele>1797.32</ele>
        <time>2026-08-30T08:53:18Z</time>
      </trkpt>
      <trkpt lat="45.42906" lon="5.90696">
        <ele>1800.21</ele>
        <time>2026-08-30T08:53:35Z</time>
      </trkpt>
      <trkpt lat="45.42909" lon="5.90692">
        <ele>1801.65</ele>
        <time>2026-08-30T08:53:47Z</time>
      </trkpt>
      <trkpt lat="45.42911" lon="5.90685">
        <ele>1803.57</ele>
        <time>2026-08-30T08:54:02Z</time>
      </trkpt>
      <trkpt lat="45.42917" lon="5.90676">
        <ele>1805.01</ele>
        <time>2026-08-30T08:54:14Z</time>
      </trkpt>
      <trkpt lat="45.42923" lon="5.90665">
        <ele>1806.94</ele>
        <time>2026-08-30T08:54:28Z</time>
      </trkpt>
      <trkpt lat="45.42928" lon="5.90653">
        <ele>1808.86</ele>
        <time>2026-08-30T08:54:43Z</time>
      </trkpt>
      <trkpt lat="45.4293" lon="5.90652">
        <ele>1809.34</ele>
        <time>2026-08-30T08:54:47Z</time>
      </trkpt>
      <trkpt lat="45.42939" lon="5.90643">
        <ele>1809.82</ele>
        <time>2026-08-30T08:55:01Z</time>
      </trkpt>
      <trkpt lat="45.42949" lon="5.90629">
        <ele>1811.26</ele>
        <time>2026-08-30T08:55:16Z</time>
      </trkpt>
      <trkpt lat="45.42955" lon="5.90617">
        <ele>1812.7</ele>
        <time>2026-08-30T08:55:30Z</time>
      </trkpt>
      <trkpt lat="45.42968" lon="5.90611">
        <ele>1812.7</ele>
        <time>2026-08-30T08:55:44Z</time>
      </trkpt>
      <trkpt lat="45.4298" lon="5.90606">
        <ele>1814.15</ele>
        <time>2026-08-30T08:55:59Z</time>
      </trkpt>
      <trkpt lat="45.42982" lon="5.906">
        <ele>1814.15</ele>
        <time>2026-08-30T08:56:03Z</time>
      </trkpt>
      <trkpt lat="45.42993" lon="5.90591">
        <ele>1815.59</ele>
        <time>2026-08-30T08:56:18Z</time>
      </trkpt>
      <trkpt lat="45.42998" lon="5.90585">
        <ele>1816.55</ele>
        <time>2026-08-30T08:56:25Z</time>
      </trkpt>
      <trkpt lat="45.43001" lon="5.90578">
        <ele>1816.55</ele>
        <time>2026-08-30T08:56:31Z</time>
      </trkpt>
      <trkpt lat="45.43001" lon="5.9057">
        <ele>1815.59</ele>
        <time>2026-08-30T08:56:36Z</time>
      </trkpt>
      <trkpt lat="45.43002" lon="5.90556">
        <ele>1815.59</ele>
        <time>2026-08-30T08:56:48Z</time>
      </trkpt>
      <trkpt lat="45.43014" lon="5.90555">
        <ele>1816.55</ele>
        <time>2026-08-30T08:57:02Z</time>
      </trkpt>
      <trkpt lat="45.43023" lon="5.9055">
        <ele>1817.99</ele>
        <time>2026-08-30T08:57:15Z</time>
      </trkpt>
      <trkpt lat="45.43031" lon="5.90543">
        <ele>1818.95</ele>
        <time>2026-08-30T08:57:28Z</time>
      </trkpt>
      <trkpt lat="45.43041" lon="5.90534">
        <ele>1821.35</ele>
        <time>2026-08-30T08:57:44Z</time>
      </trkpt>
      <trkpt lat="45.4305" lon="5.90527">
        <ele>1822.8</ele>
        <time>2026-08-30T08:57:58Z</time>
      </trkpt>
      <trkpt lat="45.43059" lon="5.90523">
        <ele>1823.76</ele>
        <time>2026-08-30T08:58:12Z</time>
      </trkpt>
      <trkpt lat="45.43064" lon="5.90515">
        <ele>1825.2</ele>
        <time>2026-08-30T08:58:26Z</time>
      </trkpt>
      <trkpt lat="45.43065" lon="5.90506">
        <ele>1826.16</ele>
        <time>2026-08-30T08:58:43Z</time>
      </trkpt>
      <trkpt lat="45.4307" lon="5.90501">
        <ele>1827.6</ele>
        <time>2026-08-30T08:58:56Z</time>
      </trkpt>
      <trkpt lat="45.43074" lon="5.90497">
        <ele>1828.08</ele>
        <time>2026-08-30T08:59:08Z</time>
      </trkpt>
      <trkpt lat="45.43079" lon="5.90493">
        <ele>1828.56</ele>
        <time>2026-08-30T08:59:20Z</time>
      </trkpt>
      <trkpt lat="45.43086" lon="5.90488">
        <ele>1830.01</ele>
        <time>2026-08-30T08:59:32Z</time>
      </trkpt>
      <trkpt lat="45.43091" lon="5.90486">
        <ele>1830.49</ele>
        <time>2026-08-30T08:59:42Z</time>
      </trkpt>
      <trkpt lat="45.43096" lon="5.90485">
        <ele>1830.97</ele>
        <time>2026-08-30T08:59:47Z</time>
      </trkpt>
      <trkpt lat="45.43105" lon="5.9048">
        <ele>1831.93</ele>
        <time>2026-08-30T09:00:00Z</time>
      </trkpt>
      <trkpt lat="45.43118" lon="5.90478">
        <ele>1834.33</ele>
        <time>2026-08-30T09:00:16Z</time>
      </trkpt>
      <trkpt lat="45.4313" lon="5.90474">
        <ele>1835.77</ele>
        <time>2026-08-30T09:00:30Z</time>
      </trkpt>
      <trkpt lat="45.43137" lon="5.90462">
        <ele>1837.7</ele>
        <time>2026-08-30T09:00:44Z</time>
      </trkpt>
      <trkpt lat="45.43137" lon="5.9046">
        <ele>1837.7</ele>
        <time>2026-08-30T09:00:51Z</time>
      </trkpt>
      <trkpt lat="45.43141" lon="5.90461">
        <ele>1838.18</ele>
        <time>2026-08-30T09:00:54Z</time>
      </trkpt>
      <trkpt lat="45.43153" lon="5.90463">
        <ele>1839.14</ele>
        <time>2026-08-30T09:01:09Z</time>
      </trkpt>
      <trkpt lat="45.43159" lon="5.90459">
        <ele>1840.1</ele>
        <time>2026-08-30T09:01:18Z</time>
      </trkpt>
      <trkpt lat="45.43167" lon="5.90457">
        <ele>1841.06</ele>
        <time>2026-08-30T09:01:30Z</time>
      </trkpt>
      <trkpt lat="45.4317" lon="5.90456">
        <ele>1841.54</ele>
        <time>2026-08-30T09:01:35Z</time>
      </trkpt>
      <trkpt lat="45.43179" lon="5.90454">
        <ele>1842.02</ele>
        <time>2026-08-30T09:01:44Z</time>
      </trkpt>
      <trkpt lat="45.43188" lon="5.90449">
        <ele>1843.47</ele>
        <time>2026-08-30T09:01:57Z</time>
      </trkpt>
      <trkpt lat="45.4319" lon="5.90446">
        <ele>1843.95</ele>
        <time>2026-08-30T09:02:00Z</time>
      </trkpt>
      <trkpt lat="45.43198" lon="5.90439">
        <ele>1843.47</ele>
        <time>2026-08-30T09:02:10Z</time>
      </trkpt>
      <trkpt lat="45.43208" lon="5.90438">
        <ele>1844.91</ele>
        <time>2026-08-30T09:02:23Z</time>
      </trkpt>
      <trkpt lat="45.43217" lon="5.90436">
        <ele>1846.35</ele>
        <time>2026-08-30T09:02:34Z</time>
      </trkpt>
      <trkpt lat="45.43226" lon="5.90429">
        <ele>1848.27</ele>
        <time>2026-08-30T09:02:48Z</time>
      </trkpt>
      <trkpt lat="45.43236" lon="5.90423">
        <ele>1850.68</ele>
        <time>2026-08-30T09:03:04Z</time>
      </trkpt>
      <trkpt lat="45.43247" lon="5.90419">
        <ele>1852.6</ele>
        <time>2026-08-30T09:03:20Z</time>
      </trkpt>
      <trkpt lat="45.43253" lon="5.90416">
        <ele>1853.56</ele>
        <time>2026-08-30T09:03:29Z</time>
      </trkpt>
      <trkpt lat="45.43259" lon="5.90422">
        <ele>1854.04</ele>
        <time>2026-08-30T09:03:43Z</time>
      </trkpt>
      <trkpt lat="45.43261" lon="5.90421">
        <ele>1854.52</ele>
        <time>2026-08-30T09:04:00Z</time>
      </trkpt>
      <trkpt lat="45.4326" lon="5.90418">
        <ele>1854.04</ele>
        <time>2026-08-30T09:04:20Z</time>
      </trkpt>
      <trkpt lat="45.4326" lon="5.90417">
        <ele>1854.52</ele>
        <time>2026-08-30T09:04:39Z</time>
      </trkpt>
      <trkpt lat="45.4326" lon="5.90416">
        <ele>1854.52</ele>
        <time>2026-08-30T09:05:00Z</time>
      </trkpt>
      <trkpt lat="45.43259" lon="5.90414">
        <ele>1855</ele>
        <time>2026-08-30T09:05:02Z</time>
      </trkpt>
      <trkpt lat="45.43259" lon="5.90412">
        <ele>1855</ele>
        <time>2026-08-30T09:05:14Z</time>
      </trkpt>
      <trkpt lat="45.43254" lon="5.9041">
        <ele>1855</ele>
        <time>2026-08-30T09:05:28Z</time>
      </trkpt>
      <trkpt lat="45.43247" lon="5.90406">
        <ele>1855</ele>
        <time>2026-08-30T09:05:41Z</time>
      </trkpt>
      <trkpt lat="45.43246" lon="5.90406">
        <ele>1855</ele>
        <time>2026-08-30T09:06:03Z</time>
      </trkpt>
      <trkpt lat="45.43246" lon="5.90407">
        <ele>1855.48</ele>
        <time>2026-08-30T09:06:19Z</time>
      </trkpt>
      <trkpt lat="45.43246" lon="5.90407">
        <ele>1855.48</ele>
        <time>2026-08-30T09:06:43Z</time>
      </trkpt>
      <trkpt lat="45.43246" lon="5.90407">
        <ele>1854.52</ele>
        <time>2026-08-30T09:06:57Z</time>
      </trkpt>
      <trkpt lat="45.43246" lon="5.90409">
        <ele>1855</ele>
        <time>2026-08-30T09:07:30Z</time>
      </trkpt>
      <trkpt lat="45.43245" lon="5.90408">
        <ele>1855</ele>
        <time>2026-08-30T09:08:05Z</time>
      </trkpt>
      <trkpt lat="45.43245" lon="5.90408">
        <ele>1855.48</ele>
        <time>2026-08-30T09:08:44Z</time>
      </trkpt>
      <trkpt lat="45.43244" lon="5.90408">
        <ele>1855.48</ele>
        <time>2026-08-30T09:09:23Z</time>
      </trkpt>
      <trkpt lat="45.43244" lon="5.90408">
        <ele>1855.48</ele>
        <time>2026-08-30T09:09:59Z</time>
      </trkpt>
      <trkpt lat="45.43244" lon="5.90409">
        <ele>1855.96</ele>
        <time>2026-08-30T09:10:35Z</time>
      </trkpt>
      <trkpt lat="45.43243" lon="5.9041">
        <ele>1856.44</ele>
        <time>2026-08-30T09:10:59Z</time>
      </trkpt>
      <trkpt lat="45.43242" lon="5.90411">
        <ele>1855.96</ele>
        <time>2026-08-30T09:11:14Z</time>
      </trkpt>
      <trkpt lat="45.4324" lon="5.90413">
        <ele>1855.48</ele>
        <time>2026-08-30T09:11:22Z</time>
      </trkpt>
      <trkpt lat="45.43229" lon="5.90419">
        <ele>1853.08</ele>
        <time>2026-08-30T09:11:38Z</time>
      </trkpt>
      <trkpt lat="45.43226" lon="5.90421">
        <ele>1852.12</ele>
        <time>2026-08-30T09:11:53Z</time>
      </trkpt>
      <trkpt lat="45.43227" lon="5.90421">
        <ele>1852.12</ele>
        <time>2026-08-30T09:12:20Z</time>
      </trkpt>
      <trkpt lat="45.43221" lon="5.90426">
        <ele>1850.68</ele>
        <time>2026-08-30T09:12:36Z</time>
      </trkpt>
      <trkpt lat="45.43213" lon="5.90432">
        <ele>1849.23</ele>
        <time>2026-08-30T09:12:49Z</time>
      </trkpt>
      <trkpt lat="45.43204" lon="5.90433">
        <ele>1847.79</ele>
        <time>2026-08-30T09:12:59Z</time>
      </trkpt>
      <trkpt lat="45.43193" lon="5.9044">
        <ele>1847.31</ele>
        <time>2026-08-30T09:13:12Z</time>
      </trkpt>
      <trkpt lat="45.43182" lon="5.9045">
        <ele>1846.83</ele>
        <time>2026-08-30T09:13:25Z</time>
      </trkpt>
      <trkpt lat="45.43177" lon="5.90452">
        <ele>1846.35</ele>
        <time>2026-08-30T09:13:29Z</time>
      </trkpt>
      <trkpt lat="45.43169" lon="5.90455">
        <ele>1845.39</ele>
        <time>2026-08-30T09:13:37Z</time>
      </trkpt>
      <trkpt lat="45.43157" lon="5.90458">
        <ele>1843.95</ele>
        <time>2026-08-30T09:13:51Z</time>
      </trkpt>
      <trkpt lat="45.43152" lon="5.90459">
        <ele>1843.47</ele>
        <time>2026-08-30T09:13:56Z</time>
      </trkpt>
      <trkpt lat="45.43149" lon="5.90461">
        <ele>1842.98</ele>
        <time>2026-08-30T09:14:00Z</time>
      </trkpt>
      <trkpt lat="45.43146" lon="5.90465">
        <ele>1842.5</ele>
        <time>2026-08-30T09:14:04Z</time>
      </trkpt>
      <trkpt lat="45.43137" lon="5.90467">
        <ele>1841.54</ele>
        <time>2026-08-30T09:14:13Z</time>
      </trkpt>
      <trkpt lat="45.43134" lon="5.90467">
        <ele>1841.06</ele>
        <time>2026-08-30T09:14:16Z</time>
      </trkpt>
      <trkpt lat="45.43128" lon="5.90472">
        <ele>1840.1</ele>
        <time>2026-08-30T09:14:23Z</time>
      </trkpt>
      <trkpt lat="45.43127" lon="5.90473">
        <ele>1840.1</ele>
        <time>2026-08-30T09:14:25Z</time>
      </trkpt>
      <trkpt lat="45.43122" lon="5.90473">
        <ele>1839.62</ele>
        <time>2026-08-30T09:14:30Z</time>
      </trkpt>
      <trkpt lat="45.43117" lon="5.90474">
        <ele>1839.14</ele>
        <time>2026-08-30T09:14:35Z</time>
      </trkpt>
      <trkpt lat="45.43113" lon="5.90475">
        <ele>1838.66</ele>
        <time>2026-08-30T09:14:38Z</time>
      </trkpt>
      <trkpt lat="45.43107" lon="5.90479">
        <ele>1837.22</ele>
        <time>2026-08-30T09:14:46Z</time>
      </trkpt>
      <trkpt lat="45.43093" lon="5.90483">
        <ele>1835.29</ele>
        <time>2026-08-30T09:15:00Z</time>
      </trkpt>
      <trkpt lat="45.43089" lon="5.90484">
        <ele>1834.81</ele>
        <time>2026-08-30T09:15:04Z</time>
      </trkpt>
      <trkpt lat="45.43076" lon="5.90488">
        <ele>1833.85</ele>
        <time>2026-08-30T09:15:18Z</time>
      </trkpt>
      <trkpt lat="45.43066" lon="5.90484">
        <ele>1832.89</ele>
        <time>2026-08-30T09:15:31Z</time>
      </trkpt>
      <trkpt lat="45.43057" lon="5.90483">
        <ele>1831.93</ele>
        <time>2026-08-30T09:15:42Z</time>
      </trkpt>
      <trkpt lat="45.43044" lon="5.90485">
        <ele>1831.93</ele>
        <time>2026-08-30T09:15:57Z</time>
      </trkpt>
      <trkpt lat="45.43042" lon="5.90485">
        <ele>1832.41</ele>
        <time>2026-08-30T09:15:59Z</time>
      </trkpt>
      <trkpt lat="45.43032" lon="5.90482">
        <ele>1832.41</ele>
        <time>2026-08-30T09:16:09Z</time>
      </trkpt>
      <trkpt lat="45.4303" lon="5.9048">
        <ele>1832.41</ele>
        <time>2026-08-30T09:16:11Z</time>
      </trkpt>
      <trkpt lat="45.43016" lon="5.90475">
        <ele>1832.41</ele>
        <time>2026-08-30T09:16:25Z</time>
      </trkpt>
      <trkpt lat="45.43011" lon="5.90475">
        <ele>1831.93</ele>
        <time>2026-08-30T09:16:30Z</time>
      </trkpt>
      <trkpt lat="45.43003" lon="5.90473">
        <ele>1832.41</ele>
        <time>2026-08-30T09:16:40Z</time>
      </trkpt>
      <trkpt lat="45.42995" lon="5.90474">
        <ele>1833.85</ele>
        <time>2026-08-30T09:16:55Z</time>
      </trkpt>
      <trkpt lat="45.42982" lon="5.90478">
        <ele>1834.81</ele>
        <time>2026-08-30T09:17:12Z</time>
      </trkpt>
      <trkpt lat="45.42975" lon="5.90475">
        <ele>1835.29</ele>
        <time>2026-08-30T09:17:27Z</time>
      </trkpt>
      <trkpt lat="45.42962" lon="5.90472">
        <ele>1836.74</ele>
        <time>2026-08-30T09:17:42Z</time>
      </trkpt>
      <trkpt lat="45.42957" lon="5.90472">
        <ele>1836.74</ele>
        <time>2026-08-30T09:17:47Z</time>
      </trkpt>
      <trkpt lat="45.42945" lon="5.90471">
        <ele>1837.7</ele>
        <time>2026-08-30T09:18:02Z</time>
      </trkpt>
      <trkpt lat="45.42935" lon="5.90464">
        <ele>1839.62</ele>
        <time>2026-08-30T09:18:17Z</time>
      </trkpt>
      <trkpt lat="45.42933" lon="5.90465">
        <ele>1839.62</ele>
        <time>2026-08-30T09:18:19Z</time>
      </trkpt>
      <trkpt lat="45.42924" lon="5.90473">
        <ele>1838.66</ele>
        <time>2026-08-30T09:18:30Z</time>
      </trkpt>
      <trkpt lat="45.42913" lon="5.90486">
        <ele>1838.66</ele>
        <time>2026-08-30T09:18:45Z</time>
      </trkpt>
      <trkpt lat="45.4291" lon="5.9049">
        <ele>1838.66</ele>
        <time>2026-08-30T09:18:50Z</time>
      </trkpt>
      <trkpt lat="45.42909" lon="5.90497">
        <ele>1838.18</ele>
        <time>2026-08-30T09:19:03Z</time>
      </trkpt>
      <trkpt lat="45.42913" lon="5.905">
        <ele>1836.74</ele>
        <time>2026-08-30T09:19:15Z</time>
      </trkpt>
      <trkpt lat="45.42918" lon="5.90503">
        <ele>1836.74</ele>
        <time>2026-08-30T09:19:23Z</time>
      </trkpt>
      <trkpt lat="45.42922" lon="5.90505">
        <ele>1836.26</ele>
        <time>2026-08-30T09:19:36Z</time>
      </trkpt>
      <trkpt lat="45.4292" lon="5.90507">
        <ele>1835.77</ele>
        <time>2026-08-30T09:19:41Z</time>
      </trkpt>
      <trkpt lat="45.42915" lon="5.90511">
        <ele>1835.77</ele>
        <time>2026-08-30T09:19:47Z</time>
      </trkpt>
      <trkpt lat="45.42912" lon="5.90518">
        <ele>1834.81</ele>
        <time>2026-08-30T09:20:00Z</time>
      </trkpt>
      <trkpt lat="45.42912" lon="5.90519">
        <ele>1834.81</ele>
        <time>2026-08-30T09:20:08Z</time>
      </trkpt>
      <trkpt lat="45.42908" lon="5.90513">
        <ele>1835.77</ele>
        <time>2026-08-30T09:20:16Z</time>
      </trkpt>
      <trkpt lat="45.42904" lon="5.9051">
        <ele>1836.26</ele>
        <time>2026-08-30T09:20:21Z</time>
      </trkpt>
      <trkpt lat="45.42892" lon="5.90511">
        <ele>1836.26</ele>
        <time>2026-08-30T09:20:35Z</time>
      </trkpt>
      <trkpt lat="45.42889" lon="5.90506">
        <ele>1836.74</ele>
        <time>2026-08-30T09:20:40Z</time>
      </trkpt>
      <trkpt lat="45.42888" lon="5.90503">
        <ele>1837.22</ele>
        <time>2026-08-30T09:20:43Z</time>
      </trkpt>
      <trkpt lat="45.42887" lon="5.905">
        <ele>1837.7</ele>
        <time>2026-08-30T09:20:46Z</time>
      </trkpt>
      <trkpt lat="45.42881" lon="5.90499">
        <ele>1838.18</ele>
        <time>2026-08-30T09:20:52Z</time>
      </trkpt>
      <trkpt lat="45.42874" lon="5.90497">
        <ele>1838.18</ele>
        <time>2026-08-30T09:21:08Z</time>
      </trkpt>
      <trkpt lat="45.42874" lon="5.90497">
        <ele>1838.18</ele>
        <time>2026-08-30T09:21:11Z</time>
      </trkpt>
      <trkpt lat="45.4287" lon="5.90494">
        <ele>1838.18</ele>
        <time>2026-08-30T09:21:25Z</time>
      </trkpt>
      <trkpt lat="45.4287" lon="5.90495">
        <ele>1838.18</ele>
        <time>2026-08-30T09:21:27Z</time>
      </trkpt>
      <trkpt lat="45.4287" lon="5.90497">
        <ele>1837.7</ele>
        <time>2026-08-30T09:21:43Z</time>
      </trkpt>
      <trkpt lat="45.42866" lon="5.90488">
        <ele>1838.18</ele>
        <time>2026-08-30T09:21:56Z</time>
      </trkpt>
      <trkpt lat="45.42865" lon="5.90487">
        <ele>1838.66</ele>
        <time>2026-08-30T09:21:57Z</time>
      </trkpt>
      <trkpt lat="45.42854" lon="5.90481">
        <ele>1839.14</ele>
        <time>2026-08-30T09:22:10Z</time>
      </trkpt>
      <trkpt lat="45.42849" lon="5.90479">
        <ele>1839.14</ele>
        <time>2026-08-30T09:22:15Z</time>
      </trkpt>
      <trkpt lat="45.42844" lon="5.90477">
        <ele>1838.66</ele>
        <time>2026-08-30T09:22:21Z</time>
      </trkpt>
      <trkpt lat="45.42837" lon="5.90474">
        <ele>1838.66</ele>
        <time>2026-08-30T09:22:29Z</time>
      </trkpt>
      <trkpt lat="45.42832" lon="5.9047">
        <ele>1839.14</ele>
        <time>2026-08-30T09:22:36Z</time>
      </trkpt>
      <trkpt lat="45.42829" lon="5.90466">
        <ele>1839.62</ele>
        <time>2026-08-30T09:22:50Z</time>
      </trkpt>
      <trkpt lat="45.42829" lon="5.90466">
        <ele>1839.14</ele>
        <time>2026-08-30T09:22:53Z</time>
      </trkpt>
      <trkpt lat="45.42829" lon="5.90468">
        <ele>1839.14</ele>
        <time>2026-08-30T09:23:06Z</time>
      </trkpt>
      <trkpt lat="45.42829" lon="5.90468">
        <ele>1839.14</ele>
        <time>2026-08-30T09:23:31Z</time>
      </trkpt>
      <trkpt lat="45.42829" lon="5.90467">
        <ele>1839.62</ele>
        <time>2026-08-30T09:23:57Z</time>
      </trkpt>
      <trkpt lat="45.42831" lon="5.9047">
        <ele>1839.62</ele>
        <time>2026-08-30T09:24:14Z</time>
      </trkpt>
      <trkpt lat="45.42827" lon="5.90466">
        <ele>1839.62</ele>
        <time>2026-08-30T09:24:24Z</time>
      </trkpt>
      <trkpt lat="45.42812" lon="5.90462">
        <ele>1839.14</ele>
        <time>2026-08-30T09:24:40Z</time>
      </trkpt>
      <trkpt lat="45.42802" lon="5.90463">
        <ele>1837.7</ele>
        <time>2026-08-30T09:24:54Z</time>
      </trkpt>
      <trkpt lat="45.42798" lon="5.90462">
        <ele>1838.18</ele>
        <time>2026-08-30T09:24:58Z</time>
      </trkpt>
      <trkpt lat="45.42785" lon="5.90455">
        <ele>1838.66</ele>
        <time>2026-08-30T09:25:13Z</time>
      </trkpt>
      <trkpt lat="45.42784" lon="5.90455">
        <ele>1838.66</ele>
        <time>2026-08-30T09:25:14Z</time>
      </trkpt>
      <trkpt lat="45.42782" lon="5.90454">
        <ele>1838.18</ele>
        <time>2026-08-30T09:25:16Z</time>
      </trkpt>
      <trkpt lat="45.42767" lon="5.90449">
        <ele>1837.7</ele>
        <time>2026-08-30T09:25:32Z</time>
      </trkpt>
      <trkpt lat="45.42756" lon="5.90445">
        <ele>1836.74</ele>
        <time>2026-08-30T09:25:45Z</time>
      </trkpt>
      <trkpt lat="45.42743" lon="5.90438">
        <ele>1836.74</ele>
        <time>2026-08-30T09:26:00Z</time>
      </trkpt>
      <trkpt lat="45.42735" lon="5.90438">
        <ele>1837.22</ele>
        <time>2026-08-30T09:26:10Z</time>
      </trkpt>
      <trkpt lat="45.42727" lon="5.90428">
        <ele>1836.74</ele>
        <time>2026-08-30T09:26:24Z</time>
      </trkpt>
      <trkpt lat="45.42724" lon="5.90424">
        <ele>1836.74</ele>
        <time>2026-08-30T09:26:29Z</time>
      </trkpt>
      <trkpt lat="45.42713" lon="5.90415">
        <ele>1836.26</ele>
        <time>2026-08-30T09:26:43Z</time>
      </trkpt>
      <trkpt lat="45.427" lon="5.90408">
        <ele>1834.81</ele>
        <time>2026-08-30T09:26:58Z</time>
      </trkpt>
      <trkpt lat="45.42689" lon="5.90402">
        <ele>1835.29</ele>
        <time>2026-08-30T09:27:12Z</time>
      </trkpt>
      <trkpt lat="45.42681" lon="5.904">
        <ele>1834.81</ele>
        <time>2026-08-30T09:27:22Z</time>
      </trkpt>
      <trkpt lat="45.42674" lon="5.90395">
        <ele>1834.81</ele>
        <time>2026-08-30T09:27:31Z</time>
      </trkpt>
      <trkpt lat="45.42672" lon="5.90395">
        <ele>1834.33</ele>
        <time>2026-08-30T09:27:33Z</time>
      </trkpt>
      <trkpt lat="45.42657" lon="5.90387">
        <ele>1834.33</ele>
        <time>2026-08-30T09:27:47Z</time>
      </trkpt>
      <trkpt lat="45.42656" lon="5.90388">
        <ele>1834.33</ele>
        <time>2026-08-30T09:27:56Z</time>
      </trkpt>
      <trkpt lat="45.42647" lon="5.90385">
        <ele>1834.33</ele>
        <time>2026-08-30T09:28:08Z</time>
      </trkpt>
      <trkpt lat="45.42646" lon="5.90385">
        <ele>1834.33</ele>
        <time>2026-08-30T09:28:09Z</time>
      </trkpt>
      <trkpt lat="45.42631" lon="5.90382">
        <ele>1833.85</ele>
        <time>2026-08-30T09:28:27Z</time>
      </trkpt>
      <trkpt lat="45.42618" lon="5.90388">
        <ele>1835.29</ele>
        <time>2026-08-30T09:28:43Z</time>
      </trkpt>
      <trkpt lat="45.42614" lon="5.90393">
        <ele>1836.26</ele>
        <time>2026-08-30T09:28:49Z</time>
      </trkpt>
      <trkpt lat="45.4261" lon="5.90396">
        <ele>1836.26</ele>
        <time>2026-08-30T09:28:53Z</time>
      </trkpt>
      <trkpt lat="45.42598" lon="5.904">
        <ele>1837.7</ele>
        <time>2026-08-30T09:29:09Z</time>
      </trkpt>
      <trkpt lat="45.42596" lon="5.90401">
        <ele>1837.22</ele>
        <time>2026-08-30T09:29:11Z</time>
      </trkpt>
      <trkpt lat="45.42588" lon="5.90402">
        <ele>1837.7</ele>
        <time>2026-08-30T09:29:20Z</time>
      </trkpt>
      <trkpt lat="45.42585" lon="5.90402">
        <ele>1837.7</ele>
        <time>2026-08-30T09:29:22Z</time>
      </trkpt>
      <trkpt lat="45.42574" lon="5.90407">
        <ele>1838.18</ele>
        <time>2026-08-30T09:29:36Z</time>
      </trkpt>
      <trkpt lat="45.42572" lon="5.9041">
        <ele>1837.7</ele>
        <time>2026-08-30T09:29:51Z</time>
      </trkpt>
      <trkpt lat="45.42571" lon="5.90407">
        <ele>1838.18</ele>
        <time>2026-08-30T09:29:59Z</time>
      </trkpt>
      <trkpt lat="45.42561" lon="5.90405">
        <ele>1838.66</ele>
        <time>2026-08-30T09:30:11Z</time>
      </trkpt>
      <trkpt lat="45.42553" lon="5.90404">
        <ele>1839.62</ele>
        <time>2026-08-30T09:30:27Z</time>
      </trkpt>
      <trkpt lat="45.42544" lon="5.90405">
        <ele>1839.14</ele>
        <time>2026-08-30T09:30:39Z</time>
      </trkpt>
      <trkpt lat="45.42539" lon="5.90409">
        <ele>1839.62</ele>
        <time>2026-08-30T09:30:52Z</time>
      </trkpt>
      <trkpt lat="45.42533" lon="5.90408">
        <ele>1840.1</ele>
        <time>2026-08-30T09:31:05Z</time>
      </trkpt>
      <trkpt lat="45.42528" lon="5.90406">
        <ele>1840.1</ele>
        <time>2026-08-30T09:31:17Z</time>
      </trkpt>
      <trkpt lat="45.4253" lon="5.90418">
        <ele>1839.14</ele>
        <time>2026-08-30T09:31:31Z</time>
      </trkpt>
      <trkpt lat="45.42534" lon="5.90429">
        <ele>1837.22</ele>
        <time>2026-08-30T09:31:47Z</time>
      </trkpt>
      <trkpt lat="45.42534" lon="5.90439">
        <ele>1835.77</ele>
        <time>2026-08-30T09:32:01Z</time>
      </trkpt>
      <trkpt lat="45.42538" lon="5.90453">
        <ele>1834.81</ele>
        <time>2026-08-30T09:32:15Z</time>
      </trkpt>
      <trkpt lat="45.42539" lon="5.90456">
        <ele>1833.85</ele>
        <time>2026-08-30T09:32:29Z</time>
      </trkpt>
      <trkpt lat="45.42537" lon="5.90455">
        <ele>1833.85</ele>
        <time>2026-08-30T09:32:33Z</time>
      </trkpt>
      <trkpt lat="45.42533" lon="5.90461">
        <ele>1833.85</ele>
        <time>2026-08-30T09:32:48Z</time>
      </trkpt>
      <trkpt lat="45.42534" lon="5.90463">
        <ele>1833.85</ele>
        <time>2026-08-30T09:33:08Z</time>
      </trkpt>
      <trkpt lat="45.42537" lon="5.90458">
        <ele>1834.33</ele>
        <time>2026-08-30T09:33:22Z</time>
      </trkpt>
      <trkpt lat="45.42536" lon="5.90456">
        <ele>1834.33</ele>
        <time>2026-08-30T09:33:33Z</time>
      </trkpt>
      <trkpt lat="45.42534" lon="5.90443">
        <ele>1835.29</ele>
        <time>2026-08-30T09:33:49Z</time>
      </trkpt>
      <trkpt lat="45.42534" lon="5.90432">
        <ele>1837.7</ele>
        <time>2026-08-30T09:34:03Z</time>
      </trkpt>
      <trkpt lat="45.42534" lon="5.90431">
        <ele>1838.18</ele>
        <time>2026-08-30T09:34:15Z</time>
      </trkpt>
      <trkpt lat="45.42533" lon="5.90429">
        <ele>1837.7</ele>
        <time>2026-08-30T09:34:33Z</time>
      </trkpt>
      <trkpt lat="45.42535" lon="5.90437">
        <ele>1836.74</ele>
        <time>2026-08-30T09:34:45Z</time>
      </trkpt>
      <trkpt lat="45.42536" lon="5.90442">
        <ele>1835.77</ele>
        <time>2026-08-30T09:34:52Z</time>
      </trkpt>
      <trkpt lat="45.42537" lon="5.90454">
        <ele>1834.33</ele>
        <time>2026-08-30T09:35:02Z</time>
      </trkpt>
      <trkpt lat="45.42539" lon="5.90463">
        <ele>1833.85</ele>
        <time>2026-08-30T09:35:15Z</time>
      </trkpt>
      <trkpt lat="45.42533" lon="5.90462">
        <ele>1833.85</ele>
        <time>2026-08-30T09:35:27Z</time>
      </trkpt>
      <trkpt lat="45.42526" lon="5.90468">
        <ele>1833.85</ele>
        <time>2026-08-30T09:35:41Z</time>
      </trkpt>
      <trkpt lat="45.42521" lon="5.90474">
        <ele>1832.89</ele>
        <time>2026-08-30T09:35:58Z</time>
      </trkpt>
      <trkpt lat="45.42517" lon="5.90481">
        <ele>1832.41</ele>
        <time>2026-08-30T09:36:11Z</time>
      </trkpt>
      <trkpt lat="45.42516" lon="5.90483">
        <ele>1832.41</ele>
        <time>2026-08-30T09:36:27Z</time>
      </trkpt>
      <trkpt lat="45.42511" lon="5.90483">
        <ele>1832.41</ele>
        <time>2026-08-30T09:36:41Z</time>
      </trkpt>
      <trkpt lat="45.42511" lon="5.90478">
        <ele>1833.85</ele>
        <time>2026-08-30T09:36:58Z</time>
      </trkpt>
      <trkpt lat="45.42511" lon="5.90479">
        <ele>1833.85</ele>
        <time>2026-08-30T09:37:15Z</time>
      </trkpt>
      <trkpt lat="45.42514" lon="5.90489">
        <ele>1832.89</ele>
        <time>2026-08-30T09:37:29Z</time>
      </trkpt>
      <trkpt lat="45.42515" lon="5.90497">
        <ele>1831.93</ele>
        <time>2026-08-30T09:37:37Z</time>
      </trkpt>
      <trkpt lat="45.42519" lon="5.90509">
        <ele>1831.45</ele>
        <time>2026-08-30T09:37:50Z</time>
      </trkpt>
      <trkpt lat="45.42525" lon="5.90517">
        <ele>1830.97</ele>
        <time>2026-08-30T09:38:03Z</time>
      </trkpt>
      <trkpt lat="45.42523" lon="5.90527">
        <ele>1830.01</ele>
        <time>2026-08-30T09:38:16Z</time>
      </trkpt>
      <trkpt lat="45.42519" lon="5.90539">
        <ele>1828.56</ele>
        <time>2026-08-30T09:38:30Z</time>
      </trkpt>
      <trkpt lat="45.42518" lon="5.9055">
        <ele>1827.12</ele>
        <time>2026-08-30T09:38:46Z</time>
      </trkpt>
      <trkpt lat="45.42518" lon="5.90551">
        <ele>1827.6</ele>
        <time>2026-08-30T09:38:47Z</time>
      </trkpt>
      <trkpt lat="45.42522" lon="5.90565">
        <ele>1826.64</ele>
        <time>2026-08-30T09:39:01Z</time>
      </trkpt>
      <trkpt lat="45.42522" lon="5.90576">
        <ele>1825.68</ele>
        <time>2026-08-30T09:39:16Z</time>
      </trkpt>
      <trkpt lat="45.4252" lon="5.90581">
        <ele>1825.2</ele>
        <time>2026-08-30T09:39:24Z</time>
      </trkpt>
      <trkpt lat="45.42519" lon="5.90581">
        <ele>1825.2</ele>
        <time>2026-08-30T09:39:26Z</time>
      </trkpt>
      <trkpt lat="45.42518" lon="5.90583">
        <ele>1825.2</ele>
        <time>2026-08-30T09:39:28Z</time>
      </trkpt>
      <trkpt lat="45.42521" lon="5.90583">
        <ele>1825.2</ele>
        <time>2026-08-30T09:39:43Z</time>
      </trkpt>
      <trkpt lat="45.42525" lon="5.90577">
        <ele>1825.68</ele>
        <time>2026-08-30T09:39:54Z</time>
      </trkpt>
      <trkpt lat="45.42526" lon="5.90575">
        <ele>1826.16</ele>
        <time>2026-08-30T09:40:10Z</time>
      </trkpt>
      <trkpt lat="45.42529" lon="5.90567">
        <ele>1827.12</ele>
        <time>2026-08-30T09:40:21Z</time>
      </trkpt>
      <trkpt lat="45.42528" lon="5.90557">
        <ele>1827.6</ele>
        <time>2026-08-30T09:40:29Z</time>
      </trkpt>
      <trkpt lat="45.42524" lon="5.90544">
        <ele>1828.08</ele>
        <time>2026-08-30T09:40:43Z</time>
      </trkpt>
      <trkpt lat="45.42526" lon="5.90536">
        <ele>1829.53</ele>
        <time>2026-08-30T09:40:51Z</time>
      </trkpt>
      <trkpt lat="45.4253" lon="5.90522">
        <ele>1830.97</ele>
        <time>2026-08-30T09:41:06Z</time>
      </trkpt>
      <trkpt lat="45.4253" lon="5.90521">
        <ele>1831.45</ele>
        <time>2026-08-30T09:41:07Z</time>
      </trkpt>
      <trkpt lat="45.42524" lon="5.9051">
        <ele>1832.41</ele>
        <time>2026-08-30T09:41:21Z</time>
      </trkpt>
      <trkpt lat="45.42523" lon="5.90509">
        <ele>1831.93</ele>
        <time>2026-08-30T09:41:22Z</time>
      </trkpt>
      <trkpt lat="45.42521" lon="5.90506">
        <ele>1831.93</ele>
        <time>2026-08-30T09:41:25Z</time>
      </trkpt>
      <trkpt lat="45.42524" lon="5.90501">
        <ele>1833.37</ele>
        <time>2026-08-30T09:41:38Z</time>
      </trkpt>
      <trkpt lat="45.42528" lon="5.90494">
        <ele>1833.85</ele>
        <time>2026-08-30T09:41:53Z</time>
      </trkpt>
      <trkpt lat="45.42535" lon="5.90483">
        <ele>1833.85</ele>
        <time>2026-08-30T09:42:08Z</time>
      </trkpt>
      <trkpt lat="45.42533" lon="5.90473">
        <ele>1834.33</ele>
        <time>2026-08-30T09:42:19Z</time>
      </trkpt>
      <trkpt lat="45.42533" lon="5.90462">
        <ele>1834.81</ele>
        <time>2026-08-30T09:42:32Z</time>
      </trkpt>
      <trkpt lat="45.42534" lon="5.90457">
        <ele>1835.77</ele>
        <time>2026-08-30T09:42:41Z</time>
      </trkpt>
      <trkpt lat="45.42536" lon="5.90445">
        <ele>1836.74</ele>
        <time>2026-08-30T09:42:55Z</time>
      </trkpt>
      <trkpt lat="45.42535" lon="5.90433">
        <ele>1839.14</ele>
        <time>2026-08-30T09:43:09Z</time>
      </trkpt>
      <trkpt lat="45.42535" lon="5.90417">
        <ele>1841.06</ele>
        <time>2026-08-30T09:43:23Z</time>
      </trkpt>
      <trkpt lat="45.42526" lon="5.90406">
        <ele>1842.02</ele>
        <time>2026-08-30T09:43:38Z</time>
      </trkpt>
      <trkpt lat="45.42521" lon="5.90402">
        <ele>1842.5</ele>
        <time>2026-08-30T09:43:52Z</time>
      </trkpt>
      <trkpt lat="45.42522" lon="5.90393">
        <ele>1844.43</ele>
        <time>2026-08-30T09:44:05Z</time>
      </trkpt>
      <trkpt lat="45.42515" lon="5.9039">
        <ele>1844.91</ele>
        <time>2026-08-30T09:44:20Z</time>
      </trkpt>
      <trkpt lat="45.42515" lon="5.9039">
        <ele>1845.39</ele>
        <time>2026-08-30T09:44:21Z</time>
      </trkpt>
      <trkpt lat="45.42502" lon="5.90382">
        <ele>1846.35</ele>
        <time>2026-08-30T09:44:36Z</time>
      </trkpt>
      <trkpt lat="45.42494" lon="5.9038">
        <ele>1846.35</ele>
        <time>2026-08-30T09:44:48Z</time>
      </trkpt>
      <trkpt lat="45.42482" lon="5.90382">
        <ele>1846.35</ele>
        <time>2026-08-30T09:45:03Z</time>
      </trkpt>
      <trkpt lat="45.42474" lon="5.90377">
        <ele>1846.83</ele>
        <time>2026-08-30T09:45:17Z</time>
      </trkpt>
      <trkpt lat="45.42471" lon="5.90375">
        <ele>1846.83</ele>
        <time>2026-08-30T09:45:33Z</time>
      </trkpt>
      <trkpt lat="45.42467" lon="5.90371">
        <ele>1847.31</ele>
        <time>2026-08-30T09:45:45Z</time>
      </trkpt>
      <trkpt lat="45.42459" lon="5.90365">
        <ele>1848.27</ele>
        <time>2026-08-30T09:45:58Z</time>
      </trkpt>
      <trkpt lat="45.42456" lon="5.90366">
        <ele>1848.75</ele>
        <time>2026-08-30T09:46:14Z</time>
      </trkpt>
      <trkpt lat="45.42459" lon="5.90368">
        <ele>1848.27</ele>
        <time>2026-08-30T09:46:29Z</time>
      </trkpt>
      <trkpt lat="45.42467" lon="5.90376">
        <ele>1847.31</ele>
        <time>2026-08-30T09:46:43Z</time>
      </trkpt>
      <trkpt lat="45.42468" lon="5.90376">
        <ele>1847.31</ele>
        <time>2026-08-30T09:46:57Z</time>
      </trkpt>
      <trkpt lat="45.42464" lon="5.90368">
        <ele>1847.79</ele>
        <time>2026-08-30T09:47:05Z</time>
      </trkpt>
      <trkpt lat="45.42459" lon="5.90359">
        <ele>1849.71</ele>
        <time>2026-08-30T09:47:19Z</time>
      </trkpt>
      <trkpt lat="45.42455" lon="5.90347">
        <ele>1851.16</ele>
        <time>2026-08-30T09:47:34Z</time>
      </trkpt>
      <trkpt lat="45.42445" lon="5.90346">
        <ele>1852.12</ele>
        <time>2026-08-30T09:47:49Z</time>
      </trkpt>
      <trkpt lat="45.42438" lon="5.90335">
        <ele>1853.08</ele>
        <time>2026-08-30T09:48:05Z</time>
      </trkpt>
      <trkpt lat="45.42437" lon="5.90335">
        <ele>1853.56</ele>
        <time>2026-08-30T09:48:16Z</time>
      </trkpt>
      <trkpt lat="45.42432" lon="5.90331">
        <ele>1853.56</ele>
        <time>2026-08-30T09:48:32Z</time>
      </trkpt>
      <trkpt lat="45.42436" lon="5.9033">
        <ele>1852.6</ele>
        <time>2026-08-30T09:48:45Z</time>
      </trkpt>
      <trkpt lat="45.42425" lon="5.90317">
        <ele>1853.08</ele>
        <time>2026-08-30T09:49:02Z</time>
      </trkpt>
      <trkpt lat="45.42416" lon="5.90311">
        <ele>1854.04</ele>
        <time>2026-08-30T09:49:17Z</time>
      </trkpt>
      <trkpt lat="45.42403" lon="5.90302">
        <ele>1855.96</ele>
        <time>2026-08-30T09:49:36Z</time>
      </trkpt>
      <trkpt lat="45.42393" lon="5.90302">
        <ele>1855.48</ele>
        <time>2026-08-30T09:49:50Z</time>
      </trkpt>
      <trkpt lat="45.42388" lon="5.90301">
        <ele>1855</ele>
        <time>2026-08-30T09:50:04Z</time>
      </trkpt>
      <trkpt lat="45.42387" lon="5.90301">
        <ele>1855</ele>
        <time>2026-08-30T09:50:14Z</time>
      </trkpt>
      <trkpt lat="45.42385" lon="5.903">
        <ele>1855.48</ele>
        <time>2026-08-30T09:50:16Z</time>
      </trkpt>
      <trkpt lat="45.42378" lon="5.903">
        <ele>1855</ele>
        <time>2026-08-30T09:50:30Z</time>
      </trkpt>
      <trkpt lat="45.42378" lon="5.9031">
        <ele>1853.08</ele>
        <time>2026-08-30T09:50:43Z</time>
      </trkpt>
      <trkpt lat="45.42374" lon="5.90318">
        <ele>1852.6</ele>
        <time>2026-08-30T09:50:55Z</time>
      </trkpt>
      <trkpt lat="45.4237" lon="5.90317">
        <ele>1852.12</ele>
        <time>2026-08-30T09:51:02Z</time>
      </trkpt>
      <trkpt lat="45.42364" lon="5.90312">
        <ele>1853.56</ele>
        <time>2026-08-30T09:51:17Z</time>
      </trkpt>
      <trkpt lat="45.42362" lon="5.90309">
        <ele>1854.52</ele>
        <time>2026-08-30T09:51:29Z</time>
      </trkpt>
      <trkpt lat="45.42361" lon="5.90312">
        <ele>1854.04</ele>
        <time>2026-08-30T09:51:40Z</time>
      </trkpt>
      <trkpt lat="45.42355" lon="5.90317">
        <ele>1852.6</ele>
        <time>2026-08-30T09:51:54Z</time>
      </trkpt>
      <trkpt lat="45.42344" lon="5.90312">
        <ele>1853.08</ele>
        <time>2026-08-30T09:52:09Z</time>
      </trkpt>
      <trkpt lat="45.42343" lon="5.90311">
        <ele>1852.12</ele>
        <time>2026-08-30T09:52:25Z</time>
      </trkpt>
      <trkpt lat="45.42341" lon="5.90311">
        <ele>1852.6</ele>
        <time>2026-08-30T09:52:39Z</time>
      </trkpt>
      <trkpt lat="45.42336" lon="5.90306">
        <ele>1854.04</ele>
        <time>2026-08-30T09:52:54Z</time>
      </trkpt>
      <trkpt lat="45.42334" lon="5.90312">
        <ele>1853.08</ele>
        <time>2026-08-30T09:53:10Z</time>
      </trkpt>
      <trkpt lat="45.42327" lon="5.9032">
        <ele>1851.64</ele>
        <time>2026-08-30T09:53:24Z</time>
      </trkpt>
      <trkpt lat="45.42326" lon="5.90324">
        <ele>1851.16</ele>
        <time>2026-08-30T09:53:28Z</time>
      </trkpt>
      <trkpt lat="45.42322" lon="5.90327">
        <ele>1850.68</ele>
        <time>2026-08-30T09:53:42Z</time>
      </trkpt>
      <trkpt lat="45.42319" lon="5.90326">
        <ele>1850.68</ele>
        <time>2026-08-30T09:54:00Z</time>
      </trkpt>
      <trkpt lat="45.42318" lon="5.90327">
        <ele>1850.19</ele>
        <time>2026-08-30T09:54:03Z</time>
      </trkpt>
      <trkpt lat="45.42312" lon="5.90325">
        <ele>1850.68</ele>
        <time>2026-08-30T09:54:13Z</time>
      </trkpt>
      <trkpt lat="45.42299" lon="5.90319">
        <ele>1850.68</ele>
        <time>2026-08-30T09:54:29Z</time>
      </trkpt>
      <trkpt lat="45.42298" lon="5.90319">
        <ele>1850.68</ele>
        <time>2026-08-30T09:54:30Z</time>
      </trkpt>
      <trkpt lat="45.42296" lon="5.90318">
        <ele>1851.16</ele>
        <time>2026-08-30T09:54:32Z</time>
      </trkpt>
      <trkpt lat="45.42286" lon="5.90313">
        <ele>1851.64</ele>
        <time>2026-08-30T09:54:47Z</time>
      </trkpt>
      <trkpt lat="45.42283" lon="5.90306">
        <ele>1852.6</ele>
        <time>2026-08-30T09:55:01Z</time>
      </trkpt>
      <trkpt lat="45.42274" lon="5.90307">
        <ele>1852.12</ele>
        <time>2026-08-30T09:55:13Z</time>
      </trkpt>
      <trkpt lat="45.42273" lon="5.90309">
        <ele>1851.64</ele>
        <time>2026-08-30T09:55:16Z</time>
      </trkpt>
      <trkpt lat="45.42264" lon="5.90307">
        <ele>1851.64</ele>
        <time>2026-08-30T09:55:28Z</time>
      </trkpt>
      <trkpt lat="45.42262" lon="5.90305">
        <ele>1851.16</ele>
        <time>2026-08-30T09:55:31Z</time>
      </trkpt>
      <trkpt lat="45.42257" lon="5.90298">
        <ele>1852.12</ele>
        <time>2026-08-30T09:55:45Z</time>
      </trkpt>
      <trkpt lat="45.42245" lon="5.90293">
        <ele>1851.64</ele>
        <time>2026-08-30T09:56:02Z</time>
      </trkpt>
      <trkpt lat="45.42239" lon="5.90289">
        <ele>1852.6</ele>
        <time>2026-08-30T09:56:16Z</time>
      </trkpt>
      <trkpt lat="45.42228" lon="5.90288">
        <ele>1852.12</ele>
        <time>2026-08-30T09:56:29Z</time>
      </trkpt>
      <trkpt lat="45.4222" lon="5.90282">
        <ele>1853.56</ele>
        <time>2026-08-30T09:56:42Z</time>
      </trkpt>
      <trkpt lat="45.42211" lon="5.90277">
        <ele>1854.52</ele>
        <time>2026-08-30T09:56:54Z</time>
      </trkpt>
      <trkpt lat="45.4221" lon="5.90276">
        <ele>1854.04</ele>
        <time>2026-08-30T09:56:55Z</time>
      </trkpt>
      <trkpt lat="45.42199" lon="5.90272">
        <ele>1854.04</ele>
        <time>2026-08-30T09:57:09Z</time>
      </trkpt>
      <trkpt lat="45.42196" lon="5.90269">
        <ele>1854.52</ele>
        <time>2026-08-30T09:57:14Z</time>
      </trkpt>
      <trkpt lat="45.42192" lon="5.90261">
        <ele>1855.48</ele>
        <time>2026-08-30T09:57:29Z</time>
      </trkpt>
      <trkpt lat="45.42192" lon="5.9026">
        <ele>1855.48</ele>
        <time>2026-08-30T09:57:49Z</time>
      </trkpt>
      <trkpt lat="45.42192" lon="5.90261">
        <ele>1855.48</ele>
        <time>2026-08-30T09:58:11Z</time>
      </trkpt>
      <trkpt lat="45.42188" lon="5.90262">
        <ele>1855</ele>
        <time>2026-08-30T09:58:16Z</time>
      </trkpt>
      <trkpt lat="45.42176" lon="5.90265">
        <ele>1852.6</ele>
        <time>2026-08-30T09:58:31Z</time>
      </trkpt>
      <trkpt lat="45.42165" lon="5.90267">
        <ele>1851.64</ele>
        <time>2026-08-30T09:58:44Z</time>
      </trkpt>
      <trkpt lat="45.42159" lon="5.90266">
        <ele>1850.68</ele>
        <time>2026-08-30T09:58:53Z</time>
      </trkpt>
      <trkpt lat="45.42147" lon="5.90263">
        <ele>1849.23</ele>
        <time>2026-08-30T09:59:07Z</time>
      </trkpt>
      <trkpt lat="45.42144" lon="5.90262">
        <ele>1848.75</ele>
        <time>2026-08-30T09:59:11Z</time>
      </trkpt>
      <trkpt lat="45.42134" lon="5.90253">
        <ele>1845.87</ele>
        <time>2026-08-30T09:59:24Z</time>
      </trkpt>
      <trkpt lat="45.42122" lon="5.90246">
        <ele>1845.39</ele>
        <time>2026-08-30T09:59:37Z</time>
      </trkpt>
      <trkpt lat="45.42104" lon="5.90245">
        <ele>1845.39</ele>
        <time>2026-08-30T09:59:55Z</time>
      </trkpt>
      <trkpt lat="45.42089" lon="5.90246">
        <ele>1844.91</ele>
        <time>2026-08-30T10:00:10Z</time>
      </trkpt>
      <trkpt lat="45.42087" lon="5.90245">
        <ele>1844.91</ele>
        <time>2026-08-30T10:00:12Z</time>
      </trkpt>
      <trkpt lat="45.42083" lon="5.90238">
        <ele>1843.95</ele>
        <time>2026-08-30T10:00:19Z</time>
      </trkpt>
      <trkpt lat="45.42074" lon="5.90235">
        <ele>1843.47</ele>
        <time>2026-08-30T10:00:30Z</time>
      </trkpt>
      <trkpt lat="45.42071" lon="5.90233">
        <ele>1843.47</ele>
        <time>2026-08-30T10:00:34Z</time>
      </trkpt>
      <trkpt lat="45.42057" lon="5.90236">
        <ele>1843.47</ele>
        <time>2026-08-30T10:00:49Z</time>
      </trkpt>
      <trkpt lat="45.42047" lon="5.90239">
        <ele>1844.43</ele>
        <time>2026-08-30T10:01:00Z</time>
      </trkpt>
      <trkpt lat="45.42036" lon="5.90236">
        <ele>1844.91</ele>
        <time>2026-08-30T10:01:14Z</time>
      </trkpt>
      <trkpt lat="45.42032" lon="5.90238">
        <ele>1844.91</ele>
        <time>2026-08-30T10:01:19Z</time>
      </trkpt>
      <trkpt lat="45.42019" lon="5.90244">
        <ele>1844.43</ele>
        <time>2026-08-30T10:01:34Z</time>
      </trkpt>
      <trkpt lat="45.42012" lon="5.90244">
        <ele>1844.43</ele>
        <time>2026-08-30T10:01:42Z</time>
      </trkpt>
      <trkpt lat="45.42004" lon="5.90243">
        <ele>1843.47</ele>
        <time>2026-08-30T10:01:51Z</time>
      </trkpt>
      <trkpt lat="45.41991" lon="5.90242">
        <ele>1842.5</ele>
        <time>2026-08-30T10:02:06Z</time>
      </trkpt>
      <trkpt lat="45.41983" lon="5.90242">
        <ele>1841.54</ele>
        <time>2026-08-30T10:02:15Z</time>
      </trkpt>
      <trkpt lat="45.41975" lon="5.90252">
        <ele>1840.58</ele>
        <time>2026-08-30T10:02:26Z</time>
      </trkpt>
      <trkpt lat="45.41967" lon="5.90254">
        <ele>1839.62</ele>
        <time>2026-08-30T10:02:36Z</time>
      </trkpt>
      <trkpt lat="45.41964" lon="5.90252">
        <ele>1839.62</ele>
        <time>2026-08-30T10:02:41Z</time>
      </trkpt>
      <trkpt lat="45.41957" lon="5.90254">
        <ele>1840.1</ele>
        <time>2026-08-30T10:02:50Z</time>
      </trkpt>
      <trkpt lat="45.41945" lon="5.90252">
        <ele>1840.1</ele>
        <time>2026-08-30T10:03:03Z</time>
      </trkpt>
      <trkpt lat="45.41931" lon="5.90249">
        <ele>1839.62</ele>
        <time>2026-08-30T10:03:18Z</time>
      </trkpt>
      <trkpt lat="45.41926" lon="5.90248">
        <ele>1839.14</ele>
        <time>2026-08-30T10:03:22Z</time>
      </trkpt>
      <trkpt lat="45.41922" lon="5.90248">
        <ele>1839.14</ele>
        <time>2026-08-30T10:03:26Z</time>
      </trkpt>
      <trkpt lat="45.41908" lon="5.90246">
        <ele>1837.7</ele>
        <time>2026-08-30T10:03:41Z</time>
      </trkpt>
      <trkpt lat="45.419" lon="5.90247">
        <ele>1836.26</ele>
        <time>2026-08-30T10:03:55Z</time>
      </trkpt>
      <trkpt lat="45.41894" lon="5.90254">
        <ele>1834.81</ele>
        <time>2026-08-30T10:04:08Z</time>
      </trkpt>
      <trkpt lat="45.41893" lon="5.90254">
        <ele>1834.33</ele>
        <time>2026-08-30T10:04:10Z</time>
      </trkpt>
      <trkpt lat="45.41885" lon="5.90248">
        <ele>1835.77</ele>
        <time>2026-08-30T10:04:24Z</time>
      </trkpt>
      <trkpt lat="45.41877" lon="5.90242">
        <ele>1836.74</ele>
        <time>2026-08-30T10:04:38Z</time>
      </trkpt>
      <trkpt lat="45.41874" lon="5.90238">
        <ele>1837.22</ele>
        <time>2026-08-30T10:04:43Z</time>
      </trkpt>
      <trkpt lat="45.41861" lon="5.90228">
        <ele>1837.7</ele>
        <time>2026-08-30T10:05:00Z</time>
      </trkpt>
      <trkpt lat="45.41856" lon="5.90222">
        <ele>1838.66</ele>
        <time>2026-08-30T10:05:08Z</time>
      </trkpt>
      <trkpt lat="45.41853" lon="5.9022">
        <ele>1838.66</ele>
        <time>2026-08-30T10:05:12Z</time>
      </trkpt>
      <trkpt lat="45.4184" lon="5.90213">
        <ele>1838.66</ele>
        <time>2026-08-30T10:05:27Z</time>
      </trkpt>
      <trkpt lat="45.41834" lon="5.90218">
        <ele>1837.22</ele>
        <time>2026-08-30T10:05:39Z</time>
      </trkpt>
      <trkpt lat="45.41832" lon="5.90222">
        <ele>1836.74</ele>
        <time>2026-08-30T10:05:44Z</time>
      </trkpt>
      <trkpt lat="45.41821" lon="5.90219">
        <ele>1836.74</ele>
        <time>2026-08-30T10:05:58Z</time>
      </trkpt>
      <trkpt lat="45.41817" lon="5.90221">
        <ele>1836.74</ele>
        <time>2026-08-30T10:06:03Z</time>
      </trkpt>
      <trkpt lat="45.41808" lon="5.90229">
        <ele>1836.74</ele>
        <time>2026-08-30T10:06:15Z</time>
      </trkpt>
      <trkpt lat="45.41804" lon="5.9023">
        <ele>1836.74</ele>
        <time>2026-08-30T10:06:20Z</time>
      </trkpt>
      <trkpt lat="45.41791" lon="5.90234">
        <ele>1836.74</ele>
        <time>2026-08-30T10:06:34Z</time>
      </trkpt>
      <trkpt lat="45.4179" lon="5.90235">
        <ele>1837.22</ele>
        <time>2026-08-30T10:06:36Z</time>
      </trkpt>
      <trkpt lat="45.41781" lon="5.90236">
        <ele>1836.74</ele>
        <time>2026-08-30T10:06:46Z</time>
      </trkpt>
      <trkpt lat="45.41774" lon="5.90235">
        <ele>1836.26</ele>
        <time>2026-08-30T10:06:53Z</time>
      </trkpt>
      <trkpt lat="45.41761" lon="5.90237">
        <ele>1836.26</ele>
        <time>2026-08-30T10:07:08Z</time>
      </trkpt>
      <trkpt lat="45.41752" lon="5.9024">
        <ele>1837.22</ele>
        <time>2026-08-30T10:07:26Z</time>
      </trkpt>
      <trkpt lat="45.41739" lon="5.90243">
        <ele>1836.26</ele>
        <time>2026-08-30T10:07:41Z</time>
      </trkpt>
      <trkpt lat="45.41739" lon="5.90243">
        <ele>1835.77</ele>
        <time>2026-08-30T10:07:42Z</time>
      </trkpt>
      <trkpt lat="45.41724" lon="5.9024">
        <ele>1834.81</ele>
        <time>2026-08-30T10:07:58Z</time>
      </trkpt>
      <trkpt lat="45.41719" lon="5.90242">
        <ele>1834.33</ele>
        <time>2026-08-30T10:08:04Z</time>
      </trkpt>
      <trkpt lat="45.41714" lon="5.90244">
        <ele>1834.33</ele>
        <time>2026-08-30T10:08:11Z</time>
      </trkpt>
      <trkpt lat="45.41712" lon="5.90245">
        <ele>1834.33</ele>
        <time>2026-08-30T10:08:14Z</time>
      </trkpt>
      <trkpt lat="45.41703" lon="5.90248">
        <ele>1834.81</ele>
        <time>2026-08-30T10:08:26Z</time>
      </trkpt>
      <trkpt lat="45.417" lon="5.90245">
        <ele>1834.33</ele>
        <time>2026-08-30T10:08:30Z</time>
      </trkpt>
      <trkpt lat="45.41687" lon="5.90242">
        <ele>1833.85</ele>
        <time>2026-08-30T10:08:45Z</time>
      </trkpt>
      <trkpt lat="45.41687" lon="5.90242">
        <ele>1833.85</ele>
        <time>2026-08-30T10:08:46Z</time>
      </trkpt>
      <trkpt lat="45.41673" lon="5.90241">
        <ele>1835.29</ele>
        <time>2026-08-30T10:09:02Z</time>
      </trkpt>
      <trkpt lat="45.41663" lon="5.90242">
        <ele>1836.26</ele>
        <time>2026-08-30T10:09:16Z</time>
      </trkpt>
      <trkpt lat="45.41658" lon="5.9024">
        <ele>1836.74</ele>
        <time>2026-08-30T10:09:23Z</time>
      </trkpt>
      <trkpt lat="45.41652" lon="5.90232">
        <ele>1838.18</ele>
        <time>2026-08-30T10:09:38Z</time>
      </trkpt>
      <trkpt lat="45.41645" lon="5.90222">
        <ele>1839.14</ele>
        <time>2026-08-30T10:09:49Z</time>
      </trkpt>
      <trkpt lat="45.41636" lon="5.90225">
        <ele>1838.66</ele>
        <time>2026-08-30T10:10:04Z</time>
      </trkpt>
      <trkpt lat="45.4163" lon="5.90229">
        <ele>1838.18</ele>
        <time>2026-08-30T10:10:13Z</time>
      </trkpt>
      <trkpt lat="45.41617" lon="5.90227">
        <ele>1839.14</ele>
        <time>2026-08-30T10:10:30Z</time>
      </trkpt>
      <trkpt lat="45.41608" lon="5.9023">
        <ele>1837.7</ele>
        <time>2026-08-30T10:10:45Z</time>
      </trkpt>
      <trkpt lat="45.41599" lon="5.90231">
        <ele>1837.7</ele>
        <time>2026-08-30T10:10:58Z</time>
      </trkpt>
      <trkpt lat="45.41584" lon="5.90229">
        <ele>1837.22</ele>
        <time>2026-08-30T10:11:13Z</time>
      </trkpt>
      <trkpt lat="45.41575" lon="5.90229">
        <ele>1837.22</ele>
        <time>2026-08-30T10:11:26Z</time>
      </trkpt>
      <trkpt lat="45.41571" lon="5.90233">
        <ele>1836.26</ele>
        <time>2026-08-30T10:11:40Z</time>
      </trkpt>
      <trkpt lat="45.41567" lon="5.90233">
        <ele>1835.77</ele>
        <time>2026-08-30T10:11:47Z</time>
      </trkpt>
      <trkpt lat="45.41561" lon="5.90233">
        <ele>1836.74</ele>
        <time>2026-08-30T10:12:00Z</time>
      </trkpt>
      <trkpt lat="45.41559" lon="5.90231">
        <ele>1837.7</ele>
        <time>2026-08-30T10:12:14Z</time>
      </trkpt>
      <trkpt lat="45.4155" lon="5.90228">
        <ele>1838.18</ele>
        <time>2026-08-30T10:12:33Z</time>
      </trkpt>
      <trkpt lat="45.41545" lon="5.90225">
        <ele>1837.7</ele>
        <time>2026-08-30T10:12:51Z</time>
      </trkpt>
      <trkpt lat="45.41543" lon="5.90224">
        <ele>1838.66</ele>
        <time>2026-08-30T10:13:10Z</time>
      </trkpt>
      <trkpt lat="45.41538" lon="5.90221">
        <ele>1839.14</ele>
        <time>2026-08-30T10:13:29Z</time>
      </trkpt>
      <trkpt lat="45.41535" lon="5.90219">
        <ele>1839.14</ele>
        <time>2026-08-30T10:13:45Z</time>
      </trkpt>
      <trkpt lat="45.41531" lon="5.90217">
        <ele>1838.66</ele>
        <time>2026-08-30T10:14:01Z</time>
      </trkpt>
      <trkpt lat="45.41527" lon="5.90216">
        <ele>1840.1</ele>
        <time>2026-08-30T10:14:17Z</time>
      </trkpt>
      <trkpt lat="45.41518" lon="5.90213">
        <ele>1840.58</ele>
        <time>2026-08-30T10:14:33Z</time>
      </trkpt>
      <trkpt lat="45.41512" lon="5.90212">
        <ele>1840.1</ele>
        <time>2026-08-30T10:14:49Z</time>
      </trkpt>
      <trkpt lat="45.41508" lon="5.90213">
        <ele>1839.62</ele>
        <time>2026-08-30T10:15:05Z</time>
      </trkpt>
      <trkpt lat="45.41508" lon="5.90213">
        <ele>1840.58</ele>
        <time>2026-08-30T10:15:13Z</time>
      </trkpt>
      <trkpt lat="45.41503" lon="5.90219">
        <ele>1839.14</ele>
        <time>2026-08-30T10:15:27Z</time>
      </trkpt>
      <trkpt lat="45.41498" lon="5.90221">
        <ele>1838.66</ele>
        <time>2026-08-30T10:15:40Z</time>
      </trkpt>
      <trkpt lat="45.41495" lon="5.90224">
        <ele>1838.66</ele>
        <time>2026-08-30T10:15:52Z</time>
      </trkpt>
      <trkpt lat="45.41488" lon="5.90226">
        <ele>1838.18</ele>
        <time>2026-08-30T10:16:08Z</time>
      </trkpt>
      <trkpt lat="45.41483" lon="5.90225">
        <ele>1838.18</ele>
        <time>2026-08-30T10:16:23Z</time>
      </trkpt>
      <trkpt lat="45.41483" lon="5.90227">
        <ele>1837.7</ele>
        <time>2026-08-30T10:16:39Z</time>
      </trkpt>
      <trkpt lat="45.41483" lon="5.90226">
        <ele>1838.18</ele>
        <time>2026-08-30T10:17:00Z</time>
      </trkpt>
      <trkpt lat="45.41482" lon="5.90226">
        <ele>1836.74</ele>
        <time>2026-08-30T10:17:18Z</time>
      </trkpt>
      <trkpt lat="45.41482" lon="5.90226">
        <ele>1838.66</ele>
        <time>2026-08-30T10:17:37Z</time>
      </trkpt>
      <trkpt lat="45.41481" lon="5.90225">
        <ele>1839.62</ele>
        <time>2026-08-30T10:17:53Z</time>
      </trkpt>
      <trkpt lat="45.41482" lon="5.90223">
        <ele>1840.58</ele>
        <time>2026-08-30T10:18:10Z</time>
      </trkpt>
      <trkpt lat="45.41482" lon="5.90221">
        <ele>1842.02</ele>
        <time>2026-08-30T10:18:20Z</time>
      </trkpt>
      <trkpt lat="45.4148" lon="5.90218">
        <ele>1841.54</ele>
        <time>2026-08-30T10:18:34Z</time>
      </trkpt>
      <trkpt lat="45.41477" lon="5.90216">
        <ele>1842.5</ele>
        <time>2026-08-30T10:18:50Z</time>
      </trkpt>
      <trkpt lat="45.41474" lon="5.90213">
        <ele>1842.5</ele>
        <time>2026-08-30T10:18:57Z</time>
      </trkpt>
      <trkpt lat="45.41473" lon="5.90212">
        <ele>1842.5</ele>
        <time>2026-08-30T10:18:59Z</time>
      </trkpt>
      <trkpt lat="45.41467" lon="5.9021">
        <ele>1841.06</ele>
        <time>2026-08-30T10:19:15Z</time>
      </trkpt>
      <trkpt lat="45.41462" lon="5.90211">
        <ele>1839.14</ele>
        <time>2026-08-30T10:19:30Z</time>
      </trkpt>
      <trkpt lat="45.41456" lon="5.90213">
        <ele>1838.18</ele>
        <time>2026-08-30T10:19:41Z</time>
      </trkpt>
      <trkpt lat="45.41453" lon="5.90221">
        <ele>1836.26</ele>
        <time>2026-08-30T10:19:54Z</time>
      </trkpt>
      <trkpt lat="45.41451" lon="5.90223">
        <ele>1834.81</ele>
        <time>2026-08-30T10:20:08Z</time>
      </trkpt>
      <trkpt lat="45.4145" lon="5.90224">
        <ele>1833.85</ele>
        <time>2026-08-30T10:20:28Z</time>
      </trkpt>
      <trkpt lat="45.41448" lon="5.90225">
        <ele>1832.89</ele>
        <time>2026-08-30T10:20:47Z</time>
      </trkpt>
      <trkpt lat="45.41448" lon="5.90225">
        <ele>1832.41</ele>
        <time>2026-08-30T10:20:53Z</time>
      </trkpt>
      <trkpt lat="45.41447" lon="5.90229">
        <ele>1830.49</ele>
        <time>2026-08-30T10:21:07Z</time>
      </trkpt>
      <trkpt lat="45.4144" lon="5.90224">
        <ele>1830.01</ele>
        <time>2026-08-30T10:21:22Z</time>
      </trkpt>
      <trkpt lat="45.41433" lon="5.90222">
        <ele>1829.05</ele>
        <time>2026-08-30T10:21:46Z</time>
      </trkpt>
      <trkpt lat="45.41423" lon="5.9022">
        <ele>1828.56</ele>
        <time>2026-08-30T10:22:01Z</time>
      </trkpt>
      <trkpt lat="45.41417" lon="5.90211">
        <ele>1829.05</ele>
        <time>2026-08-30T10:22:14Z</time>
      </trkpt>
      <trkpt lat="45.41417" lon="5.9021">
        <ele>1829.53</ele>
        <time>2026-08-30T10:22:15Z</time>
      </trkpt>
      <trkpt lat="45.41407" lon="5.90195">
        <ele>1829.53</ele>
        <time>2026-08-30T10:22:31Z</time>
      </trkpt>
      <trkpt lat="45.41397" lon="5.90186">
        <ele>1830.49</ele>
        <time>2026-08-30T10:22:46Z</time>
      </trkpt>
      <trkpt lat="45.41386" lon="5.90183">
        <ele>1830.01</ele>
        <time>2026-08-30T10:23:01Z</time>
      </trkpt>
      <trkpt lat="45.41387" lon="5.90184">
        <ele>1829.53</ele>
        <time>2026-08-30T10:23:14Z</time>
      </trkpt>
      <trkpt lat="45.41386" lon="5.90184">
        <ele>1829.05</ele>
        <time>2026-08-30T10:23:43Z</time>
      </trkpt>
      <trkpt lat="45.41386" lon="5.90184">
        <ele>1829.53</ele>
        <time>2026-08-30T10:24:15Z</time>
      </trkpt>
      <trkpt lat="45.41386" lon="5.90184">
        <ele>1829.53</ele>
        <time>2026-08-30T10:24:44Z</time>
      </trkpt>
      <trkpt lat="45.41386" lon="5.90184">
        <ele>1829.05</ele>
        <time>2026-08-30T10:25:08Z</time>
      </trkpt>
      <trkpt lat="45.41386" lon="5.90184">
        <ele>1829.05</ele>
        <time>2026-08-30T10:25:35Z</time>
      </trkpt>
      <trkpt lat="45.41386" lon="5.90184">
        <ele>1829.05</ele>
        <time>2026-08-30T10:26:08Z</time>
      </trkpt>
      <trkpt lat="45.41387" lon="5.90184">
        <ele>1829.53</ele>
        <time>2026-08-30T10:26:39Z</time>
      </trkpt>
      <trkpt lat="45.41387" lon="5.90184">
        <ele>1829.53</ele>
        <time>2026-08-30T10:27:12Z</time>
      </trkpt>
      <trkpt lat="45.41387" lon="5.90184">
        <ele>1829.05</ele>
        <time>2026-08-30T10:27:36Z</time>
      </trkpt>
      <trkpt lat="45.41387" lon="5.90184">
        <ele>1829.53</ele>
        <time>2026-08-30T10:28:04Z</time>
      </trkpt>
      <trkpt lat="45.41387" lon="5.90184">
        <ele>1829.53</ele>
        <time>2026-08-30T10:28:33Z</time>
      </trkpt>
      <trkpt lat="45.41387" lon="5.90184">
        <ele>1829.53</ele>
        <time>2026-08-30T10:29:01Z</time>
      </trkpt>
      <trkpt lat="45.41386" lon="5.90183">
        <ele>1829.53</ele>
        <time>2026-08-30T10:29:27Z</time>
      </trkpt>
      <trkpt lat="45.41386" lon="5.90183">
        <ele>1829.53</ele>
        <time>2026-08-30T10:29:55Z</time>
      </trkpt>
      <trkpt lat="45.41386" lon="5.90183">
        <ele>1829.53</ele>
        <time>2026-08-30T10:30:24Z</time>
      </trkpt>
      <trkpt lat="45.41387" lon="5.90184">
        <ele>1829.05</ele>
        <time>2026-08-30T10:30:56Z</time>
      </trkpt>
      <trkpt lat="45.41387" lon="5.90184">
        <ele>1829.05</ele>
        <time>2026-08-30T10:31:28Z</time>
      </trkpt>
      <trkpt lat="45.41388" lon="5.90184">
        <ele>1829.05</ele>
        <time>2026-08-30T10:32:00Z</time>
      </trkpt>
      <trkpt lat="45.41388" lon="5.90184">
        <ele>1829.05</ele>
        <time>2026-08-30T10:32:36Z</time>
      </trkpt>
      <trkpt lat="45.41388" lon="5.90185">
        <ele>1829.05</ele>
        <time>2026-08-30T10:33:09Z</time>
      </trkpt>
      <trkpt lat="45.41388" lon="5.90185">
        <ele>1829.05</ele>
        <time>2026-08-30T10:33:42Z</time>
      </trkpt>
      <trkpt lat="45.41388" lon="5.90185">
        <ele>1829.05</ele>
        <time>2026-08-30T10:34:14Z</time>
      </trkpt>
      <trkpt lat="45.41388" lon="5.90185">
        <ele>1829.53</ele>
        <time>2026-08-30T10:34:41Z</time>
      </trkpt>
      <trkpt lat="45.41388" lon="5.90185">
        <ele>1829.53</ele>
        <time>2026-08-30T10:35:08Z</time>
      </trkpt>
      <trkpt lat="45.41388" lon="5.90186">
        <ele>1829.53</ele>
        <time>2026-08-30T10:35:34Z</time>
      </trkpt>
      <trkpt lat="45.41388" lon="5.90185">
        <ele>1829.53</ele>
        <time>2026-08-30T10:36:00Z</time>
      </trkpt>
      <trkpt lat="45.41388" lon="5.90185">
        <ele>1829.53</ele>
        <time>2026-08-30T10:36:29Z</time>
      </trkpt>
      <trkpt lat="45.41388" lon="5.90185">
        <ele>1829.53</ele>
        <time>2026-08-30T10:36:58Z</time>
      </trkpt>
      <trkpt lat="45.41388" lon="5.90185">
        <ele>1829.53</ele>
        <time>2026-08-30T10:37:30Z</time>
      </trkpt>
      <trkpt lat="45.41388" lon="5.90185">
        <ele>1829.53</ele>
        <time>2026-08-30T10:37:59Z</time>
      </trkpt>
      <trkpt lat="45.41388" lon="5.90185">
        <ele>1829.53</ele>
        <time>2026-08-30T10:38:24Z</time>
      </trkpt>
      <trkpt lat="45.41388" lon="5.90184">
        <ele>1829.53</ele>
        <time>2026-08-30T10:38:52Z</time>
      </trkpt>
      <trkpt lat="45.41387" lon="5.90185">
        <ele>1830.01</ele>
        <time>2026-08-30T10:39:19Z</time>
      </trkpt>
      <trkpt lat="45.41387" lon="5.90185">
        <ele>1830.01</ele>
        <time>2026-08-30T10:39:44Z</time>
      </trkpt>
      <trkpt lat="45.41387" lon="5.90184">
        <ele>1830.01</ele>
        <time>2026-08-30T10:40:13Z</time>
      </trkpt>
      <trkpt lat="45.41388" lon="5.90184">
        <ele>1830.01</ele>
        <time>2026-08-30T10:40:42Z</time>
      </trkpt>
      <trkpt lat="45.41387" lon="5.90184">
        <ele>1829.53</ele>
        <time>2026-08-30T10:41:15Z</time>
      </trkpt>
      <trkpt lat="45.41387" lon="5.90184">
        <ele>1829.53</ele>
        <time>2026-08-30T10:41:44Z</time>
      </trkpt>
      <trkpt lat="45.41387" lon="5.90184">
        <ele>1829.53</ele>
        <time>2026-08-30T10:42:12Z</time>
      </trkpt>
      <trkpt lat="45.41387" lon="5.90183">
        <ele>1829.53</ele>
        <time>2026-08-30T10:42:40Z</time>
      </trkpt>
      <trkpt lat="45.41387" lon="5.90183">
        <ele>1830.01</ele>
        <time>2026-08-30T10:43:09Z</time>
      </trkpt>
      <trkpt lat="45.41387" lon="5.90184">
        <ele>1830.01</ele>
        <time>2026-08-30T10:43:39Z</time>
      </trkpt>
      <trkpt lat="45.41387" lon="5.90184">
        <ele>1830.01</ele>
        <time>2026-08-30T10:44:15Z</time>
      </trkpt>
      <trkpt lat="45.41387" lon="5.90184">
        <ele>1830.49</ele>
        <time>2026-08-30T10:44:44Z</time>
      </trkpt>
      <trkpt lat="45.41387" lon="5.90184">
        <ele>1830.49</ele>
        <time>2026-08-30T10:45:11Z</time>
      </trkpt>
      <trkpt lat="45.41387" lon="5.90184">
        <ele>1830.01</ele>
        <time>2026-08-30T10:45:40Z</time>
      </trkpt>
      <trkpt lat="45.41386" lon="5.90184">
        <ele>1830.01</ele>
        <time>2026-08-30T10:46:08Z</time>
      </trkpt>
      <trkpt lat="45.41386" lon="5.90184">
        <ele>1830.01</ele>
        <time>2026-08-30T10:46:31Z</time>
      </trkpt>
      <trkpt lat="45.41386" lon="5.90184">
        <ele>1830.01</ele>
        <time>2026-08-30T10:46:58Z</time>
      </trkpt>
      <trkpt lat="45.41386" lon="5.90184">
        <ele>1830.01</ele>
        <time>2026-08-30T10:47:20Z</time>
      </trkpt>
      <trkpt lat="45.41387" lon="5.90183">
        <ele>1830.01</ele>
        <time>2026-08-30T10:47:50Z</time>
      </trkpt>
      <trkpt lat="45.41387" lon="5.90183">
        <ele>1830.01</ele>
        <time>2026-08-30T10:48:20Z</time>
      </trkpt>
      <trkpt lat="45.41387" lon="5.90184">
        <ele>1830.49</ele>
        <time>2026-08-30T10:48:52Z</time>
      </trkpt>
      <trkpt lat="45.41387" lon="5.90184">
        <ele>1830.49</ele>
        <time>2026-08-30T10:49:22Z</time>
      </trkpt>
      <trkpt lat="45.41387" lon="5.90184">
        <ele>1830.49</ele>
        <time>2026-08-30T10:49:45Z</time>
      </trkpt>
      <trkpt lat="45.41387" lon="5.90184">
        <ele>1830.01</ele>
        <time>2026-08-30T10:50:17Z</time>
      </trkpt>
      <trkpt lat="45.41387" lon="5.90184">
        <ele>1830.49</ele>
        <time>2026-08-30T10:50:50Z</time>
      </trkpt>
      <trkpt lat="45.41386" lon="5.90185">
        <ele>1830.49</ele>
        <time>2026-08-30T10:51:26Z</time>
      </trkpt>
      <trkpt lat="45.41386" lon="5.90184">
        <ele>1830.49</ele>
        <time>2026-08-30T10:51:58Z</time>
      </trkpt>
      <trkpt lat="45.41387" lon="5.90184">
        <ele>1830.49</ele>
        <time>2026-08-30T10:52:27Z</time>
      </trkpt>
      <trkpt lat="45.41387" lon="5.90184">
        <ele>1830.49</ele>
        <time>2026-08-30T10:53:02Z</time>
      </trkpt>
      <trkpt lat="45.41387" lon="5.90184">
        <ele>1830.01</ele>
        <time>2026-08-30T10:53:39Z</time>
      </trkpt>
      <trkpt lat="45.41388" lon="5.90185">
        <ele>1830.01</ele>
        <time>2026-08-30T10:54:08Z</time>
      </trkpt>
      <trkpt lat="45.41388" lon="5.90185">
        <ele>1830.01</ele>
        <time>2026-08-30T10:54:32Z</time>
      </trkpt>
      <trkpt lat="45.41387" lon="5.90184">
        <ele>1830.01</ele>
        <time>2026-08-30T10:55:02Z</time>
      </trkpt>
      <trkpt lat="45.41387" lon="5.90185">
        <ele>1830.01</ele>
        <time>2026-08-30T10:55:36Z</time>
      </trkpt>
      <trkpt lat="45.41387" lon="5.90184">
        <ele>1830.49</ele>
        <time>2026-08-30T10:56:12Z</time>
      </trkpt>
      <trkpt lat="45.41387" lon="5.90184">
        <ele>1829.53</ele>
        <time>2026-08-30T10:56:48Z</time>
      </trkpt>
      <trkpt lat="45.41388" lon="5.90184">
        <ele>1829.53</ele>
        <time>2026-08-30T10:57:19Z</time>
      </trkpt>
      <trkpt lat="45.41388" lon="5.90185">
        <ele>1830.01</ele>
        <time>2026-08-30T10:57:51Z</time>
      </trkpt>
      <trkpt lat="45.41388" lon="5.90185">
        <ele>1829.53</ele>
        <time>2026-08-30T10:58:21Z</time>
      </trkpt>
      <trkpt lat="45.41387" lon="5.90185">
        <ele>1830.01</ele>
        <time>2026-08-30T10:58:52Z</time>
      </trkpt>
      <trkpt lat="45.41387" lon="5.90184">
        <ele>1830.01</ele>
        <time>2026-08-30T10:59:23Z</time>
      </trkpt>
      <trkpt lat="45.41387" lon="5.90184">
        <ele>1830.01</ele>
        <time>2026-08-30T10:59:56Z</time>
      </trkpt>
      <trkpt lat="45.41387" lon="5.90184">
        <ele>1830.01</ele>
        <time>2026-08-30T11:00:27Z</time>
      </trkpt>
      <trkpt lat="45.41387" lon="5.90184">
        <ele>1829.53</ele>
        <time>2026-08-30T11:01:01Z</time>
      </trkpt>
      <trkpt lat="45.41387" lon="5.90184">
        <ele>1830.01</ele>
        <time>2026-08-30T11:01:36Z</time>
      </trkpt>
      <trkpt lat="45.41387" lon="5.90184">
        <ele>1829.53</ele>
        <time>2026-08-30T11:02:06Z</time>
      </trkpt>
      <trkpt lat="45.41387" lon="5.90184">
        <ele>1830.01</ele>
        <time>2026-08-30T11:02:41Z</time>
      </trkpt>
      <trkpt lat="45.41387" lon="5.90184">
        <ele>1830.01</ele>
        <time>2026-08-30T11:03:13Z</time>
      </trkpt>
      <trkpt lat="45.41387" lon="5.90184">
        <ele>1830.01</ele>
        <time>2026-08-30T11:03:45Z</time>
      </trkpt>
      <trkpt lat="45.41387" lon="5.90184">
        <ele>1830.49</ele>
        <time>2026-08-30T11:04:20Z</time>
      </trkpt>
      <trkpt lat="45.41387" lon="5.90184">
        <ele>1830.01</ele>
        <time>2026-08-30T11:04:56Z</time>
      </trkpt>
      <trkpt lat="45.41387" lon="5.90184">
        <ele>1830.01</ele>
        <time>2026-08-30T11:05:30Z</time>
      </trkpt>
      <trkpt lat="45.41386" lon="5.90184">
        <ele>1830.01</ele>
        <time>2026-08-30T11:06:05Z</time>
      </trkpt>
      <trkpt lat="45.41387" lon="5.90184">
        <ele>1830.01</ele>
        <time>2026-08-30T11:06:37Z</time>
      </trkpt>
      <trkpt lat="45.41387" lon="5.90184">
        <ele>1829.53</ele>
        <time>2026-08-30T11:07:04Z</time>
      </trkpt>
      <trkpt lat="45.41387" lon="5.90184">
        <ele>1829.53</ele>
        <time>2026-08-30T11:07:36Z</time>
      </trkpt>
      <trkpt lat="45.41387" lon="5.90184">
        <ele>1829.53</ele>
        <time>2026-08-30T11:08:04Z</time>
      </trkpt>
      <trkpt lat="45.41387" lon="5.90185">
        <ele>1829.53</ele>
        <time>2026-08-30T11:08:37Z</time>
      </trkpt>
      <trkpt lat="45.41387" lon="5.90184">
        <ele>1830.49</ele>
        <time>2026-08-30T11:09:02Z</time>
      </trkpt>
      <trkpt lat="45.41387" lon="5.90184">
        <ele>1830.49</ele>
        <time>2026-08-30T11:09:20Z</time>
      </trkpt>
      <trkpt lat="45.41387" lon="5.90184">
        <ele>1829.05</ele>
        <time>2026-08-30T11:09:40Z</time>
      </trkpt>
      <trkpt lat="45.41387" lon="5.90184">
        <ele>1830.49</ele>
        <time>2026-08-30T11:10:03Z</time>
      </trkpt>
      <trkpt lat="45.41388" lon="5.90185">
        <ele>1830.01</ele>
        <time>2026-08-30T11:10:20Z</time>
      </trkpt>
      <trkpt lat="45.41385" lon="5.9019">
        <ele>1829.53</ele>
        <time>2026-08-30T11:10:32Z</time>
      </trkpt>
      <trkpt lat="45.41384" lon="5.90187">
        <ele>1829.53</ele>
        <time>2026-08-30T11:10:47Z</time>
      </trkpt>
      <trkpt lat="45.41384" lon="5.90187">
        <ele>1829.53</ele>
        <time>2026-08-30T11:11:19Z</time>
      </trkpt>
      <trkpt lat="45.41384" lon="5.90187">
        <ele>1829.53</ele>
        <time>2026-08-30T11:11:39Z</time>
      </trkpt>
      <trkpt lat="45.41384" lon="5.90187">
        <ele>1829.53</ele>
        <time>2026-08-30T11:12:04Z</time>
      </trkpt>
      <trkpt lat="45.41384" lon="5.90187">
        <ele>1829.53</ele>
        <time>2026-08-30T11:12:33Z</time>
      </trkpt>
      <trkpt lat="45.41384" lon="5.90187">
        <ele>1829.53</ele>
        <time>2026-08-30T11:13:00Z</time>
      </trkpt>
      <trkpt lat="45.41382" lon="5.90192">
        <ele>1829.05</ele>
        <time>2026-08-30T11:13:16Z</time>
      </trkpt>
      <trkpt lat="45.41378" lon="5.90201">
        <ele>1827.12</ele>
        <time>2026-08-30T11:13:28Z</time>
      </trkpt>
      <trkpt lat="45.4137" lon="5.90205">
        <ele>1825.68</ele>
        <time>2026-08-30T11:13:40Z</time>
      </trkpt>
      <trkpt lat="45.41367" lon="5.90207">
        <ele>1825.2</ele>
        <time>2026-08-30T11:13:45Z</time>
      </trkpt>
      <trkpt lat="45.41362" lon="5.90216">
        <ele>1823.28</ele>
        <time>2026-08-30T11:13:58Z</time>
      </trkpt>
      <trkpt lat="45.41354" lon="5.90219">
        <ele>1821.35</ele>
        <time>2026-08-30T11:14:12Z</time>
      </trkpt>
      <trkpt lat="45.4135" lon="5.90225">
        <ele>1818.95</ele>
        <time>2026-08-30T11:14:25Z</time>
      </trkpt>
      <trkpt lat="45.41347" lon="5.90231">
        <ele>1817.51</ele>
        <time>2026-08-30T11:14:39Z</time>
      </trkpt>
      <trkpt lat="45.41339" lon="5.90237">
        <ele>1814.63</ele>
        <time>2026-08-30T11:14:56Z</time>
      </trkpt>
      <trkpt lat="45.41335" lon="5.90239">
        <ele>1813.66</ele>
        <time>2026-08-30T11:15:05Z</time>
      </trkpt>
      <trkpt lat="45.41328" lon="5.90238">
        <ele>1812.7</ele>
        <time>2026-08-30T11:15:18Z</time>
      </trkpt>
      <trkpt lat="45.4132" lon="5.90245">
        <ele>1810.78</ele>
        <time>2026-08-30T11:15:32Z</time>
      </trkpt>
      <trkpt lat="45.41313" lon="5.90251">
        <ele>1808.86</ele>
        <time>2026-08-30T11:15:45Z</time>
      </trkpt>
      <trkpt lat="45.41306" lon="5.90255">
        <ele>1807.42</ele>
        <time>2026-08-30T11:16:00Z</time>
      </trkpt>
      <trkpt lat="45.41305" lon="5.90255">
        <ele>1807.42</ele>
        <time>2026-08-30T11:16:16Z</time>
      </trkpt>
      <trkpt lat="45.41304" lon="5.90254">
        <ele>1807.42</ele>
        <time>2026-08-30T11:16:33Z</time>
      </trkpt>
      <trkpt lat="45.41306" lon="5.90257">
        <ele>1807.42</ele>
        <time>2026-08-30T11:16:49Z</time>
      </trkpt>
      <trkpt lat="45.41306" lon="5.90258">
        <ele>1807.42</ele>
        <time>2026-08-30T11:17:02Z</time>
      </trkpt>
      <trkpt lat="45.41305" lon="5.90261">
        <ele>1806.45</ele>
        <time>2026-08-30T11:17:23Z</time>
      </trkpt>
      <trkpt lat="45.41301" lon="5.90262">
        <ele>1805.49</ele>
        <time>2026-08-30T11:17:38Z</time>
      </trkpt>
      <trkpt lat="45.41298" lon="5.90264">
        <ele>1804.53</ele>
        <time>2026-08-30T11:17:52Z</time>
      </trkpt>
      <trkpt lat="45.41294" lon="5.90263">
        <ele>1805.01</ele>
        <time>2026-08-30T11:18:05Z</time>
      </trkpt>
      <trkpt lat="45.41286" lon="5.90265">
        <ele>1802.61</ele>
        <time>2026-08-30T11:18:19Z</time>
      </trkpt>
      <trkpt lat="45.41278" lon="5.90271">
        <ele>1801.17</ele>
        <time>2026-08-30T11:18:34Z</time>
      </trkpt>
      <trkpt lat="45.41277" lon="5.90272">
        <ele>1801.17</ele>
        <time>2026-08-30T11:18:50Z</time>
      </trkpt>
      <trkpt lat="45.41271" lon="5.90273">
        <ele>1800.21</ele>
        <time>2026-08-30T11:19:10Z</time>
      </trkpt>
      <trkpt lat="45.4127" lon="5.90278">
        <ele>1798.28</ele>
        <time>2026-08-30T11:19:26Z</time>
      </trkpt>
      <trkpt lat="45.41265" lon="5.9028">
        <ele>1797.32</ele>
        <time>2026-08-30T11:19:41Z</time>
      </trkpt>
      <trkpt lat="45.41258" lon="5.90284">
        <ele>1795.4</ele>
        <time>2026-08-30T11:19:55Z</time>
      </trkpt>
      <trkpt lat="45.41252" lon="5.90287">
        <ele>1793.48</ele>
        <time>2026-08-30T11:20:10Z</time>
      </trkpt>
      <trkpt lat="45.41243" lon="5.90289">
        <ele>1791.55</ele>
        <time>2026-08-30T11:20:23Z</time>
      </trkpt>
      <trkpt lat="45.41238" lon="5.90289">
        <ele>1791.07</ele>
        <time>2026-08-30T11:20:34Z</time>
      </trkpt>
      <trkpt lat="45.41234" lon="5.90286">
        <ele>1791.55</ele>
        <time>2026-08-30T11:20:47Z</time>
      </trkpt>
      <trkpt lat="45.41228" lon="5.90288">
        <ele>1789.63</ele>
        <time>2026-08-30T11:21:03Z</time>
      </trkpt>
      <trkpt lat="45.41223" lon="5.90294">
        <ele>1787.71</ele>
        <time>2026-08-30T11:21:19Z</time>
      </trkpt>
      <trkpt lat="45.41217" lon="5.90296">
        <ele>1785.79</ele>
        <time>2026-08-30T11:21:34Z</time>
      </trkpt>
      <trkpt lat="45.41213" lon="5.90292">
        <ele>1783.86</ele>
        <time>2026-08-30T11:21:47Z</time>
      </trkpt>
      <trkpt lat="45.41211" lon="5.90291">
        <ele>1783.38</ele>
        <time>2026-08-30T11:21:49Z</time>
      </trkpt>
      <trkpt lat="45.41203" lon="5.90286">
        <ele>1784.82</ele>
        <time>2026-08-30T11:22:03Z</time>
      </trkpt>
      <trkpt lat="45.41197" lon="5.90277">
        <ele>1786.27</ele>
        <time>2026-08-30T11:22:19Z</time>
      </trkpt>
      <trkpt lat="45.41189" lon="5.90263">
        <ele>1787.71</ele>
        <time>2026-08-30T11:22:35Z</time>
      </trkpt>
      <trkpt lat="45.41191" lon="5.90256">
        <ele>1788.67</ele>
        <time>2026-08-30T11:22:52Z</time>
      </trkpt>
      <trkpt lat="45.41189" lon="5.9026">
        <ele>1788.19</ele>
        <time>2026-08-30T11:23:10Z</time>
      </trkpt>
      <trkpt lat="45.41183" lon="5.90264">
        <ele>1786.27</ele>
        <time>2026-08-30T11:23:23Z</time>
      </trkpt>
      <trkpt lat="45.41177" lon="5.90262">
        <ele>1785.31</ele>
        <time>2026-08-30T11:23:36Z</time>
      </trkpt>
      <trkpt lat="45.41177" lon="5.90261">
        <ele>1783.86</ele>
        <time>2026-08-30T11:23:51Z</time>
      </trkpt>
      <trkpt lat="45.41175" lon="5.90258">
        <ele>1783.86</ele>
        <time>2026-08-30T11:23:54Z</time>
      </trkpt>
      <trkpt lat="45.41161" lon="5.90255">
        <ele>1782.9</ele>
        <time>2026-08-30T11:24:09Z</time>
      </trkpt>
      <trkpt lat="45.41157" lon="5.90252">
        <ele>1782.9</ele>
        <time>2026-08-30T11:24:14Z</time>
      </trkpt>
      <trkpt lat="45.41147" lon="5.90255">
        <ele>1780.5</ele>
        <time>2026-08-30T11:24:31Z</time>
      </trkpt>
      <trkpt lat="45.4114" lon="5.90257">
        <ele>1778.1</ele>
        <time>2026-08-30T11:24:44Z</time>
      </trkpt>
      <trkpt lat="45.41136" lon="5.90266">
        <ele>1776.65</ele>
        <time>2026-08-30T11:24:57Z</time>
      </trkpt>
      <trkpt lat="45.41132" lon="5.90269">
        <ele>1775.69</ele>
        <time>2026-08-30T11:25:10Z</time>
      </trkpt>
      <trkpt lat="45.41126" lon="5.90276">
        <ele>1773.77</ele>
        <time>2026-08-30T11:25:22Z</time>
      </trkpt>
      <trkpt lat="45.41128" lon="5.90286">
        <ele>1771.85</ele>
        <time>2026-08-30T11:25:34Z</time>
      </trkpt>
      <trkpt lat="45.41126" lon="5.90294">
        <ele>1769.92</ele>
        <time>2026-08-30T11:25:47Z</time>
      </trkpt>
      <trkpt lat="45.41126" lon="5.90309">
        <ele>1767.52</ele>
        <time>2026-08-30T11:26:01Z</time>
      </trkpt>
      <trkpt lat="45.41126" lon="5.90313">
        <ele>1764.64</ele>
        <time>2026-08-30T11:26:16Z</time>
      </trkpt>
      <trkpt lat="45.41125" lon="5.90315">
        <ele>1761.75</ele>
        <time>2026-08-30T11:26:32Z</time>
      </trkpt>
      <trkpt lat="45.4112" lon="5.90318">
        <ele>1759.83</ele>
        <time>2026-08-30T11:26:46Z</time>
      </trkpt>
      <trkpt lat="45.41115" lon="5.90325">
        <ele>1758.39</ele>
        <time>2026-08-30T11:27:03Z</time>
      </trkpt>
      <trkpt lat="45.41115" lon="5.90338">
        <ele>1755.99</ele>
        <time>2026-08-30T11:27:21Z</time>
      </trkpt>
      <trkpt lat="45.41114" lon="5.90351">
        <ele>1753.58</ele>
        <time>2026-08-30T11:27:38Z</time>
      </trkpt>
      <trkpt lat="45.41111" lon="5.90356">
        <ele>1751.18</ele>
        <time>2026-08-30T11:27:55Z</time>
      </trkpt>
      <trkpt lat="45.41112" lon="5.90372">
        <ele>1750.22</ele>
        <time>2026-08-30T11:28:09Z</time>
      </trkpt>
      <trkpt lat="45.41114" lon="5.90382">
        <ele>1747.81</ele>
        <time>2026-08-30T11:28:24Z</time>
      </trkpt>
      <trkpt lat="45.41114" lon="5.90389">
        <ele>1745.89</ele>
        <time>2026-08-30T11:28:40Z</time>
      </trkpt>
      <trkpt lat="45.41117" lon="5.90401">
        <ele>1743.01</ele>
        <time>2026-08-30T11:28:57Z</time>
      </trkpt>
      <trkpt lat="45.41122" lon="5.90417">
        <ele>1741.08</ele>
        <time>2026-08-30T11:29:15Z</time>
      </trkpt>
      <trkpt lat="45.41125" lon="5.90427">
        <ele>1739.16</ele>
        <time>2026-08-30T11:29:28Z</time>
      </trkpt>
      <trkpt lat="45.41123" lon="5.90432">
        <ele>1737.24</ele>
        <time>2026-08-30T11:29:43Z</time>
      </trkpt>
      <trkpt lat="45.41119" lon="5.90432">
        <ele>1735.32</ele>
        <time>2026-08-30T11:29:57Z</time>
      </trkpt>
      <trkpt lat="45.41118" lon="5.90442">
        <ele>1732.91</ele>
        <time>2026-08-30T11:30:12Z</time>
      </trkpt>
      <trkpt lat="45.41117" lon="5.90449">
        <ele>1730.03</ele>
        <time>2026-08-30T11:30:32Z</time>
      </trkpt>
      <trkpt lat="45.41112" lon="5.90457">
        <ele>1728.59</ele>
        <time>2026-08-30T11:30:46Z</time>
      </trkpt>
      <trkpt lat="45.41105" lon="5.90455">
        <ele>1729.07</ele>
        <time>2026-08-30T11:31:03Z</time>
      </trkpt>
      <trkpt lat="45.41094" lon="5.90452">
        <ele>1728.11</ele>
        <time>2026-08-30T11:31:17Z</time>
      </trkpt>
      <trkpt lat="45.41088" lon="5.90447">
        <ele>1727.63</ele>
        <time>2026-08-30T11:31:30Z</time>
      </trkpt>
      <trkpt lat="45.41081" lon="5.90444">
        <ele>1726.67</ele>
        <time>2026-08-30T11:31:46Z</time>
      </trkpt>
      <trkpt lat="45.41068" lon="5.90445">
        <ele>1725.22</ele>
        <time>2026-08-30T11:32:01Z</time>
      </trkpt>
      <trkpt lat="45.4105" lon="5.9045">
        <ele>1725.22</ele>
        <time>2026-08-30T11:32:17Z</time>
      </trkpt>
      <trkpt lat="45.41038" lon="5.90443">
        <ele>1725.22</ele>
        <time>2026-08-30T11:32:32Z</time>
      </trkpt>
      <trkpt lat="45.41026" lon="5.9045">
        <ele>1723.3</ele>
        <time>2026-08-30T11:32:49Z</time>
      </trkpt>
      <trkpt lat="45.41013" lon="5.90453">
        <ele>1721.86</ele>
        <time>2026-08-30T11:33:04Z</time>
      </trkpt>
      <trkpt lat="45.41005" lon="5.90452">
        <ele>1720.9</ele>
        <time>2026-08-30T11:33:15Z</time>
      </trkpt>
      <trkpt lat="45.40995" lon="5.90461">
        <ele>1720.42</ele>
        <time>2026-08-30T11:33:28Z</time>
      </trkpt>
      <trkpt lat="45.40992" lon="5.90466">
        <ele>1719.94</ele>
        <time>2026-08-30T11:33:33Z</time>
      </trkpt>
      <trkpt lat="45.40979" lon="5.90479">
        <ele>1718.97</ele>
        <time>2026-08-30T11:33:50Z</time>
      </trkpt>
      <trkpt lat="45.40974" lon="5.9048">
        <ele>1718.97</ele>
        <time>2026-08-30T11:34:05Z</time>
      </trkpt>
      <trkpt lat="45.40971" lon="5.90483">
        <ele>1717.53</ele>
        <time>2026-08-30T11:34:19Z</time>
      </trkpt>
      <trkpt lat="45.40964" lon="5.90492">
        <ele>1717.05</ele>
        <time>2026-08-30T11:34:32Z</time>
      </trkpt>
      <trkpt lat="45.40955" lon="5.90494">
        <ele>1715.61</ele>
        <time>2026-08-30T11:34:45Z</time>
      </trkpt>
      <trkpt lat="45.4095" lon="5.90507">
        <ele>1714.65</ele>
        <time>2026-08-30T11:34:59Z</time>
      </trkpt>
      <trkpt lat="45.40939" lon="5.90515">
        <ele>1713.69</ele>
        <time>2026-08-30T11:35:14Z</time>
      </trkpt>
      <trkpt lat="45.40934" lon="5.90529">
        <ele>1711.76</ele>
        <time>2026-08-30T11:35:27Z</time>
      </trkpt>
      <trkpt lat="45.4094" lon="5.90547">
        <ele>1709.84</ele>
        <time>2026-08-30T11:35:40Z</time>
      </trkpt>
      <trkpt lat="45.4094" lon="5.90549">
        <ele>1703.59</ele>
        <time>2026-08-30T11:35:48Z</time>
      </trkpt>
      <trkpt lat="45.4094" lon="5.90548">
        <ele>1715.13</ele>
        <time>2026-08-30T11:35:49Z</time>
      </trkpt>
      <trkpt lat="45.4094" lon="5.90548">
        <ele>1710.32</ele>
        <time>2026-08-30T11:35:50Z</time>
      </trkpt>
      <trkpt lat="45.4094" lon="5.90549">
        <ele>1709.84</ele>
        <time>2026-08-30T11:35:52Z</time>
      </trkpt>
      <trkpt lat="45.4094" lon="5.90548">
        <ele>1709.36</ele>
        <time>2026-08-30T11:36:12Z</time>
      </trkpt>
      <trkpt lat="45.40943" lon="5.90555">
        <ele>1708.88</ele>
        <time>2026-08-30T11:36:23Z</time>
      </trkpt>
      <trkpt lat="45.40942" lon="5.90561">
        <ele>1708.88</ele>
        <time>2026-08-30T11:36:41Z</time>
      </trkpt>
      <trkpt lat="45.40936" lon="5.90565">
        <ele>1707.44</ele>
        <time>2026-08-30T11:36:59Z</time>
      </trkpt>
      <trkpt lat="45.40935" lon="5.90566">
        <ele>1707.44</ele>
        <time>2026-08-30T11:37:01Z</time>
      </trkpt>
      <trkpt lat="45.40933" lon="5.9057">
        <ele>1706.48</ele>
        <time>2026-08-30T11:37:05Z</time>
      </trkpt>
      <trkpt lat="45.40923" lon="5.90573">
        <ele>1706.48</ele>
        <time>2026-08-30T11:37:21Z</time>
      </trkpt>
      <trkpt lat="45.40921" lon="5.90574">
        <ele>1706</ele>
        <time>2026-08-30T11:37:24Z</time>
      </trkpt>
      <trkpt lat="45.40913" lon="5.90574">
        <ele>1704.55</ele>
        <time>2026-08-30T11:37:31Z</time>
      </trkpt>
      <trkpt lat="45.40902" lon="5.90576">
        <ele>1704.07</ele>
        <time>2026-08-30T11:37:42Z</time>
      </trkpt>
      <trkpt lat="45.40898" lon="5.90575">
        <ele>1704.07</ele>
        <time>2026-08-30T11:37:46Z</time>
      </trkpt>
      <trkpt lat="45.40893" lon="5.90577">
        <ele>1704.55</ele>
        <time>2026-08-30T11:37:52Z</time>
      </trkpt>
      <trkpt lat="45.40887" lon="5.90576">
        <ele>1705.04</ele>
        <time>2026-08-30T11:38:01Z</time>
      </trkpt>
      <trkpt lat="45.4088" lon="5.90572">
        <ele>1706</ele>
        <time>2026-08-30T11:38:10Z</time>
      </trkpt>
      <trkpt lat="45.40878" lon="5.9057">
        <ele>1706.48</ele>
        <time>2026-08-30T11:38:14Z</time>
      </trkpt>
      <trkpt lat="45.40871" lon="5.90567">
        <ele>1707.44</ele>
        <time>2026-08-30T11:38:23Z</time>
      </trkpt>
      <trkpt lat="45.40863" lon="5.90569">
        <ele>1708.4</ele>
        <time>2026-08-30T11:38:32Z</time>
      </trkpt>
      <trkpt lat="45.40853" lon="5.90568">
        <ele>1708.88</ele>
        <time>2026-08-30T11:38:46Z</time>
      </trkpt>
      <trkpt lat="45.40845" lon="5.90565">
        <ele>1709.84</ele>
        <time>2026-08-30T11:38:58Z</time>
      </trkpt>
      <trkpt lat="45.40834" lon="5.90558">
        <ele>1711.28</ele>
        <time>2026-08-30T11:39:12Z</time>
      </trkpt>
      <trkpt lat="45.40826" lon="5.9056">
        <ele>1711.28</ele>
        <time>2026-08-30T11:39:22Z</time>
      </trkpt>
      <trkpt lat="45.40823" lon="5.90561">
        <ele>1711.28</ele>
        <time>2026-08-30T11:39:26Z</time>
      </trkpt>
      <trkpt lat="45.4082" lon="5.90559">
        <ele>1711.28</ele>
        <time>2026-08-30T11:39:30Z</time>
      </trkpt>
      <trkpt lat="45.4081" lon="5.90559">
        <ele>1712.73</ele>
        <time>2026-08-30T11:39:44Z</time>
      </trkpt>
      <trkpt lat="45.40809" lon="5.90565">
        <ele>1712.73</ele>
        <time>2026-08-30T11:39:59Z</time>
      </trkpt>
      <trkpt lat="45.40804" lon="5.90569">
        <ele>1713.21</ele>
        <time>2026-08-30T11:40:13Z</time>
      </trkpt>
      <trkpt lat="45.40801" lon="5.90571">
        <ele>1714.17</ele>
        <time>2026-08-30T11:40:26Z</time>
      </trkpt>
      <trkpt lat="45.40809" lon="5.90578">
        <ele>1711.28</ele>
        <time>2026-08-30T11:40:39Z</time>
      </trkpt>
      <trkpt lat="45.40809" lon="5.90581">
        <ele>1710.8</ele>
        <time>2026-08-30T11:40:41Z</time>
      </trkpt>
      <trkpt lat="45.40807" lon="5.90584">
        <ele>1710.32</ele>
        <time>2026-08-30T11:40:44Z</time>
      </trkpt>
      <trkpt lat="45.40804" lon="5.90596">
        <ele>1709.36</ele>
        <time>2026-08-30T11:40:54Z</time>
      </trkpt>
      <trkpt lat="45.40799" lon="5.90607">
        <ele>1707.92</ele>
        <time>2026-08-30T11:41:07Z</time>
      </trkpt>
      <trkpt lat="45.40797" lon="5.9062">
        <ele>1706</ele>
        <time>2026-08-30T11:41:20Z</time>
      </trkpt>
      <trkpt lat="45.40796" lon="5.90632">
        <ele>1704.07</ele>
        <time>2026-08-30T11:41:31Z</time>
      </trkpt>
      <trkpt lat="45.40794" lon="5.90645">
        <ele>1702.15</ele>
        <time>2026-08-30T11:41:44Z</time>
      </trkpt>
      <trkpt lat="45.40799" lon="5.90657">
        <ele>1700.23</ele>
        <time>2026-08-30T11:41:58Z</time>
      </trkpt>
      <trkpt lat="45.40796" lon="5.90675">
        <ele>1698.31</ele>
        <time>2026-08-30T11:42:13Z</time>
      </trkpt>
      <trkpt lat="45.40793" lon="5.90685">
        <ele>1696.38</ele>
        <time>2026-08-30T11:42:26Z</time>
      </trkpt>
      <trkpt lat="45.40798" lon="5.90696">
        <ele>1694.46</ele>
        <time>2026-08-30T11:42:37Z</time>
      </trkpt>
      <trkpt lat="45.40805" lon="5.90702">
        <ele>1692.06</ele>
        <time>2026-08-30T11:42:52Z</time>
      </trkpt>
      <trkpt lat="45.40809" lon="5.90711">
        <ele>1689.65</ele>
        <time>2026-08-30T11:43:09Z</time>
      </trkpt>
      <trkpt lat="45.40811" lon="5.90718">
        <ele>1686.77</ele>
        <time>2026-08-30T11:43:24Z</time>
      </trkpt>
      <trkpt lat="45.40808" lon="5.90726">
        <ele>1684.85</ele>
        <time>2026-08-30T11:43:38Z</time>
      </trkpt>
      <trkpt lat="45.40804" lon="5.90737">
        <ele>1683.89</ele>
        <time>2026-08-30T11:43:53Z</time>
      </trkpt>
      <trkpt lat="45.40804" lon="5.90747">
        <ele>1683.41</ele>
        <time>2026-08-30T11:44:08Z</time>
      </trkpt>
      <trkpt lat="45.40805" lon="5.90753">
        <ele>1682.44</ele>
        <time>2026-08-30T11:44:24Z</time>
      </trkpt>
      <trkpt lat="45.40805" lon="5.90756">
        <ele>1682.44</ele>
        <time>2026-08-30T11:44:39Z</time>
      </trkpt>
      <trkpt lat="45.40807" lon="5.90757">
        <ele>1681.96</ele>
        <time>2026-08-30T11:44:52Z</time>
      </trkpt>
      <trkpt lat="45.40806" lon="5.90758">
        <ele>1681.96</ele>
        <time>2026-08-30T11:45:07Z</time>
      </trkpt>
      <trkpt lat="45.40812" lon="5.90768">
        <ele>1679.56</ele>
        <time>2026-08-30T11:45:23Z</time>
      </trkpt>
      <trkpt lat="45.4081" lon="5.90777">
        <ele>1679.08</ele>
        <time>2026-08-30T11:45:38Z</time>
      </trkpt>
      <trkpt lat="45.40807" lon="5.90793">
        <ele>1678.12</ele>
        <time>2026-08-30T11:45:53Z</time>
      </trkpt>
      <trkpt lat="45.40812" lon="5.90804">
        <ele>1677.16</ele>
        <time>2026-08-30T11:46:06Z</time>
      </trkpt>
      <trkpt lat="45.40815" lon="5.9082">
        <ele>1675.23</ele>
        <time>2026-08-30T11:46:23Z</time>
      </trkpt>
      <trkpt lat="45.4082" lon="5.90828">
        <ele>1674.27</ele>
        <time>2026-08-30T11:46:38Z</time>
      </trkpt>
      <trkpt lat="45.40823" lon="5.90845">
        <ele>1671.39</ele>
        <time>2026-08-30T11:46:52Z</time>
      </trkpt>
      <trkpt lat="45.40828" lon="5.90862">
        <ele>1670.43</ele>
        <time>2026-08-30T11:47:08Z</time>
      </trkpt>
      <trkpt lat="45.40832" lon="5.90878">
        <ele>1668.02</ele>
        <time>2026-08-30T11:47:22Z</time>
      </trkpt>
      <trkpt lat="45.40836" lon="5.90882">
        <ele>1668.02</ele>
        <time>2026-08-30T11:47:34Z</time>
      </trkpt>
      <trkpt lat="45.40837" lon="5.90882">
        <ele>1668.02</ele>
        <time>2026-08-30T11:47:35Z</time>
      </trkpt>
      <trkpt lat="45.40849" lon="5.90882">
        <ele>1670.43</ele>
        <time>2026-08-30T11:47:52Z</time>
      </trkpt>
      <trkpt lat="45.40861" lon="5.9089">
        <ele>1669.95</ele>
        <time>2026-08-30T11:48:10Z</time>
      </trkpt>
      <trkpt lat="45.40864" lon="5.90899">
        <ele>1671.39</ele>
        <time>2026-08-30T11:48:25Z</time>
      </trkpt>
      <trkpt lat="45.40871" lon="5.90906">
        <ele>1669.95</ele>
        <time>2026-08-30T11:48:40Z</time>
      </trkpt>
      <trkpt lat="45.40876" lon="5.90912">
        <ele>1671.87</ele>
        <time>2026-08-30T11:48:58Z</time>
      </trkpt>
      <trkpt lat="45.40879" lon="5.90924">
        <ele>1671.39</ele>
        <time>2026-08-30T11:49:12Z</time>
      </trkpt>
      <trkpt lat="45.40877" lon="5.9093">
        <ele>1669.47</ele>
        <time>2026-08-30T11:49:23Z</time>
      </trkpt>
      <trkpt lat="45.40882" lon="5.90944">
        <ele>1667.54</ele>
        <time>2026-08-30T11:49:38Z</time>
      </trkpt>
      <trkpt lat="45.40887" lon="5.90954">
        <ele>1666.58</ele>
        <time>2026-08-30T11:49:51Z</time>
      </trkpt>
      <trkpt lat="45.40889" lon="5.90961">
        <ele>1665.14</ele>
        <time>2026-08-30T11:50:03Z</time>
      </trkpt>
      <trkpt lat="45.40893" lon="5.9097">
        <ele>1662.26</ele>
        <time>2026-08-30T11:50:17Z</time>
      </trkpt>
      <trkpt lat="45.40895" lon="5.90981">
        <ele>1659.85</ele>
        <time>2026-08-30T11:50:30Z</time>
      </trkpt>
      <trkpt lat="45.40898" lon="5.90984">
        <ele>1659.37</ele>
        <time>2026-08-30T11:50:33Z</time>
      </trkpt>
      <trkpt lat="45.40903" lon="5.90992">
        <ele>1657.93</ele>
        <time>2026-08-30T11:50:46Z</time>
      </trkpt>
      <trkpt lat="45.40908" lon="5.91001">
        <ele>1657.93</ele>
        <time>2026-08-30T11:51:00Z</time>
      </trkpt>
      <trkpt lat="45.40913" lon="5.91011">
        <ele>1657.45</ele>
        <time>2026-08-30T11:51:10Z</time>
      </trkpt>
      <trkpt lat="45.40921" lon="5.91017">
        <ele>1656.97</ele>
        <time>2026-08-30T11:51:27Z</time>
      </trkpt>
      <trkpt lat="45.40929" lon="5.91026">
        <ele>1656.49</ele>
        <time>2026-08-30T11:51:39Z</time>
      </trkpt>
      <trkpt lat="45.40929" lon="5.91029">
        <ele>1656.49</ele>
        <time>2026-08-30T11:51:41Z</time>
      </trkpt>
      <trkpt lat="45.40938" lon="5.91035">
        <ele>1656.97</ele>
        <time>2026-08-30T11:51:54Z</time>
      </trkpt>
      <trkpt lat="45.40948" lon="5.91034">
        <ele>1655.05</ele>
        <time>2026-08-30T11:52:10Z</time>
      </trkpt>
      <trkpt lat="45.40951" lon="5.91031">
        <ele>1654.57</ele>
        <time>2026-08-30T11:52:26Z</time>
      </trkpt>
      <trkpt lat="45.40958" lon="5.91037">
        <ele>1654.57</ele>
        <time>2026-08-30T11:52:43Z</time>
      </trkpt>
      <trkpt lat="45.40966" lon="5.91041">
        <ele>1655.05</ele>
        <time>2026-08-30T11:52:59Z</time>
      </trkpt>
      <trkpt lat="45.40978" lon="5.91049">
        <ele>1654.09</ele>
        <time>2026-08-30T11:53:18Z</time>
      </trkpt>
      <trkpt lat="45.40987" lon="5.91057">
        <ele>1654.09</ele>
        <time>2026-08-30T11:53:36Z</time>
      </trkpt>
      <trkpt lat="45.40988" lon="5.91061">
        <ele>1654.57</ele>
        <time>2026-08-30T11:53:41Z</time>
      </trkpt>
      <trkpt lat="45.40994" lon="5.91074">
        <ele>1654.09</ele>
        <time>2026-08-30T11:53:51Z</time>
      </trkpt>
      <trkpt lat="45.41003" lon="5.9109">
        <ele>1654.09</ele>
        <time>2026-08-30T11:54:07Z</time>
      </trkpt>
      <trkpt lat="45.41011" lon="5.91104">
        <ele>1652.64</ele>
        <time>2026-08-30T11:54:25Z</time>
      </trkpt>
      <trkpt lat="45.41016" lon="5.91115">
        <ele>1652.16</ele>
        <time>2026-08-30T11:54:41Z</time>
      </trkpt>
      <trkpt lat="45.4102" lon="5.91122">
        <ele>1651.68</ele>
        <time>2026-08-30T11:54:56Z</time>
      </trkpt>
      <trkpt lat="45.4102" lon="5.9113">
        <ele>1651.68</ele>
        <time>2026-08-30T11:55:10Z</time>
      </trkpt>
      <trkpt lat="45.41021" lon="5.91135">
        <ele>1651.68</ele>
        <time>2026-08-30T11:55:27Z</time>
      </trkpt>
      <trkpt lat="45.41023" lon="5.91148">
        <ele>1652.16</ele>
        <time>2026-08-30T11:55:38Z</time>
      </trkpt>
      <trkpt lat="45.41023" lon="5.91159">
        <ele>1652.16</ele>
        <time>2026-08-30T11:55:47Z</time>
      </trkpt>
      <trkpt lat="45.41024" lon="5.9116">
        <ele>1651.68</ele>
        <time>2026-08-30T11:56:01Z</time>
      </trkpt>
      <trkpt lat="45.41021" lon="5.91177">
        <ele>1653.12</ele>
        <time>2026-08-30T11:56:14Z</time>
      </trkpt>
      <trkpt lat="45.41025" lon="5.91193">
        <ele>1653.12</ele>
        <time>2026-08-30T11:56:24Z</time>
      </trkpt>
      <trkpt lat="45.41038" lon="5.91208">
        <ele>1654.57</ele>
        <time>2026-08-30T11:56:41Z</time>
      </trkpt>
      <trkpt lat="45.41047" lon="5.91226">
        <ele>1655.53</ele>
        <time>2026-08-30T11:56:57Z</time>
      </trkpt>
      <trkpt lat="45.41055" lon="5.91238">
        <ele>1655.05</ele>
        <time>2026-08-30T11:57:12Z</time>
      </trkpt>
      <trkpt lat="45.41055" lon="5.91241">
        <ele>1654.57</ele>
        <time>2026-08-30T11:57:16Z</time>
      </trkpt>
      <trkpt lat="45.41057" lon="5.91248">
        <ele>1655.05</ele>
        <time>2026-08-30T11:57:21Z</time>
      </trkpt>
      <trkpt lat="45.41061" lon="5.91266">
        <ele>1656.01</ele>
        <time>2026-08-30T11:57:36Z</time>
      </trkpt>
      <trkpt lat="45.41069" lon="5.91285">
        <ele>1656.97</ele>
        <time>2026-08-30T11:57:51Z</time>
      </trkpt>
      <trkpt lat="45.41085" lon="5.91287">
        <ele>1655.53</ele>
        <time>2026-08-30T11:58:07Z</time>
      </trkpt>
      <trkpt lat="45.41089" lon="5.91286">
        <ele>1655.05</ele>
        <time>2026-08-30T11:58:11Z</time>
      </trkpt>
      <trkpt lat="45.41093" lon="5.91284">
        <ele>1654.09</ele>
        <time>2026-08-30T11:58:15Z</time>
      </trkpt>
      <trkpt lat="45.41107" lon="5.91286">
        <ele>1653.12</ele>
        <time>2026-08-30T11:58:31Z</time>
      </trkpt>
      <trkpt lat="45.4111" lon="5.91287">
        <ele>1652.64</ele>
        <time>2026-08-30T11:58:35Z</time>
      </trkpt>
      <trkpt lat="45.41123" lon="5.91287">
        <ele>1651.68</ele>
        <time>2026-08-30T11:58:50Z</time>
      </trkpt>
      <trkpt lat="45.41132" lon="5.91292">
        <ele>1650.72</ele>
        <time>2026-08-30T11:59:04Z</time>
      </trkpt>
      <trkpt lat="45.41135" lon="5.91292">
        <ele>1649.76</ele>
        <time>2026-08-30T11:59:07Z</time>
      </trkpt>
      <trkpt lat="45.4114" lon="5.91299">
        <ele>1649.76</ele>
        <time>2026-08-30T11:59:16Z</time>
      </trkpt>
      <trkpt lat="45.41147" lon="5.91312">
        <ele>1652.16</ele>
        <time>2026-08-30T11:59:32Z</time>
      </trkpt>
      <trkpt lat="45.41154" lon="5.91326">
        <ele>1651.68</ele>
        <time>2026-08-30T11:59:48Z</time>
      </trkpt>
      <trkpt lat="45.41156" lon="5.91329">
        <ele>1652.16</ele>
        <time>2026-08-30T11:59:52Z</time>
      </trkpt>
      <trkpt lat="45.41157" lon="5.91335">
        <ele>1651.68</ele>
        <time>2026-08-30T11:59:56Z</time>
      </trkpt>
      <trkpt lat="45.41162" lon="5.91353">
        <ele>1652.64</ele>
        <time>2026-08-30T12:00:14Z</time>
      </trkpt>
      <trkpt lat="45.41173" lon="5.91371">
        <ele>1653.12</ele>
        <time>2026-08-30T12:00:31Z</time>
      </trkpt>
      <trkpt lat="45.41183" lon="5.91372">
        <ele>1654.09</ele>
        <time>2026-08-30T12:00:46Z</time>
      </trkpt>
      <trkpt lat="45.41193" lon="5.91364">
        <ele>1655.53</ele>
        <time>2026-08-30T12:01:00Z</time>
      </trkpt>
      <trkpt lat="45.41198" lon="5.9136">
        <ele>1656.49</ele>
        <time>2026-08-30T12:01:16Z</time>
      </trkpt>
      <trkpt lat="45.41201" lon="5.91352">
        <ele>1657.45</ele>
        <time>2026-08-30T12:01:30Z</time>
      </trkpt>
      <trkpt lat="45.41205" lon="5.91349">
        <ele>1658.41</ele>
        <time>2026-08-30T12:01:44Z</time>
      </trkpt>
      <trkpt lat="45.41211" lon="5.91348">
        <ele>1657.45</ele>
        <time>2026-08-30T12:02:00Z</time>
      </trkpt>
      <trkpt lat="45.41219" lon="5.91353">
        <ele>1656.97</ele>
        <time>2026-08-30T12:02:18Z</time>
      </trkpt>
      <trkpt lat="45.41221" lon="5.91362">
        <ele>1657.45</ele>
        <time>2026-08-30T12:02:33Z</time>
      </trkpt>
      <trkpt lat="45.41228" lon="5.91365">
        <ele>1656.97</ele>
        <time>2026-08-30T12:02:49Z</time>
      </trkpt>
      <trkpt lat="45.41234" lon="5.91363">
        <ele>1655.53</ele>
        <time>2026-08-30T12:03:02Z</time>
      </trkpt>
      <trkpt lat="45.41237" lon="5.91365">
        <ele>1656.49</ele>
        <time>2026-08-30T12:03:17Z</time>
      </trkpt>
      <trkpt lat="45.41243" lon="5.91373">
        <ele>1657.45</ele>
        <time>2026-08-30T12:03:32Z</time>
      </trkpt>
      <trkpt lat="45.4125" lon="5.91381">
        <ele>1656.97</ele>
        <time>2026-08-30T12:03:51Z</time>
      </trkpt>
      <trkpt lat="45.41253" lon="5.91381">
        <ele>1657.45</ele>
        <time>2026-08-30T12:04:06Z</time>
      </trkpt>
      <trkpt lat="45.4126" lon="5.9138">
        <ele>1656.49</ele>
        <time>2026-08-30T12:04:19Z</time>
      </trkpt>
      <trkpt lat="45.4126" lon="5.91388">
        <ele>1657.93</ele>
        <time>2026-08-30T12:04:34Z</time>
      </trkpt>
      <trkpt lat="45.41266" lon="5.91385">
        <ele>1659.85</ele>
        <time>2026-08-30T12:04:49Z</time>
      </trkpt>
      <trkpt lat="45.41273" lon="5.91385">
        <ele>1660.33</ele>
        <time>2026-08-30T12:05:03Z</time>
      </trkpt>
      <trkpt lat="45.41281" lon="5.91391">
        <ele>1659.85</ele>
        <time>2026-08-30T12:05:18Z</time>
      </trkpt>
      <trkpt lat="45.41292" lon="5.91388">
        <ele>1659.85</ele>
        <time>2026-08-30T12:05:31Z</time>
      </trkpt>
      <trkpt lat="45.41313" lon="5.91379">
        <ele>1659.37</ele>
        <time>2026-08-30T12:05:49Z</time>
      </trkpt>
      <trkpt lat="45.41327" lon="5.91368">
        <ele>1659.85</ele>
        <time>2026-08-30T12:06:04Z</time>
      </trkpt>
      <trkpt lat="45.4133" lon="5.91358">
        <ele>1660.33</ele>
        <time>2026-08-30T12:06:17Z</time>
      </trkpt>
      <trkpt lat="45.4133" lon="5.91359">
        <ele>1659.37</ele>
        <time>2026-08-30T12:06:29Z</time>
      </trkpt>
      <trkpt lat="45.41331" lon="5.91359">
        <ele>1660.33</ele>
        <time>2026-08-30T12:07:04Z</time>
      </trkpt>
      <trkpt lat="45.41331" lon="5.91359">
        <ele>1659.37</ele>
        <time>2026-08-30T12:07:41Z</time>
      </trkpt>
      <trkpt lat="45.41331" lon="5.9136">
        <ele>1660.33</ele>
        <time>2026-08-30T12:08:05Z</time>
      </trkpt>
      <trkpt lat="45.41332" lon="5.9136">
        <ele>1660.33</ele>
        <time>2026-08-30T12:08:28Z</time>
      </trkpt>
      <trkpt lat="45.41332" lon="5.9136">
        <ele>1659.85</ele>
        <time>2026-08-30T12:08:51Z</time>
      </trkpt>
      <trkpt lat="45.41331" lon="5.91362">
        <ele>1659.85</ele>
        <time>2026-08-30T12:09:09Z</time>
      </trkpt>
      <trkpt lat="45.41334" lon="5.91363">
        <ele>1659.85</ele>
        <time>2026-08-30T12:09:22Z</time>
      </trkpt>
      <trkpt lat="45.41339" lon="5.91366">
        <ele>1660.33</ele>
        <time>2026-08-30T12:09:28Z</time>
      </trkpt>
      <trkpt lat="45.41341" lon="5.91369">
        <ele>1660.81</ele>
        <time>2026-08-30T12:09:31Z</time>
      </trkpt>
      <trkpt lat="45.41344" lon="5.91371">
        <ele>1660.33</ele>
        <time>2026-08-30T12:09:34Z</time>
      </trkpt>
      <trkpt lat="45.41357" lon="5.91364">
        <ele>1658.89</ele>
        <time>2026-08-30T12:09:49Z</time>
      </trkpt>
      <trkpt lat="45.41364" lon="5.91361">
        <ele>1657.45</ele>
        <time>2026-08-30T12:09:57Z</time>
      </trkpt>
      <trkpt lat="45.41376" lon="5.91353">
        <ele>1658.41</ele>
        <time>2026-08-30T12:10:11Z</time>
      </trkpt>
      <trkpt lat="45.41387" lon="5.91355">
        <ele>1657.93</ele>
        <time>2026-08-30T12:10:24Z</time>
      </trkpt>
      <trkpt lat="45.41387" lon="5.91356">
        <ele>1657.93</ele>
        <time>2026-08-30T12:10:25Z</time>
      </trkpt>
      <trkpt lat="45.41389" lon="5.91359">
        <ele>1657.45</ele>
        <time>2026-08-30T12:10:30Z</time>
      </trkpt>
      <trkpt lat="45.41393" lon="5.91358">
        <ele>1657.93</ele>
        <time>2026-08-30T12:10:35Z</time>
      </trkpt>
      <trkpt lat="45.41397" lon="5.91359">
        <ele>1658.41</ele>
        <time>2026-08-30T12:10:40Z</time>
      </trkpt>
      <trkpt lat="45.41401" lon="5.91363">
        <ele>1658.41</ele>
        <time>2026-08-30T12:10:44Z</time>
      </trkpt>
      <trkpt lat="45.41418" lon="5.91369">
        <ele>1657.45</ele>
        <time>2026-08-30T12:11:01Z</time>
      </trkpt>
      <trkpt lat="45.41422" lon="5.91368">
        <ele>1657.93</ele>
        <time>2026-08-30T12:11:05Z</time>
      </trkpt>
      <trkpt lat="45.41436" lon="5.9136">
        <ele>1656.01</ele>
        <time>2026-08-30T12:11:19Z</time>
      </trkpt>
      <trkpt lat="45.41451" lon="5.91367">
        <ele>1656.01</ele>
        <time>2026-08-30T12:11:34Z</time>
      </trkpt>
      <trkpt lat="45.41465" lon="5.91368">
        <ele>1658.89</ele>
        <time>2026-08-30T12:11:51Z</time>
      </trkpt>
      <trkpt lat="45.4147" lon="5.91366">
        <ele>1659.37</ele>
        <time>2026-08-30T12:11:58Z</time>
      </trkpt>
      <trkpt lat="45.41471" lon="5.91369">
        <ele>1660.33</ele>
        <time>2026-08-30T12:12:01Z</time>
      </trkpt>
      <trkpt lat="45.41481" lon="5.91368">
        <ele>1661.3</ele>
        <time>2026-08-30T12:12:14Z</time>
      </trkpt>
      <trkpt lat="45.41482" lon="5.91369">
        <ele>1661.3</ele>
        <time>2026-08-30T12:12:15Z</time>
      </trkpt>
      <trkpt lat="45.41492" lon="5.91384">
        <ele>1663.22</ele>
        <time>2026-08-30T12:12:31Z</time>
      </trkpt>
      <trkpt lat="45.41493" lon="5.91384">
        <ele>1663.7</ele>
        <time>2026-08-30T12:12:33Z</time>
      </trkpt>
      <trkpt lat="45.41502" lon="5.91383">
        <ele>1664.18</ele>
        <time>2026-08-30T12:12:42Z</time>
      </trkpt>
      <trkpt lat="45.41506" lon="5.91385">
        <ele>1664.66</ele>
        <time>2026-08-30T12:12:47Z</time>
      </trkpt>
      <trkpt lat="45.41519" lon="5.91388">
        <ele>1665.62</ele>
        <time>2026-08-30T12:13:00Z</time>
      </trkpt>
      <trkpt lat="45.41525" lon="5.9139">
        <ele>1666.1</ele>
        <time>2026-08-30T12:13:07Z</time>
      </trkpt>
      <trkpt lat="45.41532" lon="5.91388">
        <ele>1666.1</ele>
        <time>2026-08-30T12:13:15Z</time>
      </trkpt>
      <trkpt lat="45.41544" lon="5.91389">
        <ele>1667.06</ele>
        <time>2026-08-30T12:13:28Z</time>
      </trkpt>
      <trkpt lat="45.41545" lon="5.9139">
        <ele>1667.06</ele>
        <time>2026-08-30T12:13:29Z</time>
      </trkpt>
      <trkpt lat="45.41556" lon="5.91394">
        <ele>1667.06</ele>
        <time>2026-08-30T12:13:40Z</time>
      </trkpt>
      <trkpt lat="45.4156" lon="5.91394">
        <ele>1666.58</ele>
        <time>2026-08-30T12:13:44Z</time>
      </trkpt>
      <trkpt lat="45.41567" lon="5.914">
        <ele>1667.06</ele>
        <time>2026-08-30T12:13:53Z</time>
      </trkpt>
      <trkpt lat="45.41581" lon="5.91408">
        <ele>1667.06</ele>
        <time>2026-08-30T12:14:09Z</time>
      </trkpt>
      <trkpt lat="45.4159" lon="5.91415">
        <ele>1668.02</ele>
        <time>2026-08-30T12:14:19Z</time>
      </trkpt>
      <trkpt lat="45.41594" lon="5.91422">
        <ele>1668.51</ele>
        <time>2026-08-30T12:14:26Z</time>
      </trkpt>
      <trkpt lat="45.4161" lon="5.91422">
        <ele>1669.95</ele>
        <time>2026-08-30T12:14:42Z</time>
      </trkpt>
      <trkpt lat="45.41612" lon="5.91422">
        <ele>1669.95</ele>
        <time>2026-08-30T12:14:44Z</time>
      </trkpt>
      <trkpt lat="45.41615" lon="5.91423">
        <ele>1670.43</ele>
        <time>2026-08-30T12:14:47Z</time>
      </trkpt>
      <trkpt lat="45.4162" lon="5.91421">
        <ele>1669.95</ele>
        <time>2026-08-30T12:14:52Z</time>
      </trkpt>
      <trkpt lat="45.41624" lon="5.91421">
        <ele>1669.95</ele>
        <time>2026-08-30T12:14:55Z</time>
      </trkpt>
      <trkpt lat="45.41632" lon="5.91421">
        <ele>1669.95</ele>
        <time>2026-08-30T12:15:04Z</time>
      </trkpt>
      <trkpt lat="45.41647" lon="5.91425">
        <ele>1669.95</ele>
        <time>2026-08-30T12:15:19Z</time>
      </trkpt>
      <trkpt lat="45.41657" lon="5.91431">
        <ele>1668.99</ele>
        <time>2026-08-30T12:15:32Z</time>
      </trkpt>
      <trkpt lat="45.41661" lon="5.91431">
        <ele>1668.02</ele>
        <time>2026-08-30T12:15:49Z</time>
      </trkpt>
      <trkpt lat="45.41661" lon="5.91431">
        <ele>1667.54</ele>
        <time>2026-08-30T12:15:52Z</time>
      </trkpt>
      <trkpt lat="45.41664" lon="5.91431">
        <ele>1666.58</ele>
        <time>2026-08-30T12:15:56Z</time>
      </trkpt>
      <trkpt lat="45.41665" lon="5.91435">
        <ele>1666.58</ele>
        <time>2026-08-30T12:15:58Z</time>
      </trkpt>
      <trkpt lat="45.41667" lon="5.91441">
        <ele>1666.1</ele>
        <time>2026-08-30T12:16:02Z</time>
      </trkpt>
      <trkpt lat="45.41684" lon="5.91453">
        <ele>1665.62</ele>
        <time>2026-08-30T12:16:18Z</time>
      </trkpt>
      <trkpt lat="45.4169" lon="5.91462">
        <ele>1665.62</ele>
        <time>2026-08-30T12:16:27Z</time>
      </trkpt>
      <trkpt lat="45.41696" lon="5.91474">
        <ele>1665.14</ele>
        <time>2026-08-30T12:16:36Z</time>
      </trkpt>
      <trkpt lat="45.417" lon="5.91478">
        <ele>1665.14</ele>
        <time>2026-08-30T12:16:40Z</time>
      </trkpt>
      <trkpt lat="45.41719" lon="5.91489">
        <ele>1665.14</ele>
        <time>2026-08-30T12:16:58Z</time>
      </trkpt>
      <trkpt lat="45.41724" lon="5.91489">
        <ele>1665.14</ele>
        <time>2026-08-30T12:17:02Z</time>
      </trkpt>
      <trkpt lat="45.41729" lon="5.91491">
        <ele>1665.14</ele>
        <time>2026-08-30T12:17:06Z</time>
      </trkpt>
      <trkpt lat="45.41739" lon="5.91499">
        <ele>1664.66</ele>
        <time>2026-08-30T12:17:21Z</time>
      </trkpt>
      <trkpt lat="45.4174" lon="5.91501">
        <ele>1664.18</ele>
        <time>2026-08-30T12:17:23Z</time>
      </trkpt>
      <trkpt lat="45.41744" lon="5.915">
        <ele>1664.18</ele>
        <time>2026-08-30T12:17:27Z</time>
      </trkpt>
      <trkpt lat="45.41757" lon="5.91507">
        <ele>1663.7</ele>
        <time>2026-08-30T12:17:39Z</time>
      </trkpt>
      <trkpt lat="45.41764" lon="5.91512">
        <ele>1663.22</ele>
        <time>2026-08-30T12:17:47Z</time>
      </trkpt>
      <trkpt lat="45.41785" lon="5.91523">
        <ele>1662.26</ele>
        <time>2026-08-30T12:18:06Z</time>
      </trkpt>
      <trkpt lat="45.41796" lon="5.91529">
        <ele>1661.78</ele>
        <time>2026-08-30T12:18:17Z</time>
      </trkpt>
      <trkpt lat="45.4181" lon="5.9153">
        <ele>1661.3</ele>
        <time>2026-08-30T12:18:30Z</time>
      </trkpt>
      <trkpt lat="45.41825" lon="5.91537">
        <ele>1661.3</ele>
        <time>2026-08-30T12:18:44Z</time>
      </trkpt>
      <trkpt lat="45.41828" lon="5.91538">
        <ele>1660.81</ele>
        <time>2026-08-30T12:18:47Z</time>
      </trkpt>
      <trkpt lat="45.41839" lon="5.91541">
        <ele>1659.85</ele>
        <time>2026-08-30T12:19:00Z</time>
      </trkpt>
      <trkpt lat="45.41848" lon="5.91546">
        <ele>1659.37</ele>
        <time>2026-08-30T12:19:10Z</time>
      </trkpt>
      <trkpt lat="45.41854" lon="5.91551">
        <ele>1658.41</ele>
        <time>2026-08-30T12:19:24Z</time>
      </trkpt>
      <trkpt lat="45.41866" lon="5.91546">
        <ele>1656.49</ele>
        <time>2026-08-30T12:19:39Z</time>
      </trkpt>
      <trkpt lat="45.41867" lon="5.91545">
        <ele>1656.49</ele>
        <time>2026-08-30T12:19:40Z</time>
      </trkpt>
      <trkpt lat="45.41878" lon="5.91548">
        <ele>1655.53</ele>
        <time>2026-08-30T12:19:52Z</time>
      </trkpt>
      <trkpt lat="45.41879" lon="5.91549">
        <ele>1655.53</ele>
        <time>2026-08-30T12:19:54Z</time>
      </trkpt>
      <trkpt lat="45.41896" lon="5.91569">
        <ele>1655.53</ele>
        <time>2026-08-30T12:20:13Z</time>
      </trkpt>
      <trkpt lat="45.41914" lon="5.91584">
        <ele>1656.49</ele>
        <time>2026-08-30T12:20:31Z</time>
      </trkpt>
      <trkpt lat="45.41932" lon="5.91592">
        <ele>1656.49</ele>
        <time>2026-08-30T12:20:47Z</time>
      </trkpt>
      <trkpt lat="45.4195" lon="5.91603">
        <ele>1655.53</ele>
        <time>2026-08-30T12:21:03Z</time>
      </trkpt>
      <trkpt lat="45.41967" lon="5.91606">
        <ele>1655.53</ele>
        <time>2026-08-30T12:21:17Z</time>
      </trkpt>
      <trkpt lat="45.41985" lon="5.9161">
        <ele>1655.53</ele>
        <time>2026-08-30T12:21:34Z</time>
      </trkpt>
      <trkpt lat="45.42006" lon="5.91614">
        <ele>1655.53</ele>
        <time>2026-08-30T12:21:51Z</time>
      </trkpt>
      <trkpt lat="45.42018" lon="5.91616">
        <ele>1655.53</ele>
        <time>2026-08-30T12:22:03Z</time>
      </trkpt>
      <trkpt lat="45.42023" lon="5.91621">
        <ele>1654.57</ele>
        <time>2026-08-30T12:22:11Z</time>
      </trkpt>
      <trkpt lat="45.42033" lon="5.91624">
        <ele>1655.53</ele>
        <time>2026-08-30T12:22:24Z</time>
      </trkpt>
      <trkpt lat="45.42049" lon="5.9163">
        <ele>1656.01</ele>
        <time>2026-08-30T12:22:38Z</time>
      </trkpt>
      <trkpt lat="45.42052" lon="5.9163">
        <ele>1655.53</ele>
        <time>2026-08-30T12:22:41Z</time>
      </trkpt>
      <trkpt lat="45.42055" lon="5.91632">
        <ele>1656.01</ele>
        <time>2026-08-30T12:22:43Z</time>
      </trkpt>
      <trkpt lat="45.42058" lon="5.91633">
        <ele>1655.05</ele>
        <time>2026-08-30T12:22:46Z</time>
      </trkpt>
      <trkpt lat="45.42065" lon="5.91638">
        <ele>1655.53</ele>
        <time>2026-08-30T12:22:52Z</time>
      </trkpt>
      <trkpt lat="45.4207" lon="5.91639">
        <ele>1655.05</ele>
        <time>2026-08-30T12:22:56Z</time>
      </trkpt>
      <trkpt lat="45.42076" lon="5.91644">
        <ele>1653.6</ele>
        <time>2026-08-30T12:23:01Z</time>
      </trkpt>
      <trkpt lat="45.42081" lon="5.91649">
        <ele>1654.09</ele>
        <time>2026-08-30T12:23:07Z</time>
      </trkpt>
      <trkpt lat="45.42085" lon="5.91644">
        <ele>1653.12</ele>
        <time>2026-08-30T12:23:11Z</time>
      </trkpt>
      <trkpt lat="45.4209" lon="5.91638">
        <ele>1652.64</ele>
        <time>2026-08-30T12:23:16Z</time>
      </trkpt>
      <trkpt lat="45.42099" lon="5.91628">
        <ele>1653.6</ele>
        <time>2026-08-30T12:23:30Z</time>
      </trkpt>
      <trkpt lat="45.42103" lon="5.91628">
        <ele>1653.12</ele>
        <time>2026-08-30T12:23:34Z</time>
      </trkpt>
      <trkpt lat="45.42106" lon="5.91628">
        <ele>1652.64</ele>
        <time>2026-08-30T12:23:37Z</time>
      </trkpt>
      <trkpt lat="45.42108" lon="5.91627">
        <ele>1652.64</ele>
        <time>2026-08-30T12:23:40Z</time>
      </trkpt>
      <trkpt lat="45.42112" lon="5.91629">
        <ele>1653.12</ele>
        <time>2026-08-30T12:23:44Z</time>
      </trkpt>
      <trkpt lat="45.42114" lon="5.91629">
        <ele>1653.12</ele>
        <time>2026-08-30T12:23:46Z</time>
      </trkpt>
      <trkpt lat="45.42135" lon="5.91638">
        <ele>1652.16</ele>
        <time>2026-08-30T12:24:02Z</time>
      </trkpt>
      <trkpt lat="45.42143" lon="5.91641">
        <ele>1651.68</ele>
        <time>2026-08-30T12:24:08Z</time>
      </trkpt>
      <trkpt lat="45.42161" lon="5.91654">
        <ele>1649.76</ele>
        <time>2026-08-30T12:24:25Z</time>
      </trkpt>
      <trkpt lat="45.42178" lon="5.91668">
        <ele>1648.8</ele>
        <time>2026-08-30T12:24:41Z</time>
      </trkpt>
      <trkpt lat="45.42188" lon="5.91683">
        <ele>1648.32</ele>
        <time>2026-08-30T12:24:54Z</time>
      </trkpt>
      <trkpt lat="45.42197" lon="5.91691">
        <ele>1646.4</ele>
        <time>2026-08-30T12:25:03Z</time>
      </trkpt>
      <trkpt lat="45.4221" lon="5.91706">
        <ele>1645.43</ele>
        <time>2026-08-30T12:25:18Z</time>
      </trkpt>
      <trkpt lat="45.42221" lon="5.91718">
        <ele>1643.99</ele>
        <time>2026-08-30T12:25:33Z</time>
      </trkpt>
      <trkpt lat="45.42234" lon="5.91718">
        <ele>1643.51</ele>
        <time>2026-08-30T12:25:44Z</time>
      </trkpt>
      <trkpt lat="45.4225" lon="5.91721">
        <ele>1643.03</ele>
        <time>2026-08-30T12:25:59Z</time>
      </trkpt>
      <trkpt lat="45.42256" lon="5.91724">
        <ele>1643.03</ele>
        <time>2026-08-30T12:26:05Z</time>
      </trkpt>
      <trkpt lat="45.42262" lon="5.91725">
        <ele>1643.03</ele>
        <time>2026-08-30T12:26:10Z</time>
      </trkpt>
      <trkpt lat="45.42267" lon="5.91724">
        <ele>1643.03</ele>
        <time>2026-08-30T12:26:15Z</time>
      </trkpt>
      <trkpt lat="45.42272" lon="5.91727">
        <ele>1642.07</ele>
        <time>2026-08-30T12:26:24Z</time>
      </trkpt>
      <trkpt lat="45.42274" lon="5.91728">
        <ele>1642.07</ele>
        <time>2026-08-30T12:26:26Z</time>
      </trkpt>
      <trkpt lat="45.42276" lon="5.91729">
        <ele>1642.07</ele>
        <time>2026-08-30T12:26:28Z</time>
      </trkpt>
      <trkpt lat="45.42293" lon="5.91735">
        <ele>1641.59</ele>
        <time>2026-08-30T12:26:43Z</time>
      </trkpt>
      <trkpt lat="45.42304" lon="5.91732">
        <ele>1641.59</ele>
        <time>2026-08-30T12:26:52Z</time>
      </trkpt>
      <trkpt lat="45.42311" lon="5.9173">
        <ele>1640.63</ele>
        <time>2026-08-30T12:26:58Z</time>
      </trkpt>
      <trkpt lat="45.42317" lon="5.91733">
        <ele>1640.15</ele>
        <time>2026-08-30T12:27:05Z</time>
      </trkpt>
      <trkpt lat="45.42325" lon="5.91751">
        <ele>1639.19</ele>
        <time>2026-08-30T12:27:18Z</time>
      </trkpt>
      <trkpt lat="45.42333" lon="5.91759">
        <ele>1639.19</ele>
        <time>2026-08-30T12:27:28Z</time>
      </trkpt>
      <trkpt lat="45.42341" lon="5.91769">
        <ele>1639.19</ele>
        <time>2026-08-30T12:27:37Z</time>
      </trkpt>
      <trkpt lat="45.4235" lon="5.91788">
        <ele>1638.7</ele>
        <time>2026-08-30T12:27:54Z</time>
      </trkpt>
      <trkpt lat="45.42351" lon="5.91797">
        <ele>1638.7</ele>
        <time>2026-08-30T12:28:02Z</time>
      </trkpt>
      <trkpt lat="45.42355" lon="5.91799">
        <ele>1637.74</ele>
        <time>2026-08-30T12:28:06Z</time>
      </trkpt>
      <trkpt lat="45.42371" lon="5.91805">
        <ele>1636.78</ele>
        <time>2026-08-30T12:28:19Z</time>
      </trkpt>
      <trkpt lat="45.42382" lon="5.91806">
        <ele>1636.3</ele>
        <time>2026-08-30T12:28:28Z</time>
      </trkpt>
      <trkpt lat="45.42392" lon="5.91815">
        <ele>1635.82</ele>
        <time>2026-08-30T12:28:37Z</time>
      </trkpt>
      <trkpt lat="45.42404" lon="5.91824">
        <ele>1634.38</ele>
        <time>2026-08-30T12:28:52Z</time>
      </trkpt>
      <trkpt lat="45.42412" lon="5.91825">
        <ele>1631.98</ele>
        <time>2026-08-30T12:29:05Z</time>
      </trkpt>
      <trkpt lat="45.42416" lon="5.91828">
        <ele>1631.49</ele>
        <time>2026-08-30T12:29:10Z</time>
      </trkpt>
      <trkpt lat="45.42426" lon="5.9185">
        <ele>1630.53</ele>
        <time>2026-08-30T12:29:25Z</time>
      </trkpt>
      <trkpt lat="45.42429" lon="5.9185">
        <ele>1630.05</ele>
        <time>2026-08-30T12:29:27Z</time>
      </trkpt>
      <trkpt lat="45.4244" lon="5.91849">
        <ele>1630.05</ele>
        <time>2026-08-30T12:29:35Z</time>
      </trkpt>
      <trkpt lat="45.42446" lon="5.91851">
        <ele>1628.61</ele>
        <time>2026-08-30T12:29:40Z</time>
      </trkpt>
      <trkpt lat="45.4245" lon="5.91851">
        <ele>1628.13</ele>
        <time>2026-08-30T12:29:43Z</time>
      </trkpt>
      <trkpt lat="45.42454" lon="5.9185">
        <ele>1627.65</ele>
        <time>2026-08-30T12:29:46Z</time>
      </trkpt>
      <trkpt lat="45.42463" lon="5.91851">
        <ele>1626.69</ele>
        <time>2026-08-30T12:29:54Z</time>
      </trkpt>
      <trkpt lat="45.4247" lon="5.91854">
        <ele>1626.21</ele>
        <time>2026-08-30T12:30:02Z</time>
      </trkpt>
      <trkpt lat="45.42473" lon="5.91854">
        <ele>1626.21</ele>
        <time>2026-08-30T12:30:05Z</time>
      </trkpt>
      <trkpt lat="45.42485" lon="5.91871">
        <ele>1624.77</ele>
        <time>2026-08-30T12:30:21Z</time>
      </trkpt>
      <trkpt lat="45.42488" lon="5.91874">
        <ele>1624.77</ele>
        <time>2026-08-30T12:30:25Z</time>
      </trkpt>
      <trkpt lat="45.42497" lon="5.91895">
        <ele>1621.88</ele>
        <time>2026-08-30T12:30:40Z</time>
      </trkpt>
      <trkpt lat="45.42505" lon="5.91911">
        <ele>1622.36</ele>
        <time>2026-08-30T12:30:53Z</time>
      </trkpt>
      <trkpt lat="45.42508" lon="5.91915">
        <ele>1621.4</ele>
        <time>2026-08-30T12:30:57Z</time>
      </trkpt>
      <trkpt lat="45.42512" lon="5.91913">
        <ele>1620.92</ele>
        <time>2026-08-30T12:31:00Z</time>
      </trkpt>
      <trkpt lat="45.42521" lon="5.9191">
        <ele>1619</ele>
        <time>2026-08-30T12:31:12Z</time>
      </trkpt>
      <trkpt lat="45.42524" lon="5.91912">
        <ele>1618.04</ele>
        <time>2026-08-30T12:31:18Z</time>
      </trkpt>
      <trkpt lat="45.42525" lon="5.91916">
        <ele>1617.56</ele>
        <time>2026-08-30T12:31:21Z</time>
      </trkpt>
      <trkpt lat="45.42526" lon="5.91922">
        <ele>1616.59</ele>
        <time>2026-08-30T12:31:25Z</time>
      </trkpt>
      <trkpt lat="45.4254" lon="5.91929">
        <ele>1615.15</ele>
        <time>2026-08-30T12:31:39Z</time>
      </trkpt>
      <trkpt lat="45.42544" lon="5.91929">
        <ele>1613.71</ele>
        <time>2026-08-30T12:31:46Z</time>
      </trkpt>
      <trkpt lat="45.42544" lon="5.91941">
        <ele>1611.79</ele>
        <time>2026-08-30T12:32:00Z</time>
      </trkpt>
      <trkpt lat="45.42546" lon="5.91953">
        <ele>1610.83</ele>
        <time>2026-08-30T12:32:11Z</time>
      </trkpt>
      <trkpt lat="45.4255" lon="5.91956">
        <ele>1610.83</ele>
        <time>2026-08-30T12:32:15Z</time>
      </trkpt>
      <trkpt lat="45.42553" lon="5.91959">
        <ele>1610.35</ele>
        <time>2026-08-30T12:32:19Z</time>
      </trkpt>
      <trkpt lat="45.42564" lon="5.91961">
        <ele>1608.9</ele>
        <time>2026-08-30T12:32:30Z</time>
      </trkpt>
      <trkpt lat="45.42565" lon="5.91963">
        <ele>1608.42</ele>
        <time>2026-08-30T12:32:32Z</time>
      </trkpt>
      <trkpt lat="45.42569" lon="5.91967">
        <ele>1607.94</ele>
        <time>2026-08-30T12:32:36Z</time>
      </trkpt>
      <trkpt lat="45.42573" lon="5.91972">
        <ele>1606.98</ele>
        <time>2026-08-30T12:32:43Z</time>
      </trkpt>
      <trkpt lat="45.42582" lon="5.91973">
        <ele>1606.02</ele>
        <time>2026-08-30T12:32:54Z</time>
      </trkpt>
      <trkpt lat="45.42591" lon="5.91973">
        <ele>1605.06</ele>
        <time>2026-08-30T12:33:07Z</time>
      </trkpt>
      <trkpt lat="45.42592" lon="5.91975">
        <ele>1604.1</ele>
        <time>2026-08-30T12:33:10Z</time>
      </trkpt>
      <trkpt lat="45.42592" lon="5.91978">
        <ele>1604.1</ele>
        <time>2026-08-30T12:33:13Z</time>
      </trkpt>
      <trkpt lat="45.426" lon="5.91989">
        <ele>1603.14</ele>
        <time>2026-08-30T12:33:23Z</time>
      </trkpt>
      <trkpt lat="45.42612" lon="5.92">
        <ele>1602.17</ele>
        <time>2026-08-30T12:33:37Z</time>
      </trkpt>
      <trkpt lat="45.42624" lon="5.92011">
        <ele>1601.69</ele>
        <time>2026-08-30T12:33:51Z</time>
      </trkpt>
      <trkpt lat="45.42639" lon="5.9202">
        <ele>1600.73</ele>
        <time>2026-08-30T12:34:05Z</time>
      </trkpt>
      <trkpt lat="45.42647" lon="5.92021">
        <ele>1600.73</ele>
        <time>2026-08-30T12:34:11Z</time>
      </trkpt>
      <trkpt lat="45.42652" lon="5.92027">
        <ele>1600.73</ele>
        <time>2026-08-30T12:34:16Z</time>
      </trkpt>
      <trkpt lat="45.42659" lon="5.92031">
        <ele>1600.25</ele>
        <time>2026-08-30T12:34:22Z</time>
      </trkpt>
      <trkpt lat="45.42684" lon="5.92031">
        <ele>1598.81</ele>
        <time>2026-08-30T12:34:40Z</time>
      </trkpt>
      <trkpt lat="45.42703" lon="5.92036">
        <ele>1596.89</ele>
        <time>2026-08-30T12:34:58Z</time>
      </trkpt>
      <trkpt lat="45.42707" lon="5.92041">
        <ele>1596.41</ele>
        <time>2026-08-30T12:35:02Z</time>
      </trkpt>
      <trkpt lat="45.42714" lon="5.92042">
        <ele>1597.37</ele>
        <time>2026-08-30T12:35:08Z</time>
      </trkpt>
      <trkpt lat="45.42729" lon="5.92048">
        <ele>1597.37</ele>
        <time>2026-08-30T12:35:22Z</time>
      </trkpt>
      <trkpt lat="45.42739" lon="5.92053">
        <ele>1596.89</ele>
        <time>2026-08-30T12:35:30Z</time>
      </trkpt>
      <trkpt lat="45.42751" lon="5.92063">
        <ele>1596.41</ele>
        <time>2026-08-30T12:35:43Z</time>
      </trkpt>
      <trkpt lat="45.42762" lon="5.92063">
        <ele>1596.41</ele>
        <time>2026-08-30T12:35:51Z</time>
      </trkpt>
      <trkpt lat="45.42776" lon="5.92065">
        <ele>1595.93</ele>
        <time>2026-08-30T12:36:04Z</time>
      </trkpt>
      <trkpt lat="45.4278" lon="5.92067">
        <ele>1595.45</ele>
        <time>2026-08-30T12:36:08Z</time>
      </trkpt>
      <trkpt lat="45.42787" lon="5.92068">
        <ele>1595.45</ele>
        <time>2026-08-30T12:36:13Z</time>
      </trkpt>
      <trkpt lat="45.42806" lon="5.92079">
        <ele>1594.96</ele>
        <time>2026-08-30T12:36:29Z</time>
      </trkpt>
      <trkpt lat="45.42824" lon="5.92085">
        <ele>1595.93</ele>
        <time>2026-08-30T12:36:45Z</time>
      </trkpt>
      <trkpt lat="45.42831" lon="5.92089">
        <ele>1597.37</ele>
        <time>2026-08-30T12:36:55Z</time>
      </trkpt>
      <trkpt lat="45.42841" lon="5.92097">
        <ele>1600.25</ele>
        <time>2026-08-30T12:37:10Z</time>
      </trkpt>
      <trkpt lat="45.42857" lon="5.92102">
        <ele>1602.17</ele>
        <time>2026-08-30T12:37:26Z</time>
      </trkpt>
      <trkpt lat="45.42861" lon="5.92103">
        <ele>1602.66</ele>
        <time>2026-08-30T12:37:38Z</time>
      </trkpt>
      <trkpt lat="45.42868" lon="5.921">
        <ele>1601.69</ele>
        <time>2026-08-30T12:37:53Z</time>
      </trkpt>
      <trkpt lat="45.42877" lon="5.92103">
        <ele>1599.77</ele>
        <time>2026-08-30T12:38:07Z</time>
      </trkpt>
      <trkpt lat="45.42877" lon="5.92104">
        <ele>1599.77</ele>
        <time>2026-08-30T12:38:13Z</time>
      </trkpt>
      <trkpt lat="45.42883" lon="5.92098">
        <ele>1596.41</ele>
        <time>2026-08-30T12:38:25Z</time>
      </trkpt>
      <trkpt lat="45.42884" lon="5.92091">
        <ele>1594.48</ele>
        <time>2026-08-30T12:38:33Z</time>
      </trkpt>
      <trkpt lat="45.42889" lon="5.92093">
        <ele>1593.52</ele>
        <time>2026-08-30T12:38:38Z</time>
      </trkpt>
      <trkpt lat="45.42892" lon="5.92093">
        <ele>1593.52</ele>
        <time>2026-08-30T12:38:41Z</time>
      </trkpt>
      <trkpt lat="45.42895" lon="5.92096">
        <ele>1592.56</ele>
        <time>2026-08-30T12:38:45Z</time>
      </trkpt>
      <trkpt lat="45.42905" lon="5.92114">
        <ele>1590.16</ele>
        <time>2026-08-30T12:38:59Z</time>
      </trkpt>
      <trkpt lat="45.42908" lon="5.9213">
        <ele>1590.64</ele>
        <time>2026-08-30T12:39:09Z</time>
      </trkpt>
      <trkpt lat="45.42914" lon="5.9214">
        <ele>1590.64</ele>
        <time>2026-08-30T12:39:19Z</time>
      </trkpt>
      <trkpt lat="45.42916" lon="5.92143">
        <ele>1590.16</ele>
        <time>2026-08-30T12:39:22Z</time>
      </trkpt>
      <trkpt lat="45.42924" lon="5.92148">
        <ele>1590.16</ele>
        <time>2026-08-30T12:39:32Z</time>
      </trkpt>
      <trkpt lat="45.4294" lon="5.92153">
        <ele>1590.16</ele>
        <time>2026-08-30T12:39:47Z</time>
      </trkpt>
      <trkpt lat="45.42949" lon="5.92155">
        <ele>1589.68</ele>
        <time>2026-08-30T12:39:55Z</time>
      </trkpt>
      <trkpt lat="45.42953" lon="5.92157">
        <ele>1589.68</ele>
        <time>2026-08-30T12:39:59Z</time>
      </trkpt>
      <trkpt lat="45.42959" lon="5.9216">
        <ele>1589.2</ele>
        <time>2026-08-30T12:40:06Z</time>
      </trkpt>
      <trkpt lat="45.42967" lon="5.92162">
        <ele>1588.72</ele>
        <time>2026-08-30T12:40:15Z</time>
      </trkpt>
      <trkpt lat="45.42985" lon="5.92172">
        <ele>1586.31</ele>
        <time>2026-08-30T12:40:33Z</time>
      </trkpt>
      <trkpt lat="45.43003" lon="5.9217">
        <ele>1582.95</ele>
        <time>2026-08-30T12:40:49Z</time>
      </trkpt>
      <trkpt lat="45.43021" lon="5.92175">
        <ele>1581.51</ele>
        <time>2026-08-30T12:41:06Z</time>
      </trkpt>
      <trkpt lat="45.43033" lon="5.92185">
        <ele>1580.54</ele>
        <time>2026-08-30T12:41:22Z</time>
      </trkpt>
      <trkpt lat="45.43054" lon="5.92186">
        <ele>1578.62</ele>
        <time>2026-08-30T12:41:39Z</time>
      </trkpt>
      <trkpt lat="45.43065" lon="5.92192">
        <ele>1577.18</ele>
        <time>2026-08-30T12:41:56Z</time>
      </trkpt>
      <trkpt lat="45.43075" lon="5.92196">
        <ele>1576.7</ele>
        <time>2026-08-30T12:42:10Z</time>
      </trkpt>
      <trkpt lat="45.43096" lon="5.92205">
        <ele>1575.26</ele>
        <time>2026-08-30T12:42:29Z</time>
      </trkpt>
      <trkpt lat="45.43111" lon="5.9221">
        <ele>1573.82</ele>
        <time>2026-08-30T12:42:45Z</time>
      </trkpt>
      <trkpt lat="45.43126" lon="5.92208">
        <ele>1572.37</ele>
        <time>2026-08-30T12:42:59Z</time>
      </trkpt>
      <trkpt lat="45.43141" lon="5.9221">
        <ele>1571.41</ele>
        <time>2026-08-30T12:43:12Z</time>
      </trkpt>
      <trkpt lat="45.43149" lon="5.92215">
        <ele>1571.89</ele>
        <time>2026-08-30T12:43:31Z</time>
      </trkpt>
      <trkpt lat="45.43163" lon="5.9221">
        <ele>1570.45</ele>
        <time>2026-08-30T12:43:46Z</time>
      </trkpt>
      <trkpt lat="45.43176" lon="5.92204">
        <ele>1569.01</ele>
        <time>2026-08-30T12:44:02Z</time>
      </trkpt>
      <trkpt lat="45.43195" lon="5.92198">
        <ele>1567.57</ele>
        <time>2026-08-30T12:44:17Z</time>
      </trkpt>
      <trkpt lat="45.43195" lon="5.92198">
        <ele>1567.09</ele>
        <time>2026-08-30T12:44:19Z</time>
      </trkpt>
      <trkpt lat="45.43211" lon="5.92189">
        <ele>1565.64</ele>
        <time>2026-08-30T12:44:32Z</time>
      </trkpt>
      <trkpt lat="45.43221" lon="5.92186">
        <ele>1565.16</ele>
        <time>2026-08-30T12:44:42Z</time>
      </trkpt>
      <trkpt lat="45.4323" lon="5.92179">
        <ele>1564.68</ele>
        <time>2026-08-30T12:44:48Z</time>
      </trkpt>
      <trkpt lat="45.43247" lon="5.92157">
        <ele>1565.64</ele>
        <time>2026-08-30T12:45:05Z</time>
      </trkpt>
      <trkpt lat="45.43253" lon="5.92146">
        <ele>1567.09</ele>
        <time>2026-08-30T12:45:16Z</time>
      </trkpt>
      <trkpt lat="45.43255" lon="5.92141">
        <ele>1567.57</ele>
        <time>2026-08-30T12:45:19Z</time>
      </trkpt>
      <trkpt lat="45.4326" lon="5.92139">
        <ele>1568.05</ele>
        <time>2026-08-30T12:45:24Z</time>
      </trkpt>
      <trkpt lat="45.43262" lon="5.9214">
        <ele>1567.09</ele>
        <time>2026-08-30T12:45:31Z</time>
      </trkpt>
      <trkpt lat="45.43267" lon="5.92138">
        <ele>1566.61</ele>
        <time>2026-08-30T12:45:35Z</time>
      </trkpt>
      <trkpt lat="45.43269" lon="5.92131">
        <ele>1566.61</ele>
        <time>2026-08-30T12:45:39Z</time>
      </trkpt>
      <trkpt lat="45.43275" lon="5.92133">
        <ele>1567.09</ele>
        <time>2026-08-30T12:45:49Z</time>
      </trkpt>
      <trkpt lat="45.43278" lon="5.92143">
        <ele>1567.57</ele>
        <time>2026-08-30T12:45:57Z</time>
      </trkpt>
      <trkpt lat="45.43284" lon="5.92151">
        <ele>1568.53</ele>
        <time>2026-08-30T12:46:07Z</time>
      </trkpt>
      <trkpt lat="45.4329" lon="5.92155">
        <ele>1568.53</ele>
        <time>2026-08-30T12:46:14Z</time>
      </trkpt>
      <trkpt lat="45.43304" lon="5.92169">
        <ele>1568.05</ele>
        <time>2026-08-30T12:46:32Z</time>
      </trkpt>
      <trkpt lat="45.4331" lon="5.9219">
        <ele>1566.61</ele>
        <time>2026-08-30T12:46:48Z</time>
      </trkpt>
      <trkpt lat="45.43324" lon="5.9221">
        <ele>1566.61</ele>
        <time>2026-08-30T12:47:05Z</time>
      </trkpt>
      <trkpt lat="45.4334" lon="5.92222">
        <ele>1565.64</ele>
        <time>2026-08-30T12:47:23Z</time>
      </trkpt>
      <trkpt lat="45.43349" lon="5.92221">
        <ele>1563.72</ele>
        <time>2026-08-30T12:47:36Z</time>
      </trkpt>
      <trkpt lat="45.43361" lon="5.92237">
        <ele>1562.76</ele>
        <time>2026-08-30T12:47:53Z</time>
      </trkpt>
      <trkpt lat="45.43373" lon="5.92252">
        <ele>1561.8</ele>
        <time>2026-08-30T12:48:10Z</time>
      </trkpt>
      <trkpt lat="45.43376" lon="5.92266">
        <ele>1559.88</ele>
        <time>2026-08-30T12:48:24Z</time>
      </trkpt>
      <trkpt lat="45.43384" lon="5.9227">
        <ele>1557.47</ele>
        <time>2026-08-30T12:48:39Z</time>
      </trkpt>
      <trkpt lat="45.43389" lon="5.92273">
        <ele>1556.51</ele>
        <time>2026-08-30T12:48:48Z</time>
      </trkpt>
      <trkpt lat="45.43394" lon="5.92279">
        <ele>1555.07</ele>
        <time>2026-08-30T12:48:55Z</time>
      </trkpt>
      <trkpt lat="45.43402" lon="5.92287">
        <ele>1553.63</ele>
        <time>2026-08-30T12:49:05Z</time>
      </trkpt>
      <trkpt lat="45.43412" lon="5.92301">
        <ele>1552.67</ele>
        <time>2026-08-30T12:49:21Z</time>
      </trkpt>
      <trkpt lat="45.43417" lon="5.92323">
        <ele>1551.71</ele>
        <time>2026-08-30T12:49:36Z</time>
      </trkpt>
      <trkpt lat="45.43424" lon="5.9234">
        <ele>1550.26</ele>
        <time>2026-08-30T12:49:51Z</time>
      </trkpt>
      <trkpt lat="45.43429" lon="5.92358">
        <ele>1549.78</ele>
        <time>2026-08-30T12:50:07Z</time>
      </trkpt>
      <trkpt lat="45.4343" lon="5.92363">
        <ele>1550.26</ele>
        <time>2026-08-30T12:50:42Z</time>
      </trkpt>
      <trkpt lat="45.43446" lon="5.92383">
        <ele>1549.3</ele>
        <time>2026-08-30T12:50:59Z</time>
      </trkpt>
      <trkpt lat="45.43458" lon="5.92401">
        <ele>1549.3</ele>
        <time>2026-08-30T12:51:17Z</time>
      </trkpt>
      <trkpt lat="45.4347" lon="5.92407">
        <ele>1548.34</ele>
        <time>2026-08-30T12:51:34Z</time>
      </trkpt>
      <trkpt lat="45.43486" lon="5.92418">
        <ele>1547.86</ele>
        <time>2026-08-30T12:51:46Z</time>
      </trkpt>
      <trkpt lat="45.43493" lon="5.92418">
        <ele>1547.38</ele>
        <time>2026-08-30T12:51:49Z</time>
      </trkpt>
      <trkpt lat="45.43495" lon="5.92418">
        <ele>1546.42</ele>
        <time>2026-08-30T12:51:54Z</time>
      </trkpt>
      <trkpt lat="45.43495" lon="5.92423">
        <ele>1546.42</ele>
        <time>2026-08-30T12:51:58Z</time>
      </trkpt>
      <trkpt lat="45.43495" lon="5.92425">
        <ele>1545.94</ele>
        <time>2026-08-30T12:52:00Z</time>
      </trkpt>
      <trkpt lat="45.43503" lon="5.92436">
        <ele>1543.53</ele>
        <time>2026-08-30T12:52:15Z</time>
      </trkpt>
      <trkpt lat="45.43508" lon="5.92444">
        <ele>1542.09</ele>
        <time>2026-08-30T12:52:23Z</time>
      </trkpt>
      <trkpt lat="45.43512" lon="5.92454">
        <ele>1541.13</ele>
        <time>2026-08-30T12:52:31Z</time>
      </trkpt>
      <trkpt lat="45.43527" lon="5.92445">
        <ele>1540.65</ele>
        <time>2026-08-30T12:52:37Z</time>
      </trkpt>
      <trkpt lat="45.43536" lon="5.92428">
        <ele>1540.65</ele>
        <time>2026-08-30T12:52:51Z</time>
      </trkpt>
      <trkpt lat="45.43535" lon="5.92409">
        <ele>1540.65</ele>
        <time>2026-08-30T12:53:06Z</time>
      </trkpt>
      <trkpt lat="45.43537" lon="5.92403">
        <ele>1540.17</ele>
        <time>2026-08-30T12:53:10Z</time>
      </trkpt>
      <trkpt lat="45.43542" lon="5.92385">
        <ele>1539.21</ele>
        <time>2026-08-30T12:53:17Z</time>
      </trkpt>
      <trkpt lat="45.43543" lon="5.92376">
        <ele>1539.21</ele>
        <time>2026-08-30T12:53:21Z</time>
      </trkpt>
      <trkpt lat="45.4354" lon="5.92364">
        <ele>1538.25</ele>
        <time>2026-08-30T12:53:28Z</time>
      </trkpt>
      <trkpt lat="45.43539" lon="5.92344">
        <ele>1539.21</ele>
        <time>2026-08-30T12:53:43Z</time>
      </trkpt>
      <trkpt lat="45.43545" lon="5.92322">
        <ele>1540.17</ele>
        <time>2026-08-30T12:53:59Z</time>
      </trkpt>
      <trkpt lat="45.43545" lon="5.92318">
        <ele>1540.17</ele>
        <time>2026-08-30T12:54:01Z</time>
      </trkpt>
      <trkpt lat="45.43548" lon="5.92307">
        <ele>1539.69</ele>
        <time>2026-08-30T12:54:08Z</time>
      </trkpt>
      <trkpt lat="45.4355" lon="5.92285">
        <ele>1540.17</ele>
        <time>2026-08-30T12:54:22Z</time>
      </trkpt>
      <trkpt lat="45.43553" lon="5.92268">
        <ele>1540.17</ele>
        <time>2026-08-30T12:54:35Z</time>
      </trkpt>
      <trkpt lat="45.43555" lon="5.92261">
        <ele>1540.65</ele>
        <time>2026-08-30T12:54:45Z</time>
      </trkpt>
      <trkpt lat="45.43574" lon="5.92251">
        <ele>1541.61</ele>
        <time>2026-08-30T12:54:58Z</time>
      </trkpt>
      <trkpt lat="45.43576" lon="5.92249">
        <ele>1542.09</ele>
        <time>2026-08-30T12:55:00Z</time>
      </trkpt>
      <trkpt lat="45.43583" lon="5.92235">
        <ele>1542.09</ele>
        <time>2026-08-30T12:55:14Z</time>
      </trkpt>
      <trkpt lat="45.43584" lon="5.92229">
        <ele>1542.09</ele>
        <time>2026-08-30T12:55:28Z</time>
      </trkpt>
      <trkpt lat="45.4359" lon="5.92214">
        <ele>1542.57</ele>
        <time>2026-08-30T12:55:41Z</time>
      </trkpt>
      <trkpt lat="45.43594" lon="5.92208">
        <ele>1542.57</ele>
        <time>2026-08-30T12:55:46Z</time>
      </trkpt>
      <trkpt lat="45.43604" lon="5.92205">
        <ele>1542.57</ele>
        <time>2026-08-30T12:56:02Z</time>
      </trkpt>
      <trkpt lat="45.43623" lon="5.92191">
        <ele>1543.05</ele>
        <time>2026-08-30T12:56:19Z</time>
      </trkpt>
      <trkpt lat="45.43624" lon="5.92191">
        <ele>1543.05</ele>
        <time>2026-08-30T12:56:20Z</time>
      </trkpt>
      <trkpt lat="45.43636" lon="5.92194">
        <ele>1543.05</ele>
        <time>2026-08-30T12:56:38Z</time>
      </trkpt>
      <trkpt lat="45.43639" lon="5.92199">
        <ele>1542.57</ele>
        <time>2026-08-30T12:56:43Z</time>
      </trkpt>
      <trkpt lat="45.43645" lon="5.92201">
        <ele>1541.13</ele>
        <time>2026-08-30T12:56:49Z</time>
      </trkpt>
      <trkpt lat="45.43654" lon="5.92228">
        <ele>1540.65</ele>
        <time>2026-08-30T12:57:06Z</time>
      </trkpt>
      <trkpt lat="45.43657" lon="5.92232">
        <ele>1541.13</ele>
        <time>2026-08-30T12:57:11Z</time>
      </trkpt>
      <trkpt lat="45.43662" lon="5.92232">
        <ele>1541.13</ele>
        <time>2026-08-30T12:57:27Z</time>
      </trkpt>
      <trkpt lat="45.43673" lon="5.92238">
        <ele>1538.73</ele>
        <time>2026-08-30T12:57:43Z</time>
      </trkpt>
      <trkpt lat="45.43679" lon="5.92245">
        <ele>1537.77</ele>
        <time>2026-08-30T12:57:52Z</time>
      </trkpt>
      <trkpt lat="45.43683" lon="5.92247">
        <ele>1536.8</ele>
        <time>2026-08-30T12:57:58Z</time>
      </trkpt>
      <trkpt lat="45.4369" lon="5.92253">
        <ele>1535.84</ele>
        <time>2026-08-30T12:58:04Z</time>
      </trkpt>
      <trkpt lat="45.43709" lon="5.92247">
        <ele>1534.4</ele>
        <time>2026-08-30T12:58:13Z</time>
      </trkpt>
      <trkpt lat="45.4372" lon="5.9225">
        <ele>1533.92</ele>
        <time>2026-08-30T12:58:24Z</time>
      </trkpt>
      <trkpt lat="45.43743" lon="5.92246">
        <ele>1533.92</ele>
        <time>2026-08-30T12:58:42Z</time>
      </trkpt>
      <trkpt lat="45.43751" lon="5.92244">
        <ele>1532.48</ele>
        <time>2026-08-30T12:58:51Z</time>
      </trkpt>
      <trkpt lat="45.43755" lon="5.92243">
        <ele>1532.48</ele>
        <time>2026-08-30T12:58:53Z</time>
      </trkpt>
      <trkpt lat="45.43762" lon="5.9224">
        <ele>1532.48</ele>
        <time>2026-08-30T12:58:57Z</time>
      </trkpt>
      <trkpt lat="45.43776" lon="5.92218">
        <ele>1531.52</ele>
        <time>2026-08-30T12:59:12Z</time>
      </trkpt>
      <trkpt lat="45.43778" lon="5.92213">
        <ele>1532</ele>
        <time>2026-08-30T12:59:15Z</time>
      </trkpt>
      <trkpt lat="45.43782" lon="5.92206">
        <ele>1532.48</ele>
        <time>2026-08-30T12:59:20Z</time>
      </trkpt>
      <trkpt lat="45.43774" lon="5.92181">
        <ele>1530.56</ele>
        <time>2026-08-30T12:59:34Z</time>
      </trkpt>
      <trkpt lat="45.43778" lon="5.92163">
        <ele>1530.56</ele>
        <time>2026-08-30T12:59:47Z</time>
      </trkpt>
      <trkpt lat="45.43783" lon="5.92152">
        <ele>1531.04</ele>
        <time>2026-08-30T13:00:02Z</time>
      </trkpt>
      <trkpt lat="45.43791" lon="5.92153">
        <ele>1530.56</ele>
        <time>2026-08-30T13:00:11Z</time>
      </trkpt>
      <trkpt lat="45.43805" lon="5.92147">
        <ele>1530.08</ele>
        <time>2026-08-30T13:00:19Z</time>
      </trkpt>
      <trkpt lat="45.43817" lon="5.92155">
        <ele>1528.15</ele>
        <time>2026-08-30T13:00:35Z</time>
      </trkpt>
      <trkpt lat="45.43827" lon="5.92163">
        <ele>1525.75</ele>
        <time>2026-08-30T13:00:51Z</time>
      </trkpt>
      <trkpt lat="45.43831" lon="5.92167">
        <ele>1524.79</ele>
        <time>2026-08-30T13:00:58Z</time>
      </trkpt>
      <trkpt lat="45.43837" lon="5.92179">
        <ele>1522.39</ele>
        <time>2026-08-30T13:01:12Z</time>
      </trkpt>
      <trkpt lat="45.4385" lon="5.92182">
        <ele>1520.94</ele>
        <time>2026-08-30T13:01:22Z</time>
      </trkpt>
      <trkpt lat="45.43867" lon="5.92198">
        <ele>1518.06</ele>
        <time>2026-08-30T13:01:39Z</time>
      </trkpt>
      <trkpt lat="45.43872" lon="5.92203">
        <ele>1516.62</ele>
        <time>2026-08-30T13:01:51Z</time>
      </trkpt>
      <trkpt lat="45.43883" lon="5.92202">
        <ele>1515.18</ele>
        <time>2026-08-30T13:02:07Z</time>
      </trkpt>
      <trkpt lat="45.43886" lon="5.92212">
        <ele>1512.77</ele>
        <time>2026-08-30T13:02:23Z</time>
      </trkpt>
      <trkpt lat="45.43887" lon="5.92219">
        <ele>1511.33</ele>
        <time>2026-08-30T13:02:33Z</time>
      </trkpt>
      <trkpt lat="45.43894" lon="5.9223">
        <ele>1509.89</ele>
        <time>2026-08-30T13:02:45Z</time>
      </trkpt>
      <trkpt lat="45.43902" lon="5.92232">
        <ele>1507.48</ele>
        <time>2026-08-30T13:02:57Z</time>
      </trkpt>
      <trkpt lat="45.43902" lon="5.92233">
        <ele>1507.48</ele>
        <time>2026-08-30T13:02:58Z</time>
      </trkpt>
      <trkpt lat="45.43909" lon="5.92235">
        <ele>1505.08</ele>
        <time>2026-08-30T13:03:09Z</time>
      </trkpt>
      <trkpt lat="45.43918" lon="5.92238">
        <ele>1502.68</ele>
        <time>2026-08-30T13:03:20Z</time>
      </trkpt>
      <trkpt lat="45.43922" lon="5.92237">
        <ele>1501.24</ele>
        <time>2026-08-30T13:03:25Z</time>
      </trkpt>
      <trkpt lat="45.43925" lon="5.92237">
        <ele>1500.76</ele>
        <time>2026-08-30T13:03:27Z</time>
      </trkpt>
      <trkpt lat="45.4393" lon="5.92236">
        <ele>1499.79</ele>
        <time>2026-08-30T13:03:32Z</time>
      </trkpt>
      <trkpt lat="45.43935" lon="5.92236">
        <ele>1498.35</ele>
        <time>2026-08-30T13:03:37Z</time>
      </trkpt>
      <trkpt lat="45.43941" lon="5.92231">
        <ele>1497.87</ele>
        <time>2026-08-30T13:03:41Z</time>
      </trkpt>
      <trkpt lat="45.43944" lon="5.92227">
        <ele>1497.39</ele>
        <time>2026-08-30T13:03:43Z</time>
      </trkpt>
      <trkpt lat="45.43943" lon="5.92191">
        <ele>1496.43</ele>
        <time>2026-08-30T13:04:00Z</time>
      </trkpt>
      <trkpt lat="45.43939" lon="5.92164">
        <ele>1496.43</ele>
        <time>2026-08-30T13:04:15Z</time>
      </trkpt>
      <trkpt lat="45.43938" lon="5.92159">
        <ele>1495.95</ele>
        <time>2026-08-30T13:04:18Z</time>
      </trkpt>
      <trkpt lat="45.43938" lon="5.92152">
        <ele>1496.43</ele>
        <time>2026-08-30T13:04:22Z</time>
      </trkpt>
      <trkpt lat="45.43935" lon="5.92149">
        <ele>1496.43</ele>
        <time>2026-08-30T13:04:30Z</time>
      </trkpt>
      <trkpt lat="45.4395" lon="5.92136">
        <ele>1496.43</ele>
        <time>2026-08-30T13:04:46Z</time>
      </trkpt>
      <trkpt lat="45.43951" lon="5.92136">
        <ele>1496.91</ele>
        <time>2026-08-30T13:04:52Z</time>
      </trkpt>
      <trkpt lat="45.43956" lon="5.92139">
        <ele>1496.91</ele>
        <time>2026-08-30T13:04:59Z</time>
      </trkpt>
      <trkpt lat="45.43972" lon="5.9212">
        <ele>1498.35</ele>
        <time>2026-08-30T13:05:14Z</time>
      </trkpt>
      <trkpt lat="45.43971" lon="5.92122">
        <ele>1498.35</ele>
        <time>2026-08-30T13:05:29Z</time>
      </trkpt>
      <trkpt lat="45.43966" lon="5.92121">
        <ele>1497.39</ele>
        <time>2026-08-30T13:05:51Z</time>
      </trkpt>
      <trkpt lat="45.43968" lon="5.92121">
        <ele>1497.39</ele>
        <time>2026-08-30T13:06:03Z</time>
      </trkpt>
      <trkpt lat="45.4397" lon="5.9212">
        <ele>1497.39</ele>
        <time>2026-08-30T13:06:16Z</time>
      </trkpt>
      <trkpt lat="45.43972" lon="5.92123">
        <ele>1497.39</ele>
        <time>2026-08-30T13:06:24Z</time>
      </trkpt>
      <trkpt lat="45.43975" lon="5.92127">
        <ele>1497.39</ele>
        <time>2026-08-30T13:06:28Z</time>
      </trkpt>
      <trkpt lat="45.43988" lon="5.92144">
        <ele>1497.87</ele>
        <time>2026-08-30T13:06:44Z</time>
      </trkpt>
      <trkpt lat="45.43993" lon="5.9215">
        <ele>1498.35</ele>
        <time>2026-08-30T13:06:50Z</time>
      </trkpt>
      <trkpt lat="45.44008" lon="5.92168">
        <ele>1498.83</ele>
        <time>2026-08-30T13:07:06Z</time>
      </trkpt>
      <trkpt lat="45.44011" lon="5.92166">
        <ele>1499.31</ele>
        <time>2026-08-30T13:07:26Z</time>
      </trkpt>
      <trkpt lat="45.44012" lon="5.92169">
        <ele>1499.79</ele>
        <time>2026-08-30T13:07:39Z</time>
      </trkpt>
      <trkpt lat="45.44009" lon="5.92174">
        <ele>1499.31</ele>
        <time>2026-08-30T13:07:53Z</time>
      </trkpt>
      <trkpt lat="45.44009" lon="5.92177">
        <ele>1499.31</ele>
        <time>2026-08-30T13:08:17Z</time>
      </trkpt>
      <trkpt lat="45.44008" lon="5.92177">
        <ele>1498.83</ele>
        <time>2026-08-30T13:08:45Z</time>
      </trkpt>
      <trkpt lat="45.44009" lon="5.92177">
        <ele>1498.35</ele>
        <time>2026-08-30T13:09:01Z</time>
      </trkpt>
      <trkpt lat="45.44011" lon="5.9218">
        <ele>1499.31</ele>
        <time>2026-08-30T13:09:16Z</time>
      </trkpt>
      <trkpt lat="45.4401" lon="5.9218">
        <ele>1498.83</ele>
        <time>2026-08-30T13:09:44Z</time>
      </trkpt>
      <trkpt lat="45.44009" lon="5.92179">
        <ele>1497.87</ele>
        <time>2026-08-30T13:09:59Z</time>
      </trkpt>
      <trkpt lat="45.4401" lon="5.9218">
        <ele>1499.31</ele>
        <time>2026-08-30T13:10:22Z</time>
      </trkpt>
      <trkpt lat="45.44009" lon="5.92178">
        <ele>1498.83</ele>
        <time>2026-08-30T13:10:37Z</time>
      </trkpt>
      <trkpt lat="45.44009" lon="5.92178">
        <ele>1498.83</ele>
        <time>2026-08-30T13:10:59Z</time>
      </trkpt>
      <trkpt lat="45.4401" lon="5.92178">
        <ele>1498.83</ele>
        <time>2026-08-30T13:11:15Z</time>
      </trkpt>
      <trkpt lat="45.44011" lon="5.92177">
        <ele>1498.83</ele>
        <time>2026-08-30T13:11:47Z</time>
      </trkpt>
      <trkpt lat="45.44014" lon="5.92179">
        <ele>1498.83</ele>
        <time>2026-08-30T13:11:59Z</time>
      </trkpt>
      <trkpt lat="45.44021" lon="5.92189">
        <ele>1499.79</ele>
        <time>2026-08-30T13:12:13Z</time>
      </trkpt>
      <trkpt lat="45.44028" lon="5.92197">
        <ele>1500.76</ele>
        <time>2026-08-30T13:12:26Z</time>
      </trkpt>
      <trkpt lat="45.4404" lon="5.92205">
        <ele>1501.72</ele>
        <time>2026-08-30T13:12:41Z</time>
      </trkpt>
      <trkpt lat="45.44052" lon="5.92198">
        <ele>1503.64</ele>
        <time>2026-08-30T13:12:55Z</time>
      </trkpt>
      <trkpt lat="45.44054" lon="5.92192">
        <ele>1505.56</ele>
        <time>2026-08-30T13:13:06Z</time>
      </trkpt>
      <trkpt lat="45.44058" lon="5.92188">
        <ele>1507</ele>
        <time>2026-08-30T13:13:18Z</time>
      </trkpt>
      <trkpt lat="45.4406" lon="5.92183">
        <ele>1509.41</ele>
        <time>2026-08-30T13:13:31Z</time>
      </trkpt>
      <trkpt lat="45.44065" lon="5.92176">
        <ele>1511.33</ele>
        <time>2026-08-30T13:13:44Z</time>
      </trkpt>
      <trkpt lat="45.44063" lon="5.92162">
        <ele>1513.25</ele>
        <time>2026-08-30T13:13:57Z</time>
      </trkpt>
      <trkpt lat="45.44064" lon="5.92157">
        <ele>1514.21</ele>
        <time>2026-08-30T13:14:02Z</time>
      </trkpt>
      <trkpt lat="45.44067" lon="5.92151">
        <ele>1515.18</ele>
        <time>2026-08-30T13:14:09Z</time>
      </trkpt>
      <trkpt lat="45.44072" lon="5.92139">
        <ele>1516.62</ele>
        <time>2026-08-30T13:14:22Z</time>
      </trkpt>
      <trkpt lat="45.44076" lon="5.9212">
        <ele>1519.02</ele>
        <time>2026-08-30T13:14:38Z</time>
      </trkpt>
      <trkpt lat="45.44083" lon="5.92103">
        <ele>1519.98</ele>
        <time>2026-08-30T13:14:53Z</time>
      </trkpt>
      <trkpt lat="45.4409" lon="5.92088">
        <ele>1521.42</ele>
        <time>2026-08-30T13:15:07Z</time>
      </trkpt>
      <trkpt lat="45.44091" lon="5.92087">
        <ele>1521.42</ele>
        <time>2026-08-30T13:15:09Z</time>
      </trkpt>
      <trkpt lat="45.44094" lon="5.92082">
        <ele>1521.9</ele>
        <time>2026-08-30T13:15:13Z</time>
      </trkpt>
      <trkpt lat="45.44101" lon="5.92066">
        <ele>1521.9</ele>
        <time>2026-08-30T13:15:24Z</time>
      </trkpt>
      <trkpt lat="45.44112" lon="5.92045">
        <ele>1523.35</ele>
        <time>2026-08-30T13:15:41Z</time>
      </trkpt>
      <trkpt lat="45.44122" lon="5.92031">
        <ele>1523.83</ele>
        <time>2026-08-30T13:15:54Z</time>
      </trkpt>
      <trkpt lat="45.44132" lon="5.92015">
        <ele>1524.31</ele>
        <time>2026-08-30T13:16:08Z</time>
      </trkpt>
      <trkpt lat="45.4414" lon="5.92">
        <ele>1525.27</ele>
        <time>2026-08-30T13:16:19Z</time>
      </trkpt>
      <trkpt lat="45.4415" lon="5.91979">
        <ele>1525.75</ele>
        <time>2026-08-30T13:16:35Z</time>
      </trkpt>
      <trkpt lat="45.44154" lon="5.91963">
        <ele>1526.23</ele>
        <time>2026-08-30T13:16:45Z</time>
      </trkpt>
      <trkpt lat="45.44158" lon="5.91956">
        <ele>1527.19</ele>
        <time>2026-08-30T13:16:51Z</time>
      </trkpt>
      <trkpt lat="45.44159" lon="5.91941">
        <ele>1527.67</ele>
        <time>2026-08-30T13:17:01Z</time>
      </trkpt>
      <trkpt lat="45.44165" lon="5.91924">
        <ele>1529.59</ele>
        <time>2026-08-30T13:17:16Z</time>
      </trkpt>
      <trkpt lat="45.44173" lon="5.91908">
        <ele>1532</ele>
        <time>2026-08-30T13:17:32Z</time>
      </trkpt>
      <trkpt lat="45.44179" lon="5.91893">
        <ele>1533.92</ele>
        <time>2026-08-30T13:17:48Z</time>
      </trkpt>
      <trkpt lat="45.44182" lon="5.91889">
        <ele>1534.4</ele>
        <time>2026-08-30T13:18:00Z</time>
      </trkpt>
      <trkpt lat="45.44182" lon="5.91885">
        <ele>1533.92</ele>
        <time>2026-08-30T13:18:13Z</time>
      </trkpt>
      <trkpt lat="45.44186" lon="5.9188">
        <ele>1533.92</ele>
        <time>2026-08-30T13:18:24Z</time>
      </trkpt>
      <trkpt lat="45.44186" lon="5.9188">
        <ele>1534.4</ele>
        <time>2026-08-30T13:18:42Z</time>
      </trkpt>
      <trkpt lat="45.4419" lon="5.91872">
        <ele>1532.96</ele>
        <time>2026-08-30T13:18:55Z</time>
      </trkpt>
      <trkpt lat="45.44194" lon="5.91872">
        <ele>1532</ele>
        <time>2026-08-30T13:19:07Z</time>
      </trkpt>
      <trkpt lat="45.44198" lon="5.91865">
        <ele>1529.59</ele>
        <time>2026-08-30T13:19:19Z</time>
      </trkpt>
      <trkpt lat="45.44201" lon="5.91863">
        <ele>1528.15</ele>
        <time>2026-08-30T13:19:29Z</time>
      </trkpt>
      <trkpt lat="45.44202" lon="5.91857">
        <ele>1526.71</ele>
        <time>2026-08-30T13:19:38Z</time>
      </trkpt>
      <trkpt lat="45.44203" lon="5.9185">
        <ele>1524.31</ele>
        <time>2026-08-30T13:19:51Z</time>
      </trkpt>
      <trkpt lat="45.44208" lon="5.91842">
        <ele>1521.9</ele>
        <time>2026-08-30T13:20:04Z</time>
      </trkpt>
      <trkpt lat="45.44215" lon="5.91843">
        <ele>1519.02</ele>
        <time>2026-08-30T13:20:18Z</time>
      </trkpt>
      <trkpt lat="45.4422" lon="5.9184">
        <ele>1517.1</ele>
        <time>2026-08-30T13:20:30Z</time>
      </trkpt>
      <trkpt lat="45.44221" lon="5.91842">
        <ele>1516.14</ele>
        <time>2026-08-30T13:20:33Z</time>
      </trkpt>
      <trkpt lat="45.44228" lon="5.91846">
        <ele>1514.69</ele>
        <time>2026-08-30T13:20:43Z</time>
      </trkpt>
      <trkpt lat="45.44236" lon="5.91848">
        <ele>1512.77</ele>
        <time>2026-08-30T13:20:55Z</time>
      </trkpt>
      <trkpt lat="45.44235" lon="5.9184">
        <ele>1509.89</ele>
        <time>2026-08-30T13:21:11Z</time>
      </trkpt>
      <trkpt lat="45.44234" lon="5.91827">
        <ele>1507</ele>
        <time>2026-08-30T13:21:24Z</time>
      </trkpt>
      <trkpt lat="45.44234" lon="5.91825">
        <ele>1507</ele>
        <time>2026-08-30T13:21:26Z</time>
      </trkpt>
      <trkpt lat="45.44233" lon="5.91809">
        <ele>1506.52</ele>
        <time>2026-08-30T13:21:39Z</time>
      </trkpt>
      <trkpt lat="45.44231" lon="5.91807">
        <ele>1504.12</ele>
        <time>2026-08-30T13:21:51Z</time>
      </trkpt>
      <trkpt lat="45.44232" lon="5.91809">
        <ele>1503.64</ele>
        <time>2026-08-30T13:21:54Z</time>
      </trkpt>
      <trkpt lat="45.44238" lon="5.91814">
        <ele>1500.76</ele>
        <time>2026-08-30T13:22:10Z</time>
      </trkpt>
      <trkpt lat="45.44241" lon="5.91808">
        <ele>1498.35</ele>
        <time>2026-08-30T13:22:23Z</time>
      </trkpt>
      <trkpt lat="45.4424" lon="5.91801">
        <ele>1495.95</ele>
        <time>2026-08-30T13:22:36Z</time>
      </trkpt>
      <trkpt lat="45.44238" lon="5.91792">
        <ele>1493.06</ele>
        <time>2026-08-30T13:22:52Z</time>
      </trkpt>
      <trkpt lat="45.44239" lon="5.91782">
        <ele>1491.14</ele>
        <time>2026-08-30T13:23:04Z</time>
      </trkpt>
      <trkpt lat="45.4424" lon="5.91777">
        <ele>1490.18</ele>
        <time>2026-08-30T13:23:10Z</time>
      </trkpt>
      <trkpt lat="45.44242" lon="5.91775">
        <ele>1487.78</ele>
        <time>2026-08-30T13:23:24Z</time>
      </trkpt>
      <trkpt lat="45.44243" lon="5.91783">
        <ele>1484.89</ele>
        <time>2026-08-30T13:23:41Z</time>
      </trkpt>
      <trkpt lat="45.44245" lon="5.91792">
        <ele>1482.01</ele>
        <time>2026-08-30T13:23:56Z</time>
      </trkpt>
      <trkpt lat="45.44251" lon="5.91796">
        <ele>1479.61</ele>
        <time>2026-08-30T13:24:09Z</time>
      </trkpt>
      <trkpt lat="45.44256" lon="5.91802">
        <ele>1476.72</ele>
        <time>2026-08-30T13:24:25Z</time>
      </trkpt>
      <trkpt lat="45.44258" lon="5.91809">
        <ele>1473.84</ele>
        <time>2026-08-30T13:24:43Z</time>
      </trkpt>
      <trkpt lat="45.4426" lon="5.91817">
        <ele>1470.47</ele>
        <time>2026-08-30T13:24:59Z</time>
      </trkpt>
      <trkpt lat="45.44259" lon="5.91823">
        <ele>1467.59</ele>
        <time>2026-08-30T13:25:15Z</time>
      </trkpt>
      <trkpt lat="45.44259" lon="5.91823">
        <ele>1467.11</ele>
        <time>2026-08-30T13:25:16Z</time>
      </trkpt>
      <trkpt lat="45.44261" lon="5.91825">
        <ele>1465.19</ele>
        <time>2026-08-30T13:25:30Z</time>
      </trkpt>
      <trkpt lat="45.44268" lon="5.91835">
        <ele>1462.3</ele>
        <time>2026-08-30T13:25:47Z</time>
      </trkpt>
      <trkpt lat="45.44274" lon="5.91844">
        <ele>1458.94</ele>
        <time>2026-08-30T13:26:03Z</time>
      </trkpt>
      <trkpt lat="45.44278" lon="5.91852">
        <ele>1456.05</ele>
        <time>2026-08-30T13:26:19Z</time>
      </trkpt>
      <trkpt lat="45.44287" lon="5.91853">
        <ele>1454.13</ele>
        <time>2026-08-30T13:26:33Z</time>
      </trkpt>
      <trkpt lat="45.44301" lon="5.91852">
        <ele>1451.25</ele>
        <time>2026-08-30T13:26:47Z</time>
      </trkpt>
      <trkpt lat="45.44302" lon="5.91851">
        <ele>1449.81</ele>
        <time>2026-08-30T13:26:59Z</time>
      </trkpt>
      <trkpt lat="45.44307" lon="5.91848">
        <ele>1447.4</ele>
        <time>2026-08-30T13:27:11Z</time>
      </trkpt>
      <trkpt lat="45.44316" lon="5.9184">
        <ele>1444.04</ele>
        <time>2026-08-30T13:27:26Z</time>
      </trkpt>
      <trkpt lat="45.44322" lon="5.91834">
        <ele>1441.15</ele>
        <time>2026-08-30T13:27:38Z</time>
      </trkpt>
      <trkpt lat="45.44327" lon="5.91816">
        <ele>1438.27</ele>
        <time>2026-08-30T13:27:55Z</time>
      </trkpt>
      <trkpt lat="45.44326" lon="5.918">
        <ele>1435.39</ele>
        <time>2026-08-30T13:28:10Z</time>
      </trkpt>
      <trkpt lat="45.44331" lon="5.91783">
        <ele>1432.5</ele>
        <time>2026-08-30T13:28:26Z</time>
      </trkpt>
      <trkpt lat="45.44336" lon="5.91768">
        <ele>1429.62</ele>
        <time>2026-08-30T13:28:43Z</time>
      </trkpt>
      <trkpt lat="45.4434" lon="5.91756">
        <ele>1426.25</ele>
        <time>2026-08-30T13:28:58Z</time>
      </trkpt>
      <trkpt lat="45.44326" lon="5.91746">
        <ele>1422.89</ele>
        <time>2026-08-30T13:29:14Z</time>
      </trkpt>
      <trkpt lat="45.44326" lon="5.9174">
        <ele>1422.89</ele>
        <time>2026-08-30T13:29:21Z</time>
      </trkpt>
      <trkpt lat="45.4433" lon="5.91734">
        <ele>1420.49</ele>
        <time>2026-08-30T13:29:35Z</time>
      </trkpt>
      <trkpt lat="45.44328" lon="5.91732">
        <ele>1418.08</ele>
        <time>2026-08-30T13:29:48Z</time>
      </trkpt>
      <trkpt lat="45.44325" lon="5.91733">
        <ele>1415.68</ele>
        <time>2026-08-30T13:30:04Z</time>
      </trkpt>
      <trkpt lat="45.44328" lon="5.91728">
        <ele>1413.28</ele>
        <time>2026-08-30T13:30:19Z</time>
      </trkpt>
      <trkpt lat="45.44323" lon="5.91733">
        <ele>1410.39</ele>
        <time>2026-08-30T13:30:34Z</time>
      </trkpt>
      <trkpt lat="45.44313" lon="5.91736">
        <ele>1407.51</ele>
        <time>2026-08-30T13:30:51Z</time>
      </trkpt>
      <trkpt lat="45.44315" lon="5.91734">
        <ele>1405.1</ele>
        <time>2026-08-30T13:31:05Z</time>
      </trkpt>
      <trkpt lat="45.44315" lon="5.91723">
        <ele>1402.7</ele>
        <time>2026-08-30T13:31:19Z</time>
      </trkpt>
      <trkpt lat="45.44318" lon="5.91706">
        <ele>1400.3</ele>
        <time>2026-08-30T13:31:34Z</time>
      </trkpt>
      <trkpt lat="45.44321" lon="5.91697">
        <ele>1396.93</ele>
        <time>2026-08-30T13:31:49Z</time>
      </trkpt>
      <trkpt lat="45.44327" lon="5.91688">
        <ele>1394.53</ele>
        <time>2026-08-30T13:32:01Z</time>
      </trkpt>
      <trkpt lat="45.44329" lon="5.91688">
        <ele>1394.05</ele>
        <time>2026-08-30T13:32:05Z</time>
      </trkpt>
      <trkpt lat="45.44334" lon="5.91681">
        <ele>1391.17</ele>
        <time>2026-08-30T13:32:18Z</time>
      </trkpt>
      <trkpt lat="45.44331" lon="5.91677">
        <ele>1389.24</ele>
        <time>2026-08-30T13:32:30Z</time>
      </trkpt>
      <trkpt lat="45.44326" lon="5.91676">
        <ele>1386.36</ele>
        <time>2026-08-30T13:32:45Z</time>
      </trkpt>
      <trkpt lat="45.44317" lon="5.91675">
        <ele>1383.47</ele>
        <time>2026-08-30T13:33:00Z</time>
      </trkpt>
      <trkpt lat="45.44307" lon="5.91677">
        <ele>1381.55</ele>
        <time>2026-08-30T13:33:14Z</time>
      </trkpt>
      <trkpt lat="45.44296" lon="5.91681">
        <ele>1378.67</ele>
        <time>2026-08-30T13:33:28Z</time>
      </trkpt>
      <trkpt lat="45.44291" lon="5.91684">
        <ele>1376.26</ele>
        <time>2026-08-30T13:33:42Z</time>
      </trkpt>
      <trkpt lat="45.44292" lon="5.91679">
        <ele>1374.34</ele>
        <time>2026-08-30T13:33:53Z</time>
      </trkpt>
      <trkpt lat="45.44298" lon="5.91664">
        <ele>1371.94</ele>
        <time>2026-08-30T13:34:08Z</time>
      </trkpt>
      <trkpt lat="45.44297" lon="5.91655">
        <ele>1369.54</ele>
        <time>2026-08-30T13:34:24Z</time>
      </trkpt>
      <trkpt lat="45.44304" lon="5.91651">
        <ele>1366.65</ele>
        <time>2026-08-30T13:34:38Z</time>
      </trkpt>
      <trkpt lat="45.44309" lon="5.91643">
        <ele>1363.77</ele>
        <time>2026-08-30T13:34:51Z</time>
      </trkpt>
      <trkpt lat="45.44304" lon="5.9164">
        <ele>1360.88</ele>
        <time>2026-08-30T13:35:05Z</time>
      </trkpt>
      <trkpt lat="45.44296" lon="5.9163">
        <ele>1358</ele>
        <time>2026-08-30T13:35:21Z</time>
      </trkpt>
      <trkpt lat="45.44295" lon="5.9162">
        <ele>1355.6</ele>
        <time>2026-08-30T13:35:36Z</time>
      </trkpt>
      <trkpt lat="45.44287" lon="5.91613">
        <ele>1352.23</ele>
        <time>2026-08-30T13:35:51Z</time>
      </trkpt>
      <trkpt lat="45.44274" lon="5.91614">
        <ele>1349.83</ele>
        <time>2026-08-30T13:36:05Z</time>
      </trkpt>
      <trkpt lat="45.4427" lon="5.91618">
        <ele>1348.87</ele>
        <time>2026-08-30T13:36:10Z</time>
      </trkpt>
      <trkpt lat="45.44258" lon="5.9162">
        <ele>1345.98</ele>
        <time>2026-08-30T13:36:27Z</time>
      </trkpt>
      <trkpt lat="45.44246" lon="5.91623">
        <ele>1342.62</ele>
        <time>2026-08-30T13:36:41Z</time>
      </trkpt>
      <trkpt lat="45.44241" lon="5.91626">
        <ele>1340.22</ele>
        <time>2026-08-30T13:36:54Z</time>
      </trkpt>
      <trkpt lat="45.44242" lon="5.91628">
        <ele>1337.33</ele>
        <time>2026-08-30T13:37:09Z</time>
      </trkpt>
      <trkpt lat="45.44244" lon="5.91618">
        <ele>1333.97</ele>
        <time>2026-08-30T13:37:24Z</time>
      </trkpt>
      <trkpt lat="45.44247" lon="5.91604">
        <ele>1331.08</ele>
        <time>2026-08-30T13:37:39Z</time>
      </trkpt>
      <trkpt lat="45.44255" lon="5.91597">
        <ele>1328.2</ele>
        <time>2026-08-30T13:37:52Z</time>
      </trkpt>
      <trkpt lat="45.44257" lon="5.91589">
        <ele>1325.31</ele>
        <time>2026-08-30T13:38:07Z</time>
      </trkpt>
      <trkpt lat="45.44261" lon="5.91573">
        <ele>1321.95</ele>
        <time>2026-08-30T13:38:21Z</time>
      </trkpt>
      <trkpt lat="45.44269" lon="5.91564">
        <ele>1319.07</ele>
        <time>2026-08-30T13:38:34Z</time>
      </trkpt>
      <trkpt lat="45.4428" lon="5.91557">
        <ele>1315.7</ele>
        <time>2026-08-30T13:38:48Z</time>
      </trkpt>
      <trkpt lat="45.44286" lon="5.91546">
        <ele>1312.82</ele>
        <time>2026-08-30T13:39:02Z</time>
      </trkpt>
      <trkpt lat="45.44289" lon="5.9154">
        <ele>1309.45</ele>
        <time>2026-08-30T13:39:15Z</time>
      </trkpt>
      <trkpt lat="45.44296" lon="5.91531">
        <ele>1307.05</ele>
        <time>2026-08-30T13:39:30Z</time>
      </trkpt>
      <trkpt lat="45.44295" lon="5.91521">
        <ele>1304.65</ele>
        <time>2026-08-30T13:39:51Z</time>
      </trkpt>
      <trkpt lat="45.44297" lon="5.91513">
        <ele>1301.28</ele>
        <time>2026-08-30T13:40:05Z</time>
      </trkpt>
      <trkpt lat="45.44299" lon="5.91506">
        <ele>1298.88</ele>
        <time>2026-08-30T13:40:18Z</time>
      </trkpt>
      <trkpt lat="45.44304" lon="5.91494">
        <ele>1295.51</ele>
        <time>2026-08-30T13:40:31Z</time>
      </trkpt>
      <trkpt lat="45.44311" lon="5.91484">
        <ele>1293.11</ele>
        <time>2026-08-30T13:40:44Z</time>
      </trkpt>
      <trkpt lat="45.44317" lon="5.91478">
        <ele>1289.75</ele>
        <time>2026-08-30T13:40:57Z</time>
      </trkpt>
      <trkpt lat="45.44321" lon="5.91469">
        <ele>1288.3</ele>
        <time>2026-08-30T13:41:07Z</time>
      </trkpt>
      <trkpt lat="45.44324" lon="5.91457">
        <ele>1284.94</ele>
        <time>2026-08-30T13:41:21Z</time>
      </trkpt>
      <trkpt lat="45.44328" lon="5.91445">
        <ele>1281.57</ele>
        <time>2026-08-30T13:41:37Z</time>
      </trkpt>
      <trkpt lat="45.44329" lon="5.91432">
        <ele>1278.21</ele>
        <time>2026-08-30T13:41:51Z</time>
      </trkpt>
      <trkpt lat="45.44331" lon="5.9142">
        <ele>1275.33</ele>
        <time>2026-08-30T13:42:04Z</time>
      </trkpt>
      <trkpt lat="45.44331" lon="5.91405">
        <ele>1271.96</ele>
        <time>2026-08-30T13:42:19Z</time>
      </trkpt>
      <trkpt lat="45.44333" lon="5.91397">
        <ele>1268.6</ele>
        <time>2026-08-30T13:42:34Z</time>
      </trkpt>
      <trkpt lat="45.44343" lon="5.91386">
        <ele>1265.71</ele>
        <time>2026-08-30T13:42:50Z</time>
      </trkpt>
      <trkpt lat="45.44344" lon="5.91373">
        <ele>1262.83</ele>
        <time>2026-08-30T13:43:04Z</time>
      </trkpt>
      <trkpt lat="45.44349" lon="5.91361">
        <ele>1259.46</ele>
        <time>2026-08-30T13:43:19Z</time>
      </trkpt>
      <trkpt lat="45.44354" lon="5.91352">
        <ele>1256.58</ele>
        <time>2026-08-30T13:43:34Z</time>
      </trkpt>
      <trkpt lat="45.44362" lon="5.91341">
        <ele>1253.22</ele>
        <time>2026-08-30T13:43:50Z</time>
      </trkpt>
      <trkpt lat="45.44372" lon="5.91328">
        <ele>1250.33</ele>
        <time>2026-08-30T13:44:06Z</time>
      </trkpt>
      <trkpt lat="45.44384" lon="5.91315">
        <ele>1246.97</ele>
        <time>2026-08-30T13:44:22Z</time>
      </trkpt>
      <trkpt lat="45.44388" lon="5.91312">
        <ele>1245.53</ele>
        <time>2026-08-30T13:44:32Z</time>
      </trkpt>
      <trkpt lat="45.44396" lon="5.91305">
        <ele>1244.08</ele>
        <time>2026-08-30T13:44:40Z</time>
      </trkpt>
      <trkpt lat="45.44401" lon="5.91281">
        <ele>1241.68</ele>
        <time>2026-08-30T13:44:54Z</time>
      </trkpt>
      <trkpt lat="45.44393" lon="5.91284">
        <ele>1240.72</ele>
        <time>2026-08-30T13:45:08Z</time>
      </trkpt>
      <trkpt lat="45.44399" lon="5.91273">
        <ele>1238.32</ele>
        <time>2026-08-30T13:45:23Z</time>
      </trkpt>
      <trkpt lat="45.444" lon="5.91256">
        <ele>1235.43</ele>
        <time>2026-08-30T13:45:38Z</time>
      </trkpt>
      <trkpt lat="45.44392" lon="5.91245">
        <ele>1233.03</ele>
        <time>2026-08-30T13:45:54Z</time>
      </trkpt>
      <trkpt lat="45.44381" lon="5.91235">
        <ele>1229.66</ele>
        <time>2026-08-30T13:46:09Z</time>
      </trkpt>
      <trkpt lat="45.44375" lon="5.91219">
        <ele>1226.3</ele>
        <time>2026-08-30T13:46:26Z</time>
      </trkpt>
      <trkpt lat="45.44374" lon="5.91218">
        <ele>1226.3</ele>
        <time>2026-08-30T13:46:27Z</time>
      </trkpt>
      <trkpt lat="45.44363" lon="5.91202">
        <ele>1223.9</ele>
        <time>2026-08-30T13:46:43Z</time>
      </trkpt>
      <trkpt lat="45.44354" lon="5.91198">
        <ele>1221.01</ele>
        <time>2026-08-30T13:46:58Z</time>
      </trkpt>
      <trkpt lat="45.44348" lon="5.91186">
        <ele>1217.65</ele>
        <time>2026-08-30T13:47:16Z</time>
      </trkpt>
      <trkpt lat="45.4434" lon="5.91169">
        <ele>1214.76</ele>
        <time>2026-08-30T13:47:34Z</time>
      </trkpt>
      <trkpt lat="45.44334" lon="5.91161">
        <ele>1211.88</ele>
        <time>2026-08-30T13:47:50Z</time>
      </trkpt>
      <trkpt lat="45.44331" lon="5.91145">
        <ele>1209</ele>
        <time>2026-08-30T13:48:08Z</time>
      </trkpt>
      <trkpt lat="45.44328" lon="5.91127">
        <ele>1206.11</ele>
        <time>2026-08-30T13:48:26Z</time>
      </trkpt>
      <trkpt lat="45.44325" lon="5.91119">
        <ele>1202.75</ele>
        <time>2026-08-30T13:48:44Z</time>
      </trkpt>
      <trkpt lat="45.44323" lon="5.91112">
        <ele>1199.86</ele>
        <time>2026-08-30T13:49:03Z</time>
      </trkpt>
      <trkpt lat="45.44324" lon="5.91091">
        <ele>1196.5</ele>
        <time>2026-08-30T13:49:19Z</time>
      </trkpt>
      <trkpt lat="45.44331" lon="5.91073">
        <ele>1193.61</ele>
        <time>2026-08-30T13:49:37Z</time>
      </trkpt>
      <trkpt lat="45.44333" lon="5.91053">
        <ele>1190.25</ele>
        <time>2026-08-30T13:49:51Z</time>
      </trkpt>
      <trkpt lat="45.44338" lon="5.91044">
        <ele>1187.37</ele>
        <time>2026-08-30T13:50:07Z</time>
      </trkpt>
      <trkpt lat="45.44341" lon="5.9103">
        <ele>1184.48</ele>
        <time>2026-08-30T13:50:25Z</time>
      </trkpt>
      <trkpt lat="45.44345" lon="5.91018">
        <ele>1181.6</ele>
        <time>2026-08-30T13:50:42Z</time>
      </trkpt>
      <trkpt lat="45.44353" lon="5.91007">
        <ele>1178.71</ele>
        <time>2026-08-30T13:50:58Z</time>
      </trkpt>
      <trkpt lat="45.44367" lon="5.90996">
        <ele>1176.79</ele>
        <time>2026-08-30T13:51:16Z</time>
      </trkpt>
      <trkpt lat="45.44366" lon="5.90982">
        <ele>1173.43</ele>
        <time>2026-08-30T13:51:26Z</time>
      </trkpt>
      <trkpt lat="45.44367" lon="5.90966">
        <ele>1170.54</ele>
        <time>2026-08-30T13:51:43Z</time>
      </trkpt>
      <trkpt lat="45.44365" lon="5.90945">
        <ele>1168.14</ele>
        <time>2026-08-30T13:51:58Z</time>
      </trkpt>
      <trkpt lat="45.44367" lon="5.9093">
        <ele>1164.77</ele>
        <time>2026-08-30T13:52:15Z</time>
      </trkpt>
      <trkpt lat="45.44371" lon="5.90914">
        <ele>1162.37</ele>
        <time>2026-08-30T13:52:30Z</time>
      </trkpt>
      <trkpt lat="45.44379" lon="5.90897">
        <ele>1159.01</ele>
        <time>2026-08-30T13:52:47Z</time>
      </trkpt>
      <trkpt lat="45.44382" lon="5.90877">
        <ele>1156.12</ele>
        <time>2026-08-30T13:53:05Z</time>
      </trkpt>
      <trkpt lat="45.44384" lon="5.90861">
        <ele>1152.76</ele>
        <time>2026-08-30T13:53:23Z</time>
      </trkpt>
      <trkpt lat="45.44384" lon="5.90834">
        <ele>1149.87</ele>
        <time>2026-08-30T13:53:40Z</time>
      </trkpt>
      <trkpt lat="45.44383" lon="5.90822">
        <ele>1147.47</ele>
        <time>2026-08-30T13:53:56Z</time>
      </trkpt>
      <trkpt lat="45.44387" lon="5.90805">
        <ele>1144.59</ele>
        <time>2026-08-30T13:54:10Z</time>
      </trkpt>
      <trkpt lat="45.44392" lon="5.90799">
        <ele>1144.11</ele>
        <time>2026-08-30T13:54:15Z</time>
      </trkpt>
      <trkpt lat="45.44395" lon="5.90789">
        <ele>1142.18</ele>
        <time>2026-08-30T13:54:22Z</time>
      </trkpt>
      <trkpt lat="45.44397" lon="5.90771">
        <ele>1139.78</ele>
        <time>2026-08-30T13:54:38Z</time>
      </trkpt>
      <trkpt lat="45.44404" lon="5.90768">
        <ele>1137.86</ele>
        <time>2026-08-30T13:54:51Z</time>
      </trkpt>
      <trkpt lat="45.44408" lon="5.90762">
        <ele>1136.9</ele>
        <time>2026-08-30T13:55:13Z</time>
      </trkpt>
      <trkpt lat="45.44416" lon="5.90757">
        <ele>1134.01</ele>
        <time>2026-08-30T13:55:30Z</time>
      </trkpt>
      <trkpt lat="45.44409" lon="5.90743">
        <ele>1134.49</ele>
        <time>2026-08-30T13:55:43Z</time>
      </trkpt>
      <trkpt lat="45.44422" lon="5.90732">
        <ele>1133.05</ele>
        <time>2026-08-30T13:55:56Z</time>
      </trkpt>
      <trkpt lat="45.44425" lon="5.90713">
        <ele>1131.13</ele>
        <time>2026-08-30T13:56:08Z</time>
      </trkpt>
      <trkpt lat="45.44422" lon="5.90714">
        <ele>1131.13</ele>
        <time>2026-08-30T13:56:11Z</time>
      </trkpt>
      <trkpt lat="45.44426" lon="5.90706">
        <ele>1129.21</ele>
        <time>2026-08-30T13:56:24Z</time>
      </trkpt>
      <trkpt lat="45.44427" lon="5.90702">
        <ele>1128.24</ele>
        <time>2026-08-30T13:56:27Z</time>
      </trkpt>
      <trkpt lat="45.44428" lon="5.9069">
        <ele>1126.8</ele>
        <time>2026-08-30T13:56:33Z</time>
      </trkpt>
      <trkpt lat="45.44422" lon="5.90671">
        <ele>1124.88</ele>
        <time>2026-08-30T13:56:48Z</time>
      </trkpt>
      <trkpt lat="45.44417" lon="5.9066">
        <ele>1123.44</ele>
        <time>2026-08-30T13:57:00Z</time>
      </trkpt>
      <trkpt lat="45.44402" lon="5.90664">
        <ele>1122.96</ele>
        <time>2026-08-30T13:57:15Z</time>
      </trkpt>
      <trkpt lat="45.44399" lon="5.90659">
        <ele>1122</ele>
        <time>2026-08-30T13:57:33Z</time>
      </trkpt>
      <trkpt lat="45.444" lon="5.9066">
        <ele>1121.52</ele>
        <time>2026-08-30T13:57:55Z</time>
      </trkpt>
      <trkpt lat="45.444" lon="5.90661">
        <ele>1122</ele>
        <time>2026-08-30T13:58:01Z</time>
      </trkpt>
      <trkpt lat="45.44395" lon="5.90664">
        <ele>1122.48</ele>
        <time>2026-08-30T14:20:35Z</time>
      </trkpt>
      <trkpt lat="45.44393" lon="5.90663">
        <ele>1120.55</ele>
        <time>2026-08-30T14:20:36Z</time>
      </trkpt>
      <trkpt lat="45.44394" lon="5.90664">
        <ele>1124.4</ele>
        <time>2026-08-30T14:20:37Z</time>
      </trkpt>
      <trkpt lat="45.44394" lon="5.90662">
        <ele>1122.96</ele>
        <time>2026-08-30T14:20:55Z</time>
      </trkpt>
      <trkpt lat="45.44399" lon="5.90663">
        <ele>1122.96</ele>
        <time>2026-08-30T14:21:03Z</time>
      </trkpt>
      <trkpt lat="45.44404" lon="5.90662">
        <ele>1122.96</ele>
        <time>2026-08-30T14:21:08Z</time>
      </trkpt>
      <trkpt lat="45.44407" lon="5.90665">
        <ele>1122.96</ele>
        <time>2026-08-30T14:21:13Z</time>
      </trkpt>
      <trkpt lat="45.44412" lon="5.90655">
        <ele>1121.03</ele>
        <time>2026-08-30T14:21:25Z</time>
      </trkpt>
      <trkpt lat="45.44415" lon="5.90639">
        <ele>1118.63</ele>
        <time>2026-08-30T14:21:36Z</time>
      </trkpt>
      <trkpt lat="45.44416" lon="5.90634">
        <ele>1117.19</ele>
        <time>2026-08-30T14:21:39Z</time>
      </trkpt>
      <trkpt lat="45.44421" lon="5.90629">
        <ele>1113.34</ele>
        <time>2026-08-30T14:21:45Z</time>
      </trkpt>
      <trkpt lat="45.44423" lon="5.90625">
        <ele>1110.46</ele>
        <time>2026-08-30T14:21:50Z</time>
      </trkpt>
      <trkpt lat="45.44422" lon="5.90621">
        <ele>1107.1</ele>
        <time>2026-08-30T14:21:57Z</time>
      </trkpt>
      <trkpt lat="45.44423" lon="5.9062">
        <ele>1105.17</ele>
        <time>2026-08-30T14:22:02Z</time>
      </trkpt>
      <trkpt lat="45.44424" lon="5.90612">
        <ele>1101.81</ele>
        <time>2026-08-30T14:22:10Z</time>
      </trkpt>
      <trkpt lat="45.44425" lon="5.90605">
        <ele>1098.44</ele>
        <time>2026-08-30T14:22:21Z</time>
      </trkpt>
      <trkpt lat="45.44425" lon="5.90601">
        <ele>1097.48</ele>
        <time>2026-08-30T14:22:25Z</time>
      </trkpt>
      <trkpt lat="45.44425" lon="5.90594">
        <ele>1096.52</ele>
        <time>2026-08-30T14:22:31Z</time>
      </trkpt>
      <trkpt lat="45.44422" lon="5.90584">
        <ele>1095.08</ele>
        <time>2026-08-30T14:22:39Z</time>
      </trkpt>
      <trkpt lat="45.44419" lon="5.90576">
        <ele>1094.12</ele>
        <time>2026-08-30T14:22:44Z</time>
      </trkpt>
      <trkpt lat="45.44419" lon="5.90569">
        <ele>1093.64</ele>
        <time>2026-08-30T14:22:49Z</time>
      </trkpt>
      <trkpt lat="45.44417" lon="5.9056">
        <ele>1092.68</ele>
        <time>2026-08-30T14:22:56Z</time>
      </trkpt>
      <trkpt lat="45.44415" lon="5.90551">
        <ele>1091.71</ele>
        <time>2026-08-30T14:23:02Z</time>
      </trkpt>
      <trkpt lat="45.44414" lon="5.90534">
        <ele>1089.31</ele>
        <time>2026-08-30T14:23:14Z</time>
      </trkpt>
      <trkpt lat="45.44414" lon="5.90529">
        <ele>1088.83</ele>
        <time>2026-08-30T14:23:18Z</time>
      </trkpt>
      <trkpt lat="45.44411" lon="5.90513">
        <ele>1086.43</ele>
        <time>2026-08-30T14:23:31Z</time>
      </trkpt>
      <trkpt lat="45.4441" lon="5.90501">
        <ele>1084.99</ele>
        <time>2026-08-30T14:23:41Z</time>
      </trkpt>
      <trkpt lat="45.44407" lon="5.90483">
        <ele>1083.54</ele>
        <time>2026-08-30T14:23:54Z</time>
      </trkpt>
      <trkpt lat="45.44408" lon="5.90479">
        <ele>1083.54</ele>
        <time>2026-08-30T14:23:56Z</time>
      </trkpt>
      <trkpt lat="45.44412" lon="5.90467">
        <ele>1082.1</ele>
        <time>2026-08-30T14:24:06Z</time>
      </trkpt>
      <trkpt lat="45.44413" lon="5.90463">
        <ele>1082.1</ele>
        <time>2026-08-30T14:24:09Z</time>
      </trkpt>
      <trkpt lat="45.44413" lon="5.90457">
        <ele>1081.62</ele>
        <time>2026-08-30T14:24:12Z</time>
      </trkpt>
      <trkpt lat="45.44411" lon="5.90449">
        <ele>1080.66</ele>
        <time>2026-08-30T14:24:18Z</time>
      </trkpt>
      <trkpt lat="45.44409" lon="5.90426">
        <ele>1079.7</ele>
        <time>2026-08-30T14:24:32Z</time>
      </trkpt>
      <trkpt lat="45.44403" lon="5.90407">
        <ele>1078.26</ele>
        <time>2026-08-30T14:24:44Z</time>
      </trkpt>
      <trkpt lat="45.44402" lon="5.90403">
        <ele>1078.26</ele>
        <time>2026-08-30T14:24:47Z</time>
      </trkpt>
      <trkpt lat="45.444" lon="5.9038">
        <ele>1076.33</ele>
        <time>2026-08-30T14:25:03Z</time>
      </trkpt>
      <trkpt lat="45.44401" lon="5.90378">
        <ele>1076.33</ele>
        <time>2026-08-30T14:25:04Z</time>
      </trkpt>
      <trkpt lat="45.44403" lon="5.90361">
        <ele>1075.37</ele>
        <time>2026-08-30T14:25:17Z</time>
      </trkpt>
      <trkpt lat="45.44407" lon="5.90339">
        <ele>1074.89</ele>
        <time>2026-08-30T14:25:32Z</time>
      </trkpt>
      <trkpt lat="45.4441" lon="5.90321">
        <ele>1073.93</ele>
        <time>2026-08-30T14:25:44Z</time>
      </trkpt>
      <trkpt lat="45.44411" lon="5.90317">
        <ele>1073.45</ele>
        <time>2026-08-30T14:25:47Z</time>
      </trkpt>
      <trkpt lat="45.44413" lon="5.90307">
        <ele>1072.97</ele>
        <time>2026-08-30T14:25:53Z</time>
      </trkpt>
      <trkpt lat="45.44414" lon="5.90302">
        <ele>1072.97</ele>
        <time>2026-08-30T14:25:56Z</time>
      </trkpt>
      <trkpt lat="45.44417" lon="5.90279">
        <ele>1072.49</ele>
        <time>2026-08-30T14:26:10Z</time>
      </trkpt>
      <trkpt lat="45.44421" lon="5.90258">
        <ele>1071.05</ele>
        <time>2026-08-30T14:26:24Z</time>
      </trkpt>
      <trkpt lat="45.44422" lon="5.90237">
        <ele>1070.08</ele>
        <time>2026-08-30T14:26:37Z</time>
      </trkpt>
      <trkpt lat="45.44423" lon="5.90232">
        <ele>1069.6</ele>
        <time>2026-08-30T14:26:41Z</time>
      </trkpt>
      <trkpt lat="45.44423" lon="5.90214">
        <ele>1069.12</ele>
        <time>2026-08-30T14:26:51Z</time>
      </trkpt>
      <trkpt lat="45.44422" lon="5.902">
        <ele>1068.16</ele>
        <time>2026-08-30T14:26:59Z</time>
      </trkpt>
      <trkpt lat="45.44424" lon="5.90192">
        <ele>1068.16</ele>
        <time>2026-08-30T14:27:04Z</time>
      </trkpt>
      <trkpt lat="45.44421" lon="5.90168">
        <ele>1066.72</ele>
        <time>2026-08-30T14:27:19Z</time>
      </trkpt>
      <trkpt lat="45.44421" lon="5.90156">
        <ele>1066.72</ele>
        <time>2026-08-30T14:27:28Z</time>
      </trkpt>
      <trkpt lat="45.44419" lon="5.90139">
        <ele>1065.76</ele>
        <time>2026-08-30T14:27:38Z</time>
      </trkpt>
      <trkpt lat="45.44419" lon="5.9013">
        <ele>1065.76</ele>
        <time>2026-08-30T14:27:43Z</time>
      </trkpt>
      <trkpt lat="45.44423" lon="5.90111">
        <ele>1065.28</ele>
        <time>2026-08-30T14:27:56Z</time>
      </trkpt>
      <trkpt lat="45.44425" lon="5.90109">
        <ele>1065.28</ele>
        <time>2026-08-30T14:27:58Z</time>
      </trkpt>
      <trkpt lat="45.44427" lon="5.90095">
        <ele>1064.8</ele>
        <time>2026-08-30T14:28:07Z</time>
      </trkpt>
      <trkpt lat="45.44429" lon="5.9009">
        <ele>1064.8</ele>
        <time>2026-08-30T14:28:11Z</time>
      </trkpt>
      <trkpt lat="45.4443" lon="5.90081">
        <ele>1064.8</ele>
        <time>2026-08-30T14:28:18Z</time>
      </trkpt>
      <trkpt lat="45.44427" lon="5.90071">
        <ele>1064.32</ele>
        <time>2026-08-30T14:28:23Z</time>
      </trkpt>
      <trkpt lat="45.44424" lon="5.90061">
        <ele>1064.32</ele>
        <time>2026-08-30T14:28:28Z</time>
      </trkpt>
      <trkpt lat="45.44419" lon="5.90046">
        <ele>1054.22</ele>
        <time>2026-08-30T14:28:41Z</time>
      </trkpt>
      <trkpt lat="45.44419" lon="5.90046">
        <ele>1066.24</ele>
        <time>2026-08-30T14:28:42Z</time>
      </trkpt>
      <trkpt lat="45.44419" lon="5.90046">
        <ele>1070.08</ele>
        <time>2026-08-30T14:28:43Z</time>
      </trkpt>
      <trkpt lat="45.44419" lon="5.90047">
        <ele>1061.91</ele>
        <time>2026-08-30T14:28:44Z</time>
      </trkpt>
      <trkpt lat="45.44419" lon="5.90047">
        <ele>1065.28</ele>
        <time>2026-08-30T14:28:45Z</time>
      </trkpt>
      <trkpt lat="45.44419" lon="5.90047">
        <ele>1059.99</ele>
        <time>2026-08-30T14:28:50Z</time>
      </trkpt>
      <trkpt lat="45.44419" lon="5.90047">
        <ele>1065.76</ele>
        <time>2026-08-30T14:28:51Z</time>
      </trkpt>
      <trkpt lat="45.44419" lon="5.90047">
        <ele>1063.84</ele>
        <time>2026-08-30T14:28:54Z</time>
      </trkpt>
      <trkpt lat="45.44419" lon="5.90047">
        <ele>1059.03</ele>
        <time>2026-08-30T14:29:00Z</time>
      </trkpt>
      <trkpt lat="45.44419" lon="5.90047">
        <ele>1069.12</ele>
        <time>2026-08-30T14:29:01Z</time>
      </trkpt>
      <trkpt lat="45.44419" lon="5.90047">
        <ele>1063.84</ele>
        <time>2026-08-30T14:29:02Z</time>
      </trkpt>
    </trkseg>
  </trk>
</gpx>